[[{"header":{"parameterUnit":"m.s-1","parameterCategory":1,"la1":31.0,"la2":29.5877,"lo1":-88.7671,"lo2":-86.6584,"dy":0.0162,"dx":0.0185,"nx":115,"ny":88,"refTime":"2023-05-28T18:00:00:Z","depth":0,"parameterNumber":2,"parameterNumberName":"U-component_of_WINDS"},"data":[0.0,0.0,0.0,0.0,0.0,0.0,0.0,0.0,0.0,0.0,0.0,0.0,0.0,0.0,0.0,0.0,0.0,0.0,0.0,0.0,0.0,0.0,0.0,0.0,0.0,0.0,0.0,0.0,0.0,0.0,0.0,0.0,0.0,0.0,0.0,0.0,0.0,0.0,0.0,0.0,0.0,0.0,0.0,0.0,0.0,0.0,0.0,0.0,0.0,0.0,0.0,0.0,0.0,0.0,0.0,0.0,0.0,0.0,0.0,0.0,0.0,0.0,0.0,0.0,0.0,0.0,0.0,0.0,0.0,0.0,0.0,0.0,0.0,0.0,0.0,0.0,0.0,0.0,0.0,0.0,0.0,0.0,0.0,0.0,0.0,0.0,0.0,0.0,0.0,0.0,0.0,0.0,0.0,0.0,0.0,0.0,0.0,0.0,0.0,0.0,0.0,0.0,0.0,0.0,0.0,0.0,0.0,0.0,0.0,0.0,0.0,0.0,0.0,0.0,0.0,0.0,0.0,0.0,0.0,0.0,0.0,0.0,0.0,0.0,0.0,0.0,0.0,0.0,0.0,0.0,0.0,0.0,0.0,0.0,0.0,0.0,0.0,0.0,0.0,0.0,0.0,0.0,0.0,0.0,0.0,0.0,0.0,0.0,0.0,0.0,0.0,0.0,0.0,0.0,0.0,0.0,0.0,0.0,0.0,0.0,0.0,0.0,0.0,0.0,0.0,0.0,0.0,0.0,0.0,0.0,0.0,0.0,0.0,0.0,0.0,0.0,0.0,0.0,0.0,0.0,0.0,0.0,0.0,0.0,0.0,0.0,0.0,0.0,0.0,0.0,0.0,0.0,0.0,0.0,0.0,0.0,0.0,0.0,0.0,0.0,0.0,0.0,0.0,0.0,0.0,0.0,0.0,0.0,0.0,0.0,0.0,0.0,0.0,0.0,0.0,0.0,0.0,0.0,0.0,0.0,0.0,0.0,0.0,0.0,0.0,0.0,0.0,0.0,0.0,0.0,0.0,0.0,0.0,0.0,0.0,0.0,0.0,0.0,0.0,0.0,0.0,0.0,0.0,0.0,0.0,0.0,0.0,0.0,0.0,0.0,0.0,0.0,0.0,0.0,0.0,0.0,0.0,0.0,0.0,0.0,0.0,0.0,0.0,0.0,0.0,0.0,0.0,0.0,0.0,0.0,0.0,0.0,0.0,0.0,0.0,0.0,0.0,0.0,0.0,0.0,0.0,0.0,0.0,0.0,0.0,0.0,0.0,0.0,0.0,0.0,0.0,0.0,0.0,0.0,0.0,0.0,0.0,0.0,0.0,0.0,0.0,0.0,0.0,0.0,0.0,0.0,0.0,0.0,0.0,0.0,0.0,0.0,0.0,0.0,0.0,0.0,0.0,0.0,0.0,0.0,0.0,0.0,0.0,0.0,0.0,0.0,0.0,0.0,0.0,0.0,0.0,0.0,0.0,0.0,0.0,0.0,0.0,0.0,0.0,0.0,0.0,0.0,0.0,0.0,0.0,0.0,0.0,0.0,0.0,0.0,0.0,0.0,0.0,0.0,0.0,0.0,0.0,0.0,0.0,0.0,0.0,0.0,0.0,0.0,0.0,0.0,0.0,0.0,0.0,0.0,0.0,0.0,0.0,0.0,0.0,0.0,0.0,0.0,0.0,0.0,0.0,0.0,0.0,0.0,0.0,0.0,0.0,0.0,0.0,0.0,0.0,0.0,0.0,0.0,0.0,0.0,0.0,0.0,0.0,0.0,0.0,0.0,0.0,0.0,0.0,0.0,0.0,0.0,0.0,0.0,0.0,0.0,0.0,0.0,0.0,0.0,0.0,0.0,0.0,0.0,0.0,0.0,0.0,0.0,0.0,0.0,0.0,0.0,0.0,0.0,0.0,0.0,0.0,0.0,0.0,0.0,0.0,0.0,0.0,0.0,0.0,0.0,0.0,0.0,0.0,0.0,0.0,0.0,0.0,0.0,0.0,0.0,0.0,0.0,0.0,0.0,0.0,0.0,0.0,0.0,0.0,0.0,0.0,0.0,0.0,0.0,0.0,0.0,0.0,0.0,0.0,0.0,0.0,0.0,0.0,0.0,0.0,0.0,0.0,0.0,0.0,0.0,0.0,0.0,0.0,0.0,0.0,0.0,0.0,0.0,0.0,0.0,0.0,0.0,0.0,0.0,0.0,0.0,0.0,0.0,0.0,0.0,0.0,0.0,0.0,0.0,0.0,0.0,0.0,0.0,0.0,0.0,0.0,0.0,0.0,0.0,0.0,0.0,0.0,0.0,0.0,0.0,0.0,0.0,0.0,0.0,0.0,0.0,0.0,0.0,0.0,0.0,0.0,0.0,0.0,0.0,0.0,0.0,0.0,0.0,0.0,0.0,0.0,0.0,0.0,0.0,0.0,0.0,0.0,0.0,0.0,0.0,0.0,0.0,0.0,0.0,0.0,0.0,0.0,0.0,0.0,0.0,0.0,0.0,0.0,0.0,0.0,0.0,0.0,0.0,0.0,0.0,0.0,0.0,0.0,0.0,0.0,0.0,0.0,0.0,0.0,0.0,0.0,0.0,0.0,0.0,0.0,0.0,0.0,0.0,0.0,0.0,0.0,0.0,0.0,0.0,0.0,0.0,0.0,0.0,0.0,0.0,0.0,0.0,0.0,0.0,0.0,0.0,0.0,0.0,0.0,0.0,0.0,0.0,0.0,0.0,0.0,0.0,0.0,0.0,0.0,0.0,0.0,0.0,0.0,0.0,0.0,0.0,0.0,0.0,0.0,0.0,0.0,0.0,0.0,0.0,0.0,0.0,0.0,0.0,0.0,0.0,0.0,0.0,0.0,0.0,0.0,0.0,0.0,0.0,0.0,0.0,0.0,0.0,0.0,0.0,0.0,0.0,0.0,0.0,0.0,0.0,0.0,0.0,0.0,0.0,0.0,0.0,0.0,0.0,0.0,0.0,0.0,0.0,0.0,0.0,0.0,0.0,0.0,0.0,0.0,0.0,0.0,0.0,0.0,0.0,0.0,0.0,0.0,0.0,0.0,0.0,0.0,0.0,0.0,0.0,0.0,0.0,0.0,0.0,0.0,0.0,0.0,0.0,0.0,0.0,0.0,0.0,0.0,0.0,0.0,0.0,0.0,0.0,0.0,0.0,0.0,0.0,0.0,0.0,0.0,0.0,0.0,0.0,0.0,0.0,0.0,0.0,0.0,0.0,0.0,0.0,0.0,0.0,0.0,0.0,0.0,0.0,0.0,0.0,0.0,0.0,0.0,0.0,0.0,0.0,0.0,0.0,0.0,0.0,0.0,0.0,0.0,0.0,0.0,0.0,0.0,0.0,0.0,0.0,0.0,0.0,0.0,0.0,0.0,0.0,0.0,0.0,0.0,0.0,0.0,0.0,0.0,0.0,0.0,0.0,0.0,0.0,0.0,0.0,0.0,0.0,0.0,0.0,0.0,0.0,0.0,0.0,0.0,0.0,0.0,0.0,0.0,0.0,0.0,0.0,0.0,0.0,0.0,0.0,0.0,0.0,0.0,0.0,0.0,0.0,0.0,0.0,0.0,0.0,0.0,0.0,0.0,0.0,0.0,0.0,0.0,0.0,0.0,0.0,0.0,0.0,0.0,0.0,0.0,0.0,0.0,0.0,0.0,0.0,0.0,0.0,0.0,0.0,0.0,0.0,0.0,0.0,0.0,0.0,0.0,0.0,0.0,0.0,0.0,0.0,0.0,0.0,0.0,0.0,0.0,0.0,0.0,0.0,0.0,0.0,0.0,0.0,0.0,0.0,0.0,0.0,0.0,0.0,0.0,0.0,0.0,0.0,0.0,0.0,0.0,0.0,0.0,0.0,0.0,0.0,0.0,0.0,0.0,0.0,0.0,0.0,0.0,0.0,0.0,0.0,0.0,0.0,0.0,0.0,0.0,0.0,0.0,0.0,0.0,0.0,0.0,0.0,0.0,0.0,0.0,0.0,0.0,0.0,0.0,0.0,0.0,0.0,0.0,0.0,0.0,0.0,0.0,0.0,0.0,0.0,0.0,0.0,0.0,0.0,0.0,0.0,0.0,0.0,0.0,0.0,0.0,0.0,0.0,0.0,0.0,0.0,0.0,0.0,0.0,0.0,0.0,0.0,0.0,0.0,0.0,0.0,0.0,0.0,0.0,0.0,0.0,0.0,0.0,0.0,0.0,0.0,0.0,0.0,0.0,0.0,0.0,0.0,0.0,0.0,0.0,0.0,0.0,0.0,0.0,0.0,1.0908,0.0,0.0,0.0,0.0,0.0,0.0,0.0,0.0,0.0,0.0,0.0,0.0,0.0,0.0,0.0,0.0,0.0,0.0,0.0,0.0,0.0,0.0,0.0,0.0,0.0,0.0,0.0,0.0,0.0,0.0,0.0,0.0,0.0,0.0,0.0,0.0,0.0,0.0,0.0,0.0,0.0,0.0,0.0,0.0,0.0,0.0,0.0,0.0,0.0,0.0,0.0,0.0,0.0,0.0,0.0,0.0,0.0,0.0,0.0,0.0,0.0,0.0,0.0,0.0,0.0,0.0,0.0,0.0,0.0,0.0,0.0,0.0,0.0,0.0,0.0,0.0,0.0,0.0,0.0,0.0,0.0,0.0,0.0,0.0,0.0,0.0,0.0,0.0,0.0,0.0,0.0,0.0,0.0,0.0,0.0,0.0,0.0,0.0,0.0,0.0,0.0,0.0,0.0,0.0,0.0,0.0,0.0,0.0,0.0,0.0,1.1419,1.1348,1.1314,1.1458,1.1798,0.0,0.0,0.0,0.0,0.0,0.0,0.0,0.0,0.0,0.0,0.0,0.0,0.0,0.0,0.0,0.0,0.0,0.0,0.0,0.0,0.0,0.0,0.0,0.0,0.0,0.0,0.0,0.0,0.0,0.0,0.0,0.0,0.0,0.0,0.0,0.0,0.0,0.0,0.0,0.0,0.0,0.0,0.0,0.0,0.0,0.0,0.0,0.0,0.0,0.0,0.0,0.0,0.0,0.0,0.0,0.0,0.0,0.0,0.0,0.0,0.0,0.0,0.0,0.0,0.0,0.0,0.0,0.0,0.0,0.0,0.0,0.0,0.0,0.0,0.0,0.0,0.0,0.0,0.0,0.0,0.0,0.0,0.0,0.0,0.0,0.0,0.0,0.0,0.0,0.0,0.0,0.0,0.0,0.0,0.0,0.0,0.0,0.0,0.0,0.0,0.0,0.0,0.0,0.0,0.0,0.0,0.0,0.0,0.0,0.0,0.0,0.0,1.2444,1.2489,1.2646,0.0,0.0,0.0,0.0,0.0,0.0,0.0,0.0,0.0,0.0,0.0,0.0,0.0,0.0,0.0,0.0,0.0,0.0,0.0,0.0,0.0,0.0,0.0,0.0,0.0,0.0,0.0,0.0,0.0,0.0,0.0,0.0,0.0,0.0,0.0,0.0,0.0,0.0,0.0,0.0,0.0,0.0,0.0,0.0,0.0,0.0,0.0,0.0,0.0,0.0,0.0,0.0,0.0,0.0,0.0,0.0,0.0,0.0,0.0,0.0,0.0,0.0,0.0,0.0,0.0,0.0,0.0,0.0,0.0,0.0,0.0,0.0,0.0,0.0,0.0,0.0,0.0,0.0,0.0,0.0,0.0,0.0,0.0,0.0,0.0,0.0,0.0,0.0,0.0,0.0,0.0,0.0,0.0,0.0,0.0,0.0,0.0,0.0,0.0,0.0,0.0,0.0,0.0,0.0,0.0,0.0,0.0,0.0,0.0,0.0,1.2572,1.2522,1.2456,0.0,1.3383,0.0,0.0,0.0,0.0,0.0,0.0,0.0,0.0,0.0,0.0,0.0,0.0,0.0,0.0,0.0,0.0,0.0,0.0,0.0,0.0,0.0,0.0,0.0,0.0,0.0,0.0,0.0,0.0,0.0,0.0,0.0,0.0,0.0,0.0,0.0,0.0,0.0,0.0,0.0,0.0,0.0,0.0,0.0,0.0,0.0,0.0,0.0,0.0,0.0,0.0,0.0,0.0,0.0,0.0,0.0,0.0,0.0,0.0,0.0,0.0,0.0,0.0,0.0,0.0,0.0,0.0,0.0,0.0,0.0,0.0,0.0,0.0,0.0,0.0,0.0,0.0,0.0,0.0,0.0,0.0,0.0,0.0,0.0,0.0,0.0,0.0,0.0,0.0,0.0,0.0,0.0,0.0,0.0,0.0,0.0,0.0,0.0,0.0,0.0,0.0,0.0,0.0,0.0,0.0,0.0,0.0,0.0,0.0,0.0,0.0,1.4048,1.398,1.3917,1.4004,0.0,0.0,0.0,0.0,0.0,0.0,0.0,0.0,0.0,0.0,0.0,0.0,0.0,0.0,0.0,0.0,0.0,0.0,0.0,0.0,0.0,0.0,0.0,0.0,0.0,0.0,0.0,0.0,0.0,0.0,0.0,0.0,0.0,0.0,0.0,0.0,0.0,0.0,0.0,0.0,0.0,0.0,0.0,0.0,0.0,0.0,0.0,0.0,0.0,0.0,0.0,0.0,0.0,0.0,0.0,0.0,0.0,0.0,0.0,0.0,0.0,0.0,0.0,0.0,0.0,0.0,0.0,0.0,0.0,0.0,0.0,0.0,0.0,0.0,0.0,0.0,0.0,0.0,0.0,0.0,0.0,0.0,0.0,0.0,0.0,0.0,0.0,0.0,0.0,0.0,0.0,0.0,0.0,0.0,0.0,0.0,0.0,0.0,0.0,0.0,0.0,0.0,0.0,0.0,0.0,0.0,0.0,0.0,0.0,0.0,1.5133,1.5047,1.4984,1.4921,1.486,1.4803,0.0,0.0,0.0,0.0,0.0,0.0,0.0,0.0,0.0,0.0,0.0,0.0,0.0,0.0,0.0,0.0,0.0,0.0,0.0,0.0,0.0,0.0,0.0,0.0,0.0,0.0,0.0,0.0,0.0,0.0,0.0,0.0,0.0,0.0,0.0,0.0,0.0,0.0,0.0,0.0,0.0,0.0,0.0,0.0,0.0,0.0,0.0,0.0,0.0,0.0,0.0,0.0,0.0,0.0,0.0,0.0,0.0,0.0,0.0,0.0,0.0,0.0,0.0,0.0,0.0,0.0,0.0,0.0,0.0,0.0,0.0,0.0,0.0,0.0,0.0,0.0,0.0,0.0,0.0,0.0,0.0,0.0,0.0,0.0,0.0,0.0,0.0,0.0,0.0,0.0,0.0,0.0,0.0,0.0,0.0,0.0,0.0,0.0,0.0,0.0,0.0,0.0,0.0,0.0,0.0,0.0,0.0,0.0,1.5204,1.5139,1.5047,1.49,1.4895,1.4869,0.0,0.0,0.0,0.0,0.0,0.0,0.0,0.0,0.0,0.0,0.0,0.0,0.0,0.0,0.0,0.0,0.0,0.0,0.0,0.0,0.0,0.0,0.0,0.0,0.0,0.0,0.0,0.0,0.0,0.0,0.0,0.0,0.0,0.0,0.0,0.0,0.0,0.0,0.0,0.0,0.0,0.0,0.0,0.0,0.0,0.0,0.0,0.0,0.0,0.0,0.0,0.0,0.0,0.0,0.0,0.0,0.0,0.0,0.0,0.0,0.0,0.0,0.0,0.0,0.0,0.0,0.0,0.0,0.0,0.0,0.0,0.0,0.0,0.0,0.0,0.0,0.0,0.0,0.0,0.0,0.0,0.0,0.0,0.0,0.0,0.0,0.0,0.0,0.0,0.0,0.0,0.0,0.0,0.0,0.0,0.0,0.0,0.0,0.0,0.0,0.0,0.0,0.0,0.0,0.0,0.0,0.0,0.0,0.0,1.5196,1.514,1.5059,1.4957,1.4919,1.4859,0.0,0.0,0.0,0.0,0.0,0.0,0.0,0.0,0.0,0.0,0.0,0.0,0.0,0.0,0.0,0.0,0.0,0.0,0.0,0.0,0.0,0.0,0.0,0.0,0.0,0.0,0.0,0.0,0.0,0.0,0.0,0.0,0.0,0.0,0.0,0.0,0.0,0.0,0.0,0.0,0.0,0.0,0.0,0.0,0.0,0.0,0.0,0.0,0.0,0.0,0.0,0.0,0.0,0.0,0.0,0.0,0.0,0.0,0.0,0.0,0.0,0.0,0.0,0.0,0.0,0.0,0.0,0.0,0.0,0.0,0.0,0.0,0.0,0.0,0.0,0.0,0.0,0.0,0.0,0.0,0.0,0.0,0.0,0.0,0.0,0.0,0.0,0.0,0.0,0.0,0.0,0.0,0.0,0.0,0.0,0.0,0.0,0.0,0.0,0.0,0.0,0.0,0.0,0.0,0.0,0.0,0.0,0.0,0.0,1.5245,0.0,1.5099,1.5049,1.4968,1.4902,0.0,0.0,0.0,0.0,0.0,0.0,0.0,0.0,0.0,0.0,0.0,0.0,0.0,0.0,0.0,0.0,0.0,0.0,0.0,0.0,0.0,0.0,0.0,0.0,0.0,0.0,0.0,0.0,0.0,0.0,0.0,0.0,0.0,0.0,0.0,0.0,0.0,0.0,0.0,0.0,0.0,0.0,0.0,0.0,0.0,0.0,0.0,0.0,0.0,0.0,0.0,0.0,0.0,0.0,0.0,0.0,0.0,0.0,0.0,0.0,0.0,0.0,0.0,0.0,0.0,0.0,0.0,0.0,0.0,0.0,0.0,0.0,0.0,0.0,0.0,0.0,0.0,0.0,0.0,0.0,0.0,0.0,0.0,0.0,0.0,0.0,0.0,0.0,0.0,0.0,0.0,0.0,0.0,0.0,0.0,0.0,0.0,0.0,0.0,0.0,0.0,0.0,0.0,0.0,0.0,0.0,0.0,0.0,1.5291,1.5299,1.5226,1.5172,1.5099,1.5034,1.496,0.0,0.0,0.0,0.0,0.0,0.0,0.0,0.0,0.0,0.0,0.0,0.0,0.0,0.0,0.0,0.0,0.0,0.0,0.0,0.0,0.0,0.0,0.0,0.0,0.0,0.0,0.0,0.0,0.0,0.0,0.0,0.0,0.0,0.0,0.0,0.0,0.0,0.0,0.0,0.0,0.0,0.0,0.0,0.0,0.0,0.0,0.0,0.0,0.0,0.0,0.0,0.0,0.0,0.0,0.0,0.0,0.0,0.0,0.0,0.0,0.0,0.0,0.0,0.0,0.0,0.0,0.0,0.0,0.0,0.0,0.0,0.0,0.0,0.0,0.0,0.0,0.0,0.0,0.0,0.0,0.0,0.0,0.0,0.0,0.0,0.0,0.0,0.0,0.0,0.0,0.0,0.0,0.0,0.0,0.0,0.0,0.0,0.0,0.0,0.0,0.0,0.0,0.0,0.0,0.0,0.0,0.0,0.0,0.0,1.5308,1.5226,1.5201,1.5165,1.5099,1.5042,0.0,0.0,0.0,0.0,0.0,0.0,0.0,0.0,0.0,0.0,0.0,0.0,0.0,0.0,0.0,0.0,0.0,0.0,0.0,0.0,0.0,0.0,0.0,0.0,0.0,0.0,0.0,0.0,0.0,0.0,0.0,0.0,0.0,0.0,0.0,0.0,0.0,0.0,0.0,0.0,0.0,0.0,0.0,0.0,0.0,0.0,0.0,0.0,0.0,0.0,0.0,0.0,0.0,0.0,0.0,0.0,0.0,0.0,0.0,0.0,0.0,0.0,0.0,0.0,0.0,0.0,0.0,0.0,0.0,0.0,0.0,0.0,0.0,0.0,0.0,0.0,0.0,0.0,0.0,0.0,0.0,0.0,0.0,0.0,0.0,0.0,0.0,0.0,0.0,0.0,0.0,0.0,0.0,0.0,0.0,0.0,0.0,0.0,0.0,0.0,0.0,0.0,0.0,0.0,0.0,0.0,0.0,0.0,0.0,1.6258,1.5926,1.571,1.5692,1.5927,1.6027,1.5979,0.0,0.0,0.0,0.0,0.0,0.0,0.0,0.0,0.0,0.0,0.0,0.0,0.0,0.0,0.0,0.0,0.0,0.0,0.0,0.0,0.0,0.0,0.0,0.0,0.0,0.0,0.0,0.0,0.0,0.0,0.0,0.0,0.0,0.0,0.0,0.0,0.0,0.0,0.0,0.0,0.0,0.0,0.0,0.0,0.0,0.0,0.0,0.0,0.0,0.0,0.0,0.0,0.0,0.0,0.0,0.0,0.0,0.0,0.0,0.0,0.0,0.0,0.0,0.0,0.0,0.0,0.0,0.0,0.0,0.0,0.0,0.0,0.0,0.0,0.0,0.0,0.0,0.0,0.0,0.0,0.0,0.0,0.0,0.0,0.0,0.0,0.0,0.0,0.0,0.0,0.0,0.0,0.0,0.0,0.0,0.0,0.0,0.0,0.0,0.0,0.0,0.0,0.0,0.0,0.0,0.0,0.0,0.0,1.7989,1.7177,1.6689,1.6605,1.7296,1.7664,0.0,0.0,0.0,0.0,0.0,0.0,0.0,0.0,0.0,0.0,0.0,0.0,0.0,0.0,0.0,0.0,0.0,0.0,0.0,0.0,0.0,0.0,0.0,0.0,0.0,0.0,0.0,0.0,0.0,0.0,0.0,0.0,0.0,0.0,0.0,0.0,0.0,0.0,0.0,0.0,0.0,0.0,0.0,0.0,0.0,0.0,0.0,0.0,0.0,0.0,0.0,0.0,0.0,0.0,0.0,0.0,0.0,0.0,0.0,0.0,0.0,0.0,0.0,0.0,0.0,0.0,0.0,0.0,0.0,0.0,0.0,0.0,0.0,0.0,0.0,0.0,0.0,0.0,0.0,0.0,0.0,0.0,0.0,0.0,0.0,0.0,0.0,0.0,0.0,0.0,0.0,0.0,0.0,0.0,0.0,0.0,0.0,0.0,0.0,0.0,0.0,0.0,0.0,0.0,0.0,0.0,0.0,0.0,0.0,1.8016,1.8393,1.825,1.7567,1.7699,1.7738,0.0,0.0,0.0,0.0,0.0,0.0,0.0,0.0,0.0,0.0,0.0,0.0,0.0,0.0,0.0,0.0,0.0,0.0,0.0,0.0,0.0,0.0,0.0,0.0,0.0,0.0,0.0,0.0,0.0,0.0,0.0,0.0,0.0,0.0,0.0,0.0,0.0,0.0,0.0,0.0,0.0,0.0,0.0,0.0,0.0,0.0,0.0,0.0,0.0,0.0,0.0,0.0,0.0,0.0,0.0,0.0,0.0,0.0,0.0,0.0,0.0,0.0,0.0,0.0,0.0,0.0,0.0,0.0,0.0,0.0,0.0,0.0,0.0,0.0,0.0,0.0,0.0,0.0,0.0,0.0,0.0,0.0,0.0,0.0,0.0,0.0,0.0,0.0,0.0,0.0,0.0,0.0,0.0,0.0,0.0,0.0,0.0,0.0,0.0,0.0,0.0,0.0,0.0,0.0,0.0,0.0,0.0,0.0,1.8725,1.908,1.9585,1.9576,1.9049,1.8974,1.8901,0.0,0.0,0.0,0.0,0.0,0.0,0.0,0.0,0.0,0.0,0.0,0.0,0.0,0.0,0.0,0.0,0.0,0.0,0.0,0.0,0.0,0.0,0.0,0.0,0.0,0.0,0.0,0.0,0.0,0.0,0.0,0.0,0.0,0.0,0.0,0.0,0.0,0.0,0.0,0.0,0.0,0.0,0.0,0.0,0.0,0.0,0.0,0.0,0.0,0.0,0.0,0.0,0.0,0.0,0.0,0.0,0.0,0.0,0.0,0.0,0.0,0.0,0.0,0.0,0.0,0.0,0.0,0.0,0.0,0.0,0.0,0.0,0.0,0.0,0.0,0.0,0.0,0.0,0.0,0.0,0.0,0.0,0.0,0.0,0.0,0.0,0.0,0.0,0.0,0.0,0.0,0.0,0.0,0.0,0.0,0.0,0.0,0.0,0.0,0.0,0.0,0.0,0.0,0.0,0.0,0.0,0.0,0.0,1.9863,2.0683,2.0722,2.0742,2.0719,2.0579,2.0472,0.0,0.0,0.0,0.0,0.0,0.0,0.0,0.0,0.0,0.0,0.0,0.0,0.0,0.0,0.0,0.0,0.0,0.0,0.0,0.0,0.0,0.0,0.0,0.0,0.0,0.0,0.0,0.0,0.0,0.0,0.0,0.0,0.0,0.0,0.0,0.0,0.0,0.0,0.0,0.0,0.0,0.0,0.0,0.0,0.0,0.0,0.0,0.0,0.0,0.0,0.0,0.0,0.0,0.0,0.0,0.0,0.0,0.0,0.0,0.0,0.0,0.0,0.0,0.0,0.0,0.0,0.0,0.0,0.0,0.0,0.0,0.0,0.0,0.0,0.0,0.0,0.0,0.0,0.0,0.0,0.0,0.0,0.0,0.0,0.0,0.0,0.0,0.0,0.0,0.0,0.0,0.0,0.0,0.0,0.0,0.0,0.0,0.0,0.0,0.0,0.0,0.0,0.0,0.0,0.0,0.0,0.0,0.0,2.0716,2.1507,2.1531,2.1536,2.154,2.0873,2.0492,0.0,0.0,0.0,0.0,0.0,0.0,0.0,0.0,0.0,0.0,0.0,0.0,0.0,0.0,0.0,0.0,0.0,0.0,0.0,0.0,0.0,0.0,0.0,0.0,0.0,0.0,0.0,0.0,0.0,0.0,0.0,0.0,0.0,0.0,0.0,0.0,0.0,0.0,0.0,0.0,0.0,0.0,0.0,0.0,0.0,0.0,0.0,0.0,1.5106,0.0,0.0,0.0,0.0,0.0,0.0,0.0,0.0,0.0,0.0,0.0,0.0,0.0,0.0,0.0,0.0,0.0,0.0,0.0,0.0,0.0,0.0,0.0,0.0,0.0,0.0,0.0,0.0,0.0,0.0,0.0,0.0,0.0,0.0,0.0,0.0,0.0,0.0,0.0,0.0,0.0,0.0,0.0,0.0,0.0,0.0,0.0,0.0,0.0,0.0,0.0,0.0,0.0,0.0,0.0,0.0,0.0,0.0,0.0,2.0955,2.1767,2.1796,2.1782,2.1787,2.1387,2.0949,0.0,0.0,0.0,0.0,0.0,0.0,0.0,0.0,0.0,0.0,0.0,0.0,0.0,0.0,0.0,0.0,0.0,0.0,0.0,0.0,0.0,0.0,0.0,0.0,0.0,0.0,0.0,0.0,0.0,0.0,0.0,0.0,0.0,0.0,0.0,0.0,0.0,0.0,0.0,0.0,0.0,0.0,0.0,0.0,0.0,0.0,0.0,0.0,0.0,0.0,0.0,0.0,0.0,0.0,0.0,0.0,0.0,0.0,0.0,0.0,0.0,0.0,0.0,0.0,0.0,0.0,0.0,0.0,0.0,0.0,0.0,0.0,0.0,0.0,0.0,0.0,0.0,0.0,0.0,0.0,0.0,0.0,0.0,0.0,0.0,0.0,0.0,0.0,0.0,0.0,0.0,0.0,0.0,0.0,0.0,0.0,0.0,0.0,0.0,0.0,0.0,0.0,0.0,0.0,0.0,0.0,0.0,2.0509,2.0976,2.1937,2.2003,2.201,2.1995,2.2064,2.1582,2.0547,0.0,0.0,0.0,0.0,0.0,0.0,0.0,0.0,0.0,0.0,0.0,0.0,0.0,0.0,0.0,0.0,0.0,0.0,0.0,0.0,0.0,0.0,0.0,0.0,0.0,0.0,0.0,0.0,0.0,0.0,0.0,0.0,0.0,0.0,0.0,0.0,0.0,0.0,1.4804,1.4776,0.0,0.0,0.0,0.0,0.0,0.0,0.0,0.0,1.5915,0.0,0.0,0.0,0.0,0.0,0.0,0.0,0.0,0.0,0.0,0.0,0.0,0.0,0.0,0.0,0.0,0.0,0.0,0.0,0.0,0.0,0.0,0.0,0.0,0.0,0.0,0.0,0.0,0.0,0.0,0.0,0.0,0.0,0.0,0.0,0.0,0.0,0.0,0.0,0.0,0.0,0.0,0.0,0.0,0.0,0.0,0.0,0.0,0.0,0.0,0.0,0.0,0.0,0.0,0.0,0.0,2.0506,2.0516,2.1273,2.2838,2.29,2.289,2.2886,2.2896,2.2167,2.0696,0.0,0.0,0.0,0.0,0.0,0.0,0.0,0.0,0.0,0.0,0.0,0.0,0.0,0.0,0.0,0.0,0.0,0.0,0.0,0.0,0.0,0.0,0.0,0.0,0.0,0.0,0.0,0.0,0.0,0.0,0.0,0.0,0.0,0.0,0.0,0.0,0.0,0.0,0.0,1.4714,1.4716,0.0,0.0,0.0,0.0,0.0,0.0,0.0,0.0,1.7473,0.0,0.0,0.0,0.0,0.0,0.0,0.0,0.0,0.0,0.0,0.0,0.0,0.0,0.0,0.0,0.0,0.0,0.0,0.0,0.0,0.0,0.0,0.0,0.0,0.0,0.0,0.0,0.0,0.0,0.0,0.0,0.0,0.0,0.0,0.0,0.0,0.0,0.0,0.0,0.0,0.0,0.0,0.0,0.0,0.0,0.0,0.0,0.0,0.0,0.0,0.0,0.0,0.0,0.0,0.0,2.0526,2.0947,2.1784,2.3061,2.3533,2.3566,2.3132,2.3107,2.2319,0.0,0.0,0.0,0.0,0.0,0.0,0.0,0.0,0.0,0.0,0.0,0.0,0.0,0.0,0.0,0.0,0.0,0.0,0.0,0.0,0.0,0.0,0.0,0.0,0.0,0.0,0.0,0.0,0.0,0.0,0.0,0.0,0.0,0.0,0.0,0.0,0.0,0.0,0.0,0.0,1.4651,1.4643,1.4648,0.0,0.0,0.0,0.0,0.0,0.0,1.7447,1.8157,0.0,0.0,0.0,0.0,0.0,0.0,0.0,0.0,0.0,0.0,0.0,0.0,0.0,0.0,0.0,0.0,0.0,0.0,0.0,0.0,0.0,0.0,0.0,0.0,0.0,0.0,0.0,0.0,0.0,0.0,0.0,0.0,0.0,0.0,0.0,0.0,0.0,0.0,0.0,0.0,0.0,0.0,0.0,0.0,0.0,0.0,0.0,0.0,0.0,0.0,0.0,0.0,0.0,0.0,0.0,2.0519,2.1336,2.2215,2.3065,2.3934,2.3965,2.3143,2.3101,2.2314,0.0,0.0,0.0,0.0,0.0,0.0,0.0,0.0,0.0,0.0,0.0,0.0,0.0,0.0,0.0,0.0,0.0,0.0,0.0,0.0,0.0,0.0,0.0,0.0,0.0,0.0,0.0,0.0,0.0,0.0,0.0,0.0,0.0,0.0,0.0,0.0,0.0,0.0,0.0,0.0,0.0,1.5058,1.5051,1.5616,0.0,0.0,0.0,0.0,1.7445,1.8214,0.0,0.0,0.0,0.0,0.0,0.0,0.0,0.0,0.0,0.0,0.0,0.0,0.0,0.0,0.0,0.0,0.0,0.0,0.0,0.0,0.0,0.0,0.0,0.0,0.0,0.0,0.0,0.0,0.0,0.0,0.0,0.0,0.0,0.0,0.0,0.0,0.0,0.0,0.0,0.0,0.0,0.0,0.0,0.0,0.0,0.0,0.0,0.0,0.0,0.0,0.0,0.0,0.0,0.0,0.0,0.0,2.0444,2.1274,2.2138,2.2989,2.3869,2.3906,2.3123,2.311,2.2326,0.0,0.0,0.0,0.0,0.0,0.0,0.0,0.0,0.0,0.0,0.0,0.0,0.0,0.0,0.0,0.0,0.0,0.0,0.0,0.0,0.0,0.0,0.0,0.0,0.0,0.0,0.0,0.0,0.0,0.0,0.0,0.0,0.0,0.0,0.0,0.0,0.0,0.0,0.0,0.0,0.0,1.6638,1.6646,1.6702,1.6801,0.0,0.0,1.8191,1.8255,1.8957,0.0,0.0,0.0,0.0,0.0,0.0,0.0,0.0,0.0,0.0,0.0,0.0,0.0,0.0,0.0,0.0,0.0,0.0,0.0,0.0,0.0,0.0,0.0,0.0,0.0,0.0,0.0,0.0,0.0,0.0,0.0,0.0,0.0,0.0,0.0,0.0,0.0,0.0,0.0,0.0,0.0,0.0,0.0,0.0,0.0,0.0,0.0,0.0,0.0,0.0,0.0,0.0,0.0,0.0,0.0,2.0572,2.1095,2.1952,2.2797,2.3669,2.4577,2.4637,2.3805,2.3325,2.2528,0.0,0.0,0.0,0.0,0.0,0.0,0.0,0.0,0.0,0.0,0.0,0.0,0.0,0.0,0.0,0.0,0.0,0.0,0.0,0.0,0.0,0.0,0.0,0.0,0.0,0.0,0.0,0.0,0.0,0.0,0.0,0.0,0.0,0.0,0.0,0.0,0.0,0.0,0.0,0.0,0.0,0.0,1.6854,1.7233,0.0,0.0,0.0,1.8878,1.9003,0.0,0.0,0.0,0.0,0.0,0.0,0.0,0.0,0.0,0.0,0.0,0.0,0.0,0.0,0.0,0.0,0.0,0.0,0.0,0.0,0.0,0.0,0.0,0.0,0.0,0.0,0.0,0.0,0.0,0.0,0.0,0.0,0.0,0.0,0.0,0.0,0.0,0.0,0.0,0.0,0.0,0.0,0.0,0.0,0.0,0.0,0.0,0.0,0.0,0.0,0.0,0.0,0.0,0.0,0.0,0.0,0.0,2.156,2.2441,2.3301,2.4173,2.5085,2.5174,2.4321,2.3513,0.0,0.0,0.0,0.0,0.0,0.0,0.0,0.0,0.0,0.0,0.0,0.0,0.0,0.0,0.0,0.0,0.0,0.0,0.0,0.0,0.0,0.0,0.0,0.0,0.0,0.0,0.0,1.9936,0.0,0.0,0.0,0.0,0.0,0.0,0.0,0.0,0.0,0.0,0.0,0.0,0.0,0.0,1.7365,1.7381,1.7888,1.8298,0.0,0.0,1.9341,1.9453,1.953,1.9555,0.0,0.0,0.0,0.0,0.0,0.0,0.0,0.0,0.0,0.0,0.0,0.0,0.0,0.0,0.0,0.0,0.0,0.0,0.0,0.0,0.0,0.0,0.0,0.0,0.0,0.0,0.0,0.0,0.0,0.0,0.0,0.0,0.0,0.0,0.0,0.0,0.0,0.0,0.0,0.0,0.0,0.0,0.0,0.0,0.0,0.0,0.0,0.0,0.0,0.0,0.0,0.0,0.0,0.0,0.0,2.1517,2.2431,2.33,2.4096,2.5026,2.5118,2.4315,2.3461,2.2624,0.0,0.0,0.0,0.0,0.0,0.0,0.0,0.0,0.0,0.0,0.0,0.0,0.0,0.0,0.0,0.0,0.0,0.0,0.0,0.0,0.0,0.0,0.0,0.0,0.0,0.0,0.0,0.0,0.0,0.0,0.0,0.0,0.0,0.0,0.0,0.0,0.0,0.0,0.0,0.0,0.0,1.8933,1.8952,1.8992,1.9081,0.0,0.0,1.9314,1.9408,1.9405,1.945,1.9569,0.0,0.0,0.0,0.0,0.0,0.0,0.0,0.0,0.0,0.0,0.0,0.0,0.0,0.0,0.0,0.0,0.0,0.0,0.0,0.0,0.0,0.0,0.0,0.0,0.0,0.0,0.0,0.0,0.0,0.0,0.0,0.0,0.0,0.0,0.0,0.0,0.0,0.0,0.0,0.0,0.0,0.0,0.0,0.0,0.0,0.0,0.0,0.0,0.0,0.0,0.0,0.0,0.0,2.1261,2.2113,2.3055,2.3909,2.4755,2.5202,2.529,2.4981,2.418,2.3353,0.0,0.0,0.0,0.0,0.0,0.0,0.0,0.0,0.0,0.0,0.0,0.0,0.0,0.0,0.0,0.0,0.0,0.0,0.0,0.0,0.0,0.0,0.0,0.0,0.0,0.0,0.0,0.0,1.9601,1.956,1.9526,0.0,0.0,0.0,0.0,0.0,0.0,0.0,0.0,0.0,0.0,1.9066,1.9102,1.9104,0.0,0.0,1.9216,1.9248,1.9341,1.939,1.9405,1.9483,1.9497,0.0,0.0,0.0,0.0,0.0,0.0,0.0,0.0,0.0,0.0,0.0,0.0,0.0,0.0,0.0,0.0,0.0,0.0,0.0,0.0,0.0,0.0,0.0,0.0,0.0,0.0,0.0,0.0,0.0,0.0,0.0,0.0,0.0,0.0,0.0,0.0,0.0,0.0,0.0,0.0,0.0,0.0,0.0,0.0,0.0,0.0,0.0,0.0,0.0,0.0,0.0,0.0,2.1706,2.2816,2.35,2.4293,2.5149,2.5274,2.5351,2.534,2.4593,2.3871,0.0,0.0,0.0,0.0,0.0,0.0,0.0,0.0,0.0,0.0,0.0,0.0,0.0,0.0,0.0,0.0,0.0,0.0,0.0,0.0,0.0,0.0,0.0,0.0,0.0,0.0,0.0,0.0,1.9508,1.9413,1.9424,0.0,0.0,0.0,0.0,0.0,0.0,0.0,0.0,0.0,0.0,1.9016,1.907,1.9087,1.9139,1.9202,1.92,1.9216,1.9274,1.9338,1.939,1.939,0.0,0.0,0.0,0.0,0.0,0.0,0.0,0.0,0.0,0.0,0.0,0.0,0.0,0.0,0.0,0.0,0.0,0.0,0.0,0.0,0.0,0.0,0.0,0.0,0.0,0.0,0.0,0.0,0.0,0.0,2.0932,0.0,0.0,0.0,0.0,0.0,0.0,0.0,0.0,0.0,0.0,0.0,0.0,0.0,0.0,0.0,0.0,0.0,0.0,0.0,0.0,0.0,0.0,2.1862,2.3539,2.367,2.4163,2.5063,2.5168,2.5252,2.5273,2.4524,2.4109,2.4051,0.0,0.0,0.0,0.0,0.0,0.0,0.0,0.0,0.0,0.0,0.0,0.0,0.0,0.0,0.0,0.0,0.0,0.0,0.0,0.0,0.0,0.0,0.0,0.0,0.0,0.0,1.9483,1.9387,1.9277,0.0,0.0,0.0,0.0,0.0,0.0,0.0,0.0,0.0,0.0,1.8964,1.8999,1.9019,1.907,1.912,1.9184,1.92,1.9232,1.9274,1.9289,1.9305,0.0,0.0,0.0,0.0,0.0,0.0,0.0,0.0,0.0,0.0,0.0,0.0,0.0,0.0,0.0,0.0,0.0,0.0,0.0,0.0,0.0,0.0,0.0,0.0,0.0,0.0,0.0,2.1264,2.1283,0.0,0.0,0.0,0.0,0.0,0.0,0.0,0.0,0.0,0.0,0.0,2.1461,2.1534,0.0,0.0,0.0,0.0,0.0,0.0,0.0,0.0,0.0,0.0,0.0,0.0,2.2182,2.3359,2.4043,2.454,2.4893,2.5006,2.5068,2.5091,2.4881,2.4481,2.3894,0.0,0.0,0.0,0.0,0.0,0.0,0.0,0.0,0.0,0.0,0.0,0.0,0.0,0.0,0.0,0.0,0.0,0.0,0.0,0.0,0.0,0.0,0.0,0.0,0.0,1.9326,0.0,0.0,0.0,0.0,0.0,0.0,0.0,0.0,0.0,0.0,0.0,1.8914,1.8877,1.8932,1.895,1.8984,1.9017,1.9049,0.0,0.0,0.0,0.0,0.0,0.0,0.0,0.0,0.0,0.0,0.0,0.0,0.0,0.0,2.0476,1.9531,1.9332,1.9298,1.9298,0.0,0.0,0.0,0.0,0.0,0.0,0.0,0.0,0.0,0.0,0.0,0.0,0.0,0.0,0.0,0.0,2.1878,0.0,0.0,0.0,0.0,0.0,0.0,0.0,0.0,2.2273,2.246,2.2771,2.2568,2.2485,0.0,2.1931,2.1472,0.0,0.0,0.0,0.0,0.0,0.0,0.0,0.0,2.2642,2.356,2.4234,2.4629,2.4704,2.4837,2.4921,2.4921,2.4981,2.4594,2.3758,2.2664,2.1836,0.0,0.0,0.0,0.0,0.0,0.0,0.0,0.0,0.0,0.0,0.0,0.0,0.0,0.0,0.0,0.0,0.0,0.0,0.0,0.0,0.0,0.0,0.0,1.9235,0.0,0.0,0.0,0.0,0.0,0.0,0.0,0.0,0.0,1.8861,1.8843,1.8843,1.8825,1.886,1.8896,1.8949,0.0,0.0,0.0,0.0,0.0,0.0,0.0,1.9211,1.9413,1.9432,1.965,2.0352,2.0908,2.1247,2.1265,0.0,0.0,2.017,2.0022,2.0005,2.0005,2.0022,2.0022,2.0022,2.0039,2.0057,0.0,0.0,0.0,0.0,0.0,0.0,0.0,0.0,2.3885,2.3918,0.0,2.4048,0.0,0.0,0.0,0.0,0.0,2.2439,0.0,0.0,2.4121,2.4682,2.5447,2.4799,2.4506,2.4417,2.3005,2.2313,2.2282,2.1688,0.0,0.0,0.0,0.0,0.0,0.0,2.3213,2.4042,2.4266,2.4429,2.4495,2.461,2.4723,2.4791,2.4779,2.4431,2.3667,2.3573,2.2819,2.1255,2.1048,0.0,0.0,0.0,0.0,0.0,0.0,0.0,0.0,0.0,0.0,0.0,0.0,0.0,0.0,0.0,0.0,0.0,0.0,0.0,0.0,1.9257,0.0,0.0,0.0,0.0,0.0,0.0,0.0,0.0,0.0,0.0,1.893,1.8805,1.8697,1.8697,0.0,0.0,0.0,0.0,1.8931,1.8984,1.9002,1.9019,1.9124,1.909,1.9273,1.9991,0.0,0.0,2.0912,2.105,2.1104,2.1068,2.1139,2.1138,2.1399,2.1405,2.1388,2.1425,2.1443,2.1553,2.1571,2.1407,2.1462,2.4082,0.0,0.0,0.0,0.0,2.4139,2.4372,2.4509,2.4676,2.4498,2.4084,2.412,0.0,0.0,0.0,0.0,0.0,0.0,2.3813,2.4164,2.4372,2.4701,2.5114,2.4927,2.4878,2.4925,2.4488,2.4279,2.4244,2.3509,2.2441,2.1018,0.0,0.0,0.0,0.0,2.2893,2.3764,2.4018,2.4135,2.4192,2.4408,2.4526,2.4647,2.4645,2.4514,2.4241,2.368,2.316,2.2626,2.1444,0.0,0.0,0.0,0.0,0.0,0.0,0.0,0.0,0.0,0.0,0.0,0.0,0.0,0.0,0.0,0.0,0.0,0.0,0.0,2.0844,2.0336,1.9973,0.0,0.0,0.0,0.0,0.0,0.0,0.0,0.0,0.0,2.0362,1.9332,1.8623,0.0,0.0,1.8663,1.877,1.8769,1.8788,1.8843,1.8861,0.0,0.0,1.9591,1.9801,2.0498,2.0956,2.1334,2.1539,2.2001,2.238,2.2411,2.2428,2.2482,2.2574,2.1917,2.1357,2.1305,2.1344,2.1383,2.1439,2.1458,2.1495,2.5408,2.5234,2.4461,2.4298,2.4609,2.4844,2.506,2.5257,2.541,2.5217,2.4842,2.4923,2.4547,2.3857,2.2774,0.0,0.0,0.0,2.3901,2.4348,2.4659,2.5019,2.5416,2.5255,2.5176,2.5219,2.494,2.4832,2.4832,2.4327,2.3364,2.1923,0.0,0.0,2.2423,2.2558,2.2886,2.345,2.3685,2.3834,2.3901,2.4117,2.4302,2.4411,2.4393,2.4393,2.4338,2.3877,2.3435,2.3049,2.178,2.0882,0.0,0.0,0.0,0.0,0.0,0.0,0.0,0.0,0.0,0.0,0.0,1.9884,0.0,0.0,0.0,0.0,2.1365,2.1383,2.1419,2.0969,0.0,0.0,0.0,0.0,0.0,0.0,0.0,2.1182,2.1102,2.1018,2.0912,2.0061,1.9442,1.948,1.9442,1.9446,1.9525,0.0,1.9568,1.9578,1.9595,1.9737,2.0044,2.0128,2.0328,2.0964,2.1683,2.2139,2.2131,2.2522,2.2773,2.2842,2.2868,2.2919,2.302,2.2424,2.1985,2.2071,2.2153,2.2234,2.2298,2.2316,2.2321,2.6545,2.6586,2.53,2.5061,2.5501,2.566,2.5866,2.6134,2.6213,2.6183,2.6092,2.623,2.5848,2.5057,2.3978,0.0,2.4601,2.3734,2.3891,2.4745,2.5032,2.557,2.6341,2.5813,2.5581,2.5581,2.4908,2.4587,2.4603,2.4469,2.413,2.3502,2.3083,2.2815,2.2764,2.2952,2.307,2.307,2.3319,2.3491,2.3584,2.3816,2.3996,2.4054,2.4056,2.4074,2.4056,2.4056,2.3687,2.29,2.2099,2.128,2.0481,0.0,0.0,0.0,0.0,0.0,0.0,0.0,0.0,0.0,0.0,0.0,0.0,0.0,0.0,0.0,2.148,0.0,2.1482,2.1437,0.0,0.0,0.0,2.1402,2.1393,2.1386,2.136,2.1298,0.0,0.0,2.0995,2.091,2.0888,2.095,2.0802,2.0726,2.0762,2.0697,2.0761,2.0683,2.074,2.073,2.0662,2.0732,2.0991,2.1514,2.2177,2.2581,2.2527,2.2517,2.2552,2.2579,2.2632,2.2712,2.279,2.29,2.3151,2.3335,2.3463,2.3553,2.3548,2.3552,2.3556,2.6361,2.6588,2.5915,2.6191,2.706,2.7489,2.7708,2.7871,2.8154,2.7765,2.6861,2.6896,2.6317,2.5401,2.5122,2.4987,2.5076,2.5351,2.5641,2.5978,2.6313,2.6654,2.6977,2.692,2.7013,2.7081,2.6487,2.6217,2.6224,2.5188,2.4562,2.4364,2.3736,2.309,2.2504,2.2542,2.2632,2.2773,2.2902,2.3109,2.3371,2.3531,2.3624,2.3649,2.3692,2.3714,2.3732,2.3732,2.3623,2.3422,2.2638,2.2111,2.1813,2.1019,0.0,0.0,0.0,0.0,0.0,0.0,0.0,0.0,0.0,2.0968,2.1773,0.0,2.2074,0.0,2.2923,2.3012,2.312,2.2566,0.0,0.0,2.2242,2.2204,2.2156,2.2611,2.2923,2.2856,2.27,2.2582,2.2558,2.2362,2.2254,2.2219,2.1255,2.0551,2.0489,2.05,2.0484,2.0539,2.0558,2.0673,2.1128,2.1644,2.1975,2.2116,2.2231,2.2287,2.2304,2.2203,2.2186,2.2349,2.2394,2.2487,2.2685,2.2764,2.2893,2.3144,2.3336,2.3471,2.3539,2.3585,2.3634,2.6553,2.6642,2.6747,2.6987,2.7189,2.7456,2.7692,2.7938,2.8097,2.7754,2.7097,2.6895,2.6467,2.585,2.5515,2.5541,2.5693,2.5768,2.5863,2.6032,2.6332,2.6554,2.667,2.6887,2.7015,2.71,2.6844,2.6734,2.6752,2.577,2.5169,2.4809,2.4204,2.3486,2.2729,2.2642,2.2512,2.2343,2.25,2.2712,2.3028,2.3133,2.3212,2.3283,2.3312,2.3312,2.333,2.3353,2.333,2.3271,2.2534,2.2081,2.2023,2.1228,2.0735,0.0,0.0,0.0,0.0,0.0,0.0,0.0,0.0,0.0,0.0,0.0,2.2628,2.3206,2.3313,2.3407,2.3522,2.3111,2.2843,2.2856,2.3168,2.3382,2.3346,2.4017,2.4389,2.4314,2.389,2.3578,2.3432,2.2998,2.2632,2.2542,2.1816,2.1317,2.1327,2.1339,2.1326,2.1285,2.1302,2.1353,2.1718,2.2017,2.222,2.2175,2.2147,2.2118,2.2101,2.2044,2.2044,2.2225,2.2282,2.2366,2.2542,2.2649,2.2764,2.2876,2.3077,2.3241,2.3383,2.343,2.3494,2.6771,2.6578,2.7279,2.7276,2.6716,2.6673,2.6848,2.7229,2.7201,2.7207,2.7097,2.6665,2.6426,2.616,2.5731,2.5891,2.6365,2.5879,2.5707,2.5853,2.6068,2.6211,2.6258,2.6413,2.6504,2.6534,2.6652,2.6678,2.6663,2.6267,2.5746,2.5091,2.4562,2.3957,2.3279,2.2977,2.2586,2.2092,2.2336,2.2609,2.2853,2.2934,2.2989,2.3033,2.3058,2.3006,2.2902,2.2927,2.2919,2.2833,2.2166,2.1836,2.1898,2.1229,2.0869,0.0,2.0923,0.0,0.0,0.0,0.0,0.0,0.0,0.0,0.0,2.3163,2.3249,2.3425,2.345,2.3492,2.3565,2.3578,2.356,2.3601,2.4204,2.4619,2.4625,2.5173,2.5526,2.5401,2.4796,2.426,2.3981,2.333,2.286,2.2722,2.2632,2.2586,2.2664,2.2485,2.2276,2.2349,2.2332,2.2135,2.2108,2.2056,2.2015,2.1969,2.1969,2.1969,2.1969,2.1969,2.2015,2.2123,2.2197,2.2265,2.2377,2.2525,2.2632,2.2685,2.2842,2.3003,2.3217,2.3265,2.3313,2.6171,2.6316,2.6494,2.6745,2.703,2.6566,2.6753,2.7485,2.7744,2.7682,2.7323,2.6742,2.6209,2.5714,2.6466,2.6898,2.7043,2.7286,2.7483,2.7636,2.7374,2.7392,2.752,2.7157,2.7041,2.7096,2.6714,2.6617,2.6682,2.6169,2.5878,2.574,2.5083,2.451,2.3983,0.0,0.0,0.0,2.3309,2.352,2.3681,2.379,2.3627,2.3185,2.3266,0.0,2.249,2.2517,2.2596,2.2579,2.2337,0.0,0.0,0.0,0.0,0.0,0.0,0.0,0.0,0.0,0.0,0.0,2.3714,2.384,2.4308,2.4557,2.4743,2.4809,2.4863,2.4917,2.5015,2.4998,2.4998,2.5015,2.5156,2.5216,2.5226,2.5312,2.5355,2.531,2.5066,2.4838,2.4764,2.4411,2.413,2.3971,2.3941,2.384,2.3846,2.2849,2.2135,2.2068,2.2084,2.2073,2.1957,2.1928,2.1899,2.1869,2.184,2.184,2.184,2.184,2.1869,2.1945,2.1974,2.2061,2.2265,2.2366,2.2432,2.2579,2.2659,2.2764,2.302,2.3095,2.3168,2.6041,0.0,2.6555,2.6623,0.0,2.6621,2.6759,2.6909,2.729,2.74,2.7157,2.6579,2.6483,2.6823,2.6735,2.7067,2.7644,2.746,2.7485,2.7647,2.7569,2.7584,2.7782,2.7605,2.7541,2.7567,2.7399,2.7185,2.7041,2.6509,2.6135,2.5905,2.5297,2.4866,2.4642,2.4098,2.3538,2.2976,2.3138,2.3329,2.3466,2.3568,2.3556,2.3389,0.0,0.0,0.0,0.0,0.0,0.0,0.0,0.0,0.0,0.0,0.0,2.3869,2.3902,2.3869,2.3851,2.3786,2.3933,2.4374,2.4809,2.488,2.456,2.4705,2.4871,2.4959,2.5017,2.5103,2.5142,2.5142,2.5142,2.516,2.5518,2.5744,2.5779,2.6063,2.6242,2.613,2.5717,2.5373,2.5316,2.4757,2.4385,2.4322,2.421,2.4178,2.4026,2.3209,2.2458,2.2036,2.1911,2.1869,2.1811,2.1781,2.1797,2.1768,2.1738,2.1768,2.1797,2.1781,2.1827,2.1899,2.1899,2.1957,2.2118,2.2209,2.2293,2.236,2.2443,2.2542,2.2685,2.2816,2.2944,2.5799,2.5702,2.6564,2.6462,2.58,2.6597,2.6694,2.6182,0.0,0.0,0.0,2.6349,2.6751,2.7774,2.681,2.6943,2.7876,2.7263,2.7155,2.7324,2.7336,2.7488,2.768,2.7673,2.7647,2.7647,2.7778,2.7769,2.7426,2.6892,2.6409,2.6017,2.5392,2.5005,2.4985,2.4661,2.4041,2.3025,2.3001,2.3064,2.318,2.3322,2.3419,2.3468,2.3503,2.3509,2.3448,2.3432,2.3432,2.3432,2.3432,2.3481,2.361,2.3705,2.3835,2.3964,2.4094,2.4175,2.4103,2.4103,2.4398,2.5037,2.584,2.5815,2.4727,2.4804,2.4929,2.4992,2.5067,2.5159,2.5219,2.5219,2.5219,2.5219,2.5815,2.6207,2.6241,2.6722,2.7017,2.6952,2.6343,2.5907,2.5778,2.5176,2.4593,2.453,2.458,2.4314,2.4083,2.3604,2.2907,2.2242,2.2079,2.1919,2.1711,2.1694,2.1694,2.1694,2.1678,2.1678,2.1738,2.1768,2.1781,2.184,2.1869,2.1899,2.1969,2.2073,2.2147,2.2163,2.2248,2.2332,2.2332,2.247,2.2615,2.5158,2.5357,2.583,2.6108,2.614,2.6062,2.6094,2.612,2.6202,2.636,2.6596,2.6161,2.6371,2.7139,2.6925,2.6969,2.718,2.7314,2.7604,0.0,2.7407,2.7306,2.7577,2.7135,2.6788,2.666,2.6922,2.7276,2.7544,2.6874,2.6568,2.651,2.5533,2.4816,2.4547,2.4581,2.4525,2.4505,2.4055,2.3845,2.3953,2.4091,2.3894,2.3421,2.3598,2.3358,2.2791,2.2812,2.2837,2.2837,2.2796,2.3028,2.3664,2.4147,2.4704,2.5447,2.6036,2.6409,2.6461,2.6493,2.6608,2.6894,2.7284,2.7026,2.6057,2.603,2.6099,2.6134,2.6219,2.6387,2.6453,2.6385,2.6351,2.6402,2.6521,2.6605,2.6572,2.6673,2.6758,2.6758,2.6607,2.6455,2.632,2.6133,2.588,2.5894,2.5622,2.5431,2.4736,2.4131,2.3408,2.2734,2.2489,2.2243,2.1915,2.1636,2.172,2.162,2.1669,2.1702,2.1716,2.1683,2.1664,2.1724,2.1738,2.1751,2.1882,2.1928,2.1957,2.2015,2.2044,2.2073,2.2101,2.213,2.2276,2.4348,2.4519,2.5243,2.5486,2.5527,2.5641,2.5782,2.6006,2.5847,2.5972,2.6354,2.6188,2.6202,2.6444,2.6996,2.6939,2.6437,2.7025,2.7404,2.743,2.7183,2.7249,2.7483,2.7245,2.7099,2.6995,2.7277,2.7359,2.7352,2.7121,2.6927,2.6689,2.5936,2.5216,2.4511,2.461,2.4544,2.4391,2.4414,2.4476,2.4566,2.4657,2.4627,2.4428,2.4531,2.4422,2.4131,2.4158,2.4242,2.4326,2.4315,2.4453,2.486,2.5139,2.5431,2.5841,2.6209,2.6423,2.6528,2.6689,2.6804,2.6918,2.7164,2.7134,2.6663,2.6951,2.6977,2.671,2.677,2.6695,2.645,2.6435,2.6435,2.6435,2.6435,2.6435,2.6435,2.6435,2.6418,2.6435,2.6347,2.6277,2.626,2.617,2.6099,2.6063,2.5987,2.5746,2.5326,2.4977,2.4395,2.3422,2.3128,2.2948,2.2622,2.254,2.2524,2.259,2.2264,2.21,2.2082,2.19,2.1653,2.1634,2.165,2.1664,2.1771,2.1768,2.1827,2.184,2.1899,2.194,2.1957,2.2254,2.2555,2.3484,2.3677,2.4485,2.4796,2.4723,2.5094,2.5369,2.5589,2.5398,2.5583,2.5913,2.5993,2.596,2.6019,2.6752,2.6673,2.6226,2.6711,2.7051,2.7025,2.7081,2.722,2.7507,2.7562,2.7472,2.7317,2.7546,2.7472,2.7078,2.7163,2.6992,2.6539,2.6113,2.5469,2.4751,2.4723,2.4567,2.4295,2.4688,2.4833,2.4708,2.4805,2.4966,2.5014,2.5047,2.5096,2.5162,2.5162,2.5224,2.5367,2.5429,2.5491,2.56,2.5796,2.5918,2.5918,2.6133,2.6332,2.6394,2.6704,2.6871,2.6916,2.7157,2.729,2.7334,2.771,2.7679,2.7081,2.6964,2.6891,2.6595,2.6517,2.6521,2.6504,2.6537,2.6587,2.6537,2.6557,2.6557,2.6541,2.6484,2.6463,2.643,2.6409,2.6421,2.6395,2.6308,2.6233,2.6025,2.6011,2.548,2.4742,2.4064,2.3541,2.3407,2.324,2.3208,2.3307,2.2891,2.2652,2.2589,2.2232,2.202,2.2052,2.2051,2.2132,2.2066,2.2128,2.224,2.232,2.2399,2.2374,2.2471,2.2851,2.3143,2.2706,2.2979,2.3667,2.3943,2.3917,2.4361,2.4584,2.4584,2.4617,2.4851,2.5268,2.5362,2.5673,2.6016,2.6058,2.6165,2.6399,2.6526,2.6779,2.7028,2.7262,2.7483,2.7653,2.7823,2.7473,2.6698,2.7233,2.7296,2.6819,2.666,2.6335,2.6047,2.5514,2.5316,2.5378,2.5024,2.484,2.4898,2.4954,2.4695,2.4123,2.4204,2.4319,2.4319,2.4405,2.4376,2.4497,2.4362,2.4426,2.4412,2.4632,2.4745,2.4852,2.5415,2.5885,2.5971,2.6505,2.6945,2.7244,2.756,2.7682,2.7875,2.7911,2.8071,2.8198,2.8261,2.7999,2.7288,2.7111,2.7173,2.7364,2.7308,2.7284,2.7348,2.7413,2.7559,2.7446,2.7543,2.7567,2.7655,2.7452,2.7695,2.7571,2.7594,2.7581,2.7324,2.7267,2.7203,2.7016,2.6908,2.684,2.642,2.5392,2.4058,2.3562,2.3163,2.3462,2.3371,2.3163,2.3195,2.3247,2.3186,2.301,2.3114,2.3183,2.3218,2.332,2.3439,2.344,2.3472,2.3539,2.3572,2.3589,2.3786,2.3935,2.1624,2.1811,2.294,2.3212,2.3065,2.3424,2.3647,2.3647,2.382,2.4013,2.4231,2.4336,2.4945,2.6013,2.6037,2.5904,2.5487,2.5859,2.6101,2.623,2.6282,2.6586,2.6962,2.71,2.693,2.6687,2.7188,2.7157,2.6726,2.6476,2.6225,2.5962,2.5742,2.566,2.552,2.5393,2.5382,2.5382,2.5515,2.5453,2.5202,2.486,2.4667,2.4653,2.4761,2.4801,2.4855,2.4936,2.5043,2.5135,2.5202,2.5307,2.5374,2.5653,2.5887,2.5954,2.6337,2.664,2.6841,2.7093,2.7365,2.7524,2.764,2.779,2.794,2.794,2.775,2.7454,2.7349,2.7274,2.7044,2.7036,2.7094,2.7179,2.7222,2.7296,2.7306,2.7296,2.7306,2.7432,2.7416,2.7531,2.7639,2.7623,2.7582,2.7515,2.749,2.7428,2.7211,2.7036,2.6922,2.6741,2.6036,2.5591,2.5217,2.5264,2.5217,2.5194,2.4942,2.4705,2.4673,2.4356,2.4205,2.4286,2.4324,2.4399,2.4473,2.4249,2.4126,2.4506,2.4942,2.5043,2.5504,2.5619,2.5822,2.0624,2.0925,2.2063,2.2353,2.2036,2.2482,2.2706,2.2696,2.2882,2.3057,2.3144,2.329,2.3887,2.4925,2.5432,2.5352,2.4934,2.5295,2.5558,2.5554,2.5611,2.5926,2.6384,2.6562,2.6635,2.6671,2.7016,2.6904,2.642,2.6387,2.6183,2.5912,2.582,2.5739,2.555,2.5511,2.5471,2.5521,2.5686,2.5749,2.5743,2.5349,2.5146,2.532,2.5436,2.548,2.5493,2.5622,2.575,2.5837,2.588,2.595,2.6063,2.6119,2.6106,2.6246,2.6468,2.6688,2.6771,2.6978,2.7209,2.7365,2.7354,2.7342,2.7454,2.7358,2.7306,2.7282,2.7308,2.7098,2.7041,2.704,2.7086,2.7176,2.725,2.7355,2.7387,2.7384,2.7491,2.7532,2.7658,2.762,2.7751,2.7901,2.7965,2.789,2.7727,2.7592,2.7444,2.7342,2.7162,2.6995,2.6949,2.6778,2.6738,2.6427,2.6616,2.6567,2.6096,2.5831,2.6025,2.5556,2.5362,2.5413,2.5462,2.5527,2.5624,2.5289,2.5189,2.577,2.6128,2.6411,2.6792,2.7075,2.7326,1.9556,2.0102,2.1087,2.1329,2.1096,2.1526,2.1741,2.1731,2.182,2.19,2.2148,2.2138,2.2315,2.2658,2.3714,2.4488,2.4798,2.4872,2.5104,2.5376,2.5648,2.5931,2.6213,2.6637,2.6621,2.6177,2.6551,2.6387,2.5846,2.5971,2.6057,2.5873,2.5406,2.5314,2.5457,2.5056,2.4872,2.5114,2.5191,2.5179,2.5358,2.5345,2.5595,2.6105,2.6201,2.6195,2.6222,2.6262,2.6249,2.6262,2.6378,2.6465,2.6479,2.6586,2.6693,2.69,2.7225,2.7402,2.7374,2.7477,2.7651,2.7696,2.7329,2.7115,2.7183,2.6917,2.6697,2.6606,2.6808,2.7004,2.7535,2.7519,2.7667,2.7878,2.8051,2.8084,2.8227,2.8088,2.8354,2.8356,2.8248,2.8342,2.8654,2.8934,2.8777,2.8669,2.8654,2.8482,2.831,2.815,2.7975,2.7926,2.7783,2.7555,2.6596,2.6657,2.658,2.658,2.6733,2.6409,2.6408,2.645,2.6479,2.6567,2.6639,2.6667,2.6738,2.6819,2.691,2.7179,2.7278,2.7563,2.7833,2.7737,2.794,1.8858,1.9252,1.9804,1.996,1.9991,2.0322,2.0637,2.0835,2.0835,2.0826,2.0907,2.0997,2.1087,2.1257,2.1872,2.2677,2.3484,2.3657,2.3917,2.4262,2.4433,2.4754,2.5094,2.5443,2.5714,2.5799,2.6002,2.6153,2.5911,2.572,2.5529,2.5465,2.5349,2.5313,2.5187,2.5107,2.5159,2.5376,2.5524,2.5647,2.5837,2.5971,2.6092,2.6319,2.596,2.5861,2.5998,2.606,2.6184,2.6307,2.6369,2.6356,2.6356,2.6417,2.6478,2.6566,2.6748,2.6884,2.6897,2.6972,2.7107,2.7203,2.7055,2.6976,2.7109,2.6972,2.6903,2.6875,2.6889,2.7202,2.7381,2.7375,2.7291,2.7327,2.7444,2.7619,2.769,2.7755,2.7855,2.8024,2.8091,2.8222,2.8442,2.8525,2.851,2.8573,2.8414,2.8299,2.8186,2.7989,2.7851,2.7705,2.764,2.7455,2.7066,2.7243,2.7387,2.7403,2.7403,2.7405,2.7407,2.7315,2.7269,2.7303,2.7504,2.7628,2.7627,2.8044,2.8194,2.786,2.7996,2.8383,2.8734,2.8474,2.864,1.804,1.8371,1.876,1.8926,1.9066,1.9386,1.9633,1.9736,1.982,1.9754,1.9745,1.9745,1.992,2.0002,2.0275,2.0907,2.1811,2.2344,2.2784,2.3047,2.3222,2.356,2.3907,2.4262,2.4605,2.485,2.5274,2.5435,2.5396,2.5214,2.5038,2.496,2.5176,2.5217,2.5125,2.5297,2.5527,2.5684,2.5829,2.6045,2.6235,2.6205,2.6202,2.6218,2.5787,2.5702,2.6052,2.6245,2.6373,2.6488,2.6501,2.6551,2.6488,2.6614,2.6614,2.6641,2.676,2.685,2.6844,2.6927,2.7017,2.7055,2.6902,2.6856,2.6952,2.685,2.6755,2.6742,2.6802,2.6862,2.6905,2.6819,2.6828,2.7101,2.7331,2.7453,2.7588,2.7671,2.7777,2.8002,2.8144,2.8255,2.8342,2.8474,2.8606,2.8627,2.851,2.8408,2.8306,2.8151,2.7943,2.7815,2.7889,2.7865,2.7695,2.7943,2.7664,2.7575,2.7615,2.7801,2.7956,2.7926,2.7961,2.805,2.8213,2.8373,2.8658,2.9086,2.895,2.8561,2.8716,2.9154,2.9215,2.9164,2.9178,1.7114,1.7484,1.798,1.8211,1.8461,1.8671,1.8663,1.8598,1.8766,1.8683,1.8528,1.8666,1.8767,1.8819,1.9088,1.9363,1.9911,2.1006,2.1713,2.2059,2.2246,2.252,2.2794,2.3232,2.3493,2.358,2.4166,2.4366,2.4241,2.4509,2.4578,2.4429,2.4736,2.4982,2.5237,2.529,2.5578,2.5708,2.575,2.5949,2.6363,2.5965,2.5813,2.6008,2.5743,2.5955,2.6589,2.6812,2.687,2.6896,2.6909,2.6985,2.6938,2.7072,2.7271,2.7193,2.7324,2.7417,2.7378,2.7352,2.7313,2.7275,2.6948,2.6634,2.6569,2.6356,2.6169,2.6196,2.6232,2.629,2.6317,2.6361,2.664,2.7619,2.7611,2.7682,2.7926,2.8011,2.8097,2.8196,2.8349,2.8747,2.8817,2.8807,2.8882,2.8912,2.8956,2.8887,2.8719,2.8539,2.8647,2.8494,2.8235,2.802,2.8307,2.8508,2.7988,2.7548,2.7565,2.7684,2.7854,2.7936,2.8099,2.8173,2.8408,2.8637,2.8997,2.9419,2.9612,2.9419,2.971,2.9684,2.956,2.9437,2.9407,1.6381,1.6668,1.6787,1.71,1.7498,1.7598,1.7633,1.7738,1.7836,1.7761,1.7691,1.7757,1.7734,1.783,1.8071,1.835,1.8635,1.9171,1.9894,2.0727,2.1266,2.1445,2.1633,2.2087,2.2441,2.2794,2.3135,2.3424,2.3649,2.3791,2.3821,2.3774,2.3927,2.4164,2.4238,2.4421,2.4657,2.4982,2.4982,2.5127,2.5404,2.5432,2.5429,2.5581,2.5733,2.5961,2.6296,2.6433,2.6477,2.6602,2.6726,2.6863,2.6956,2.7092,2.7079,2.7092,2.6998,2.6918,2.6918,2.685,2.6807,2.6756,2.6604,2.6515,2.6489,2.6349,2.6235,2.6302,2.6314,2.6381,2.6514,2.6514,2.6621,2.6911,2.695,2.7078,2.7345,2.7409,2.7457,2.7647,2.7764,2.7952,2.814,2.8326,2.8512,2.8668,2.8611,2.8569,2.8469,2.8441,2.8125,2.7981,2.7995,2.8151,2.8278,2.8363,2.8053,2.781,2.7775,2.7748,2.7846,2.7993,2.8174,2.8399,2.8643,2.9004,2.9403,2.9773,3.0053,3.0066,3.0001,2.9899,2.9797,2.9713,2.9676,1.5416,1.5823,1.5774,1.6112,1.6625,1.6619,1.6553,1.6665,1.6753,1.6633,1.6508,1.6642,1.6663,1.6718,1.6857,1.7131,1.7426,1.7598,1.8249,1.9171,2.0093,2.0456,2.0538,2.0916,2.1454,2.1811,2.2078,2.2344,2.2803,2.296,2.2998,2.3021,2.3313,2.353,2.367,2.3907,2.4225,2.447,2.4562,2.4703,2.4821,2.485,2.4922,2.5138,2.5217,2.5372,2.5635,2.5772,2.6105,2.6463,2.676,2.6914,2.7067,2.7163,2.717,2.7164,2.7005,2.6901,2.6851,2.6714,2.6535,2.6535,2.6535,2.6547,2.6535,2.6535,2.6485,2.6288,2.6309,2.6235,2.6188,2.6139,2.6143,2.6207,2.6593,2.6807,2.7122,2.7296,2.7434,2.7612,2.7721,2.7878,2.8061,2.8302,2.8408,2.8587,2.8661,2.8601,2.8542,2.845,2.8288,2.8107,2.8213,2.8207,2.8097,2.8097,2.8097,2.8047,2.8062,2.7968,2.8025,2.8049,2.8187,2.8618,2.8902,2.9385,2.9788,3.0393,3.0724,3.0537,3.0288,3.022,3.0143,3.0072,3.0022,1.4379,1.4934,1.4922,1.5209,1.5737,1.5737,1.5599,1.5425,1.5603,1.5413,1.5202,1.5528,1.5531,1.5389,1.573,1.6015,1.619,1.6379,1.6662,1.7404,1.8427,1.9263,1.9637,2.0011,2.0464,2.0907,2.0997,2.1177,2.1642,2.1891,2.2148,2.2296,2.2698,2.3086,2.3345,2.3877,2.3968,2.4023,2.4235,2.449,2.466,2.4336,2.4293,2.4673,2.4492,2.4549,2.4878,2.5184,2.5781,2.6574,2.6829,2.6966,2.715,2.736,2.7299,2.7247,2.7164,2.704,2.704,2.6671,2.6593,2.6569,2.6569,2.6749,2.6593,2.6509,2.639,2.6067,2.6019,2.5913,2.5541,2.5457,2.5527,2.5712,2.64,2.6994,2.7338,2.7485,2.7551,2.7749,2.8065,2.826,2.8346,2.8616,2.8807,2.8933,2.908,2.9073,2.9011,2.874,2.8834,2.8666,2.8361,2.8243,2.8157,2.8157,2.8157,2.8097,2.8126,2.8196,2.8243,2.8337,2.8498,2.8958,2.9262,2.971,3.0146,3.0698,3.0944,3.0761,3.0588,3.0552,3.057,3.0539,3.0548,1.3197,1.3743,1.3748,1.4067,1.46,1.46,1.4561,1.4506,1.4596,1.4393,1.4242,1.4476,1.4499,1.4412,1.4796,1.5089,1.5064,1.5229,1.5514,1.59,1.6662,1.7777,1.8619,1.9271,1.9646,1.9911,2.0093,2.0382,2.0645,2.0916,2.1186,2.1356,2.1722,2.2069,2.2422,2.2775,2.2969,2.3144,2.3396,2.3474,2.3551,2.3644,2.3755,2.3992,2.4093,2.4367,2.4828,2.5233,2.5594,2.6047,2.6218,2.6306,2.6517,2.6593,2.6625,2.661,2.6391,2.63,2.6205,2.6082,2.5935,2.59,2.6005,2.59,2.5912,2.5912,2.5842,2.5715,2.5715,2.5645,2.5506,2.546,2.5546,2.5562,2.6086,2.6533,2.6633,2.6756,2.6905,2.7175,2.731,2.751,2.7723,2.7987,2.817,2.83,2.8519,2.8634,2.8583,2.8505,2.8376,2.8379,2.8168,2.8208,2.8222,2.8222,2.8195,2.8141,2.815,2.8248,2.8477,2.8767,2.9102,2.9487,2.9571,2.9911,3.0293,3.0719,3.0764,3.0748,3.0877,3.0911,3.1102,3.1189,3.1257,1.2005,1.255,1.255,1.2876,1.3408,1.3413,1.3413,1.3501,1.3516,1.3393,1.3183,1.3442,1.3496,1.3352,1.3846,1.4039,1.3919,1.4076,1.4364,1.4663,1.5432,1.6567,1.7692,1.8357,1.8727,1.8996,1.9188,1.9471,1.9828,2.0011,2.0283,2.0546,2.0654,2.1015,2.1535,2.1713,2.19,2.2185,2.2441,2.253,2.253,2.2794,2.2969,2.3232,2.3484,2.3831,2.4348,2.468,2.508,2.5719,2.6007,2.6075,2.6154,2.6313,2.6343,2.631,2.6163,2.6018,2.597,2.588,2.5699,2.5699,2.5688,2.5699,2.5801,2.5756,2.5734,2.5396,2.5374,2.5341,2.525,2.5294,2.539,2.5396,2.5536,2.5636,2.591,2.5931,2.6151,2.6427,2.6577,2.6645,2.6985,2.731,2.743,2.7617,2.7815,2.7907,2.7934,2.7894,2.7894,2.7842,2.7749,2.7683,2.7683,2.7683,2.7749,2.7736,2.7868,2.8052,2.8379,2.8803,2.9093,2.9366,2.967,2.996,3.0205,3.0447,3.0584,3.0704,3.0984,3.1117,3.1234,3.1351,3.1539,1.0911,1.1459,1.1459,1.1787,1.2219,1.2223,1.2219,1.229,1.2335,1.2336,1.2221,1.24,1.2396,1.2278,1.2878,1.298,1.2759,1.2915,1.321,1.3698,1.4472,1.552,1.6379,1.7333,1.7714,1.7986,1.8265,1.8635,1.9004,1.9096,1.9371,1.9737,1.9837,2.0119,2.0564,2.0817,2.1015,2.1293,2.1553,2.1642,2.1642,2.1909,2.2078,2.2353,2.2618,2.3057,2.3484,2.3744,2.4211,2.5538,2.5874,2.5848,2.5953,2.6141,2.6218,2.6073,2.5942,2.5808,2.5953,2.5673,2.5652,2.5587,2.5608,2.5717,2.5608,2.5637,2.5496,2.5158,2.5044,2.5054,2.4952,2.4924,2.5015,2.5138,2.4867,2.482,2.5038,2.5135,2.5312,2.5688,2.5758,2.5955,2.6289,2.662,2.6905,2.696,2.7165,2.7365,2.743,2.7456,2.7443,2.739,2.7281,2.7092,2.7092,2.7092,2.7159,2.7214,2.7403,2.759,2.7934,2.8314,2.8716,2.8986,2.9226,2.9463,2.9713,2.996,3.0266,3.0447,3.0568,3.0821,3.1014,3.1117,3.1234,0.9695,1.0147,1.0147,1.0472,1.1017,1.1021,1.1236,1.1324,1.1241,1.1256,1.1282,1.1378,1.1378,1.1198,1.1898,1.2093,1.1873,1.1843,1.2027,1.3044,1.3516,1.3896,1.4663,1.592,1.6784,1.7059,1.7527,1.7908,1.8087,1.845,1.8819,1.9004,1.9188,1.9471,1.9762,2.0019,2.0201,2.03,2.0654,2.0934,2.0925,2.1096,2.1365,2.1651,2.2008,2.2362,2.2618,2.2882,2.3232,2.3734,2.4413,2.4829,2.4914,2.4914,2.4946,2.4956,2.4935,2.4913,2.4846,2.4859,2.485,2.4754,2.485,2.4765,2.485,2.5031,2.5073,2.4956,2.5051,2.5018,2.5045,2.4869,2.4892,2.4923,2.4664,2.436,2.4189,2.4283,2.4609,2.4886,2.5016,2.5146,2.5664,2.5955,2.6151,2.6346,2.6595,2.6841,2.6905,2.6982,2.7037,2.6998,2.7011,2.6888,2.6888,2.6888,2.6875,2.6875,2.6998,2.7134,2.7456,2.7802,2.8131,2.8406,2.8665,2.8908,2.9212,2.9526,2.9775,3.0021,3.019,3.0387,3.0628,3.0747,3.0925,0.8371,0.893,0.893,0.9258,0.9809,1.0033,1.0096,1.0213,1.0269,1.0406,1.0531,1.0545,1.0604,1.0614,1.1007,1.1105,1.1096,1.1175,1.156,1.2268,1.2754,1.2937,1.3266,1.4491,1.5499,1.5953,1.6676,1.7052,1.7246,1.7628,1.79,1.8272,1.845,1.8727,1.902,1.9288,1.9471,1.9662,1.9936,2.0218,2.0201,2.0374,2.0736,2.1015,2.1374,2.1731,2.1919,2.2097,2.2264,2.253,2.3038,2.3551,2.382,2.381,2.3846,2.3861,2.3836,2.3871,2.3864,2.3814,2.381,2.381,2.382,2.3907,2.3993,2.4176,2.4262,2.4348,2.4509,2.4594,2.485,2.503,2.4943,2.493,2.468,2.4374,2.4129,2.4094,2.4124,2.4173,2.4299,2.4599,2.4897,2.5253,2.5523,2.5709,2.5951,2.6202,2.6471,2.6533,2.6658,2.6645,2.6739,2.6739,2.6739,2.6739,2.6739,2.6739,2.6794,2.6863,2.6998,2.7335,2.7616,2.7868,2.8197,2.8457,2.8753,2.9022,2.9275,2.9463,2.9713,2.9946,3.019,3.0372,3.0507,0.7157,0.7709,0.7712,0.8039,0.8589,0.8903,0.9043,0.9022,0.9365,0.9522,0.9677,0.9801,0.9937,1.0216,1.0314,1.0314,1.0408,1.0806,1.1194,1.1487,1.198,1.2211,1.2567,1.3363,1.4219,1.4889,1.5741,1.6211,1.6388,1.6711,1.7059,1.7434,1.7535,1.78,1.8265,1.855,1.8735,1.892,1.9204,1.9487,1.9479,1.9654,2.011,2.0473,2.0736,2.0925,2.1114,2.1293,2.1392,2.1553,2.182,2.2167,2.2608,2.295,2.3018,2.3008,2.3086,2.3096,2.3086,2.3037,2.3047,2.296,2.3047,2.3135,2.3232,2.3406,2.3493,2.3667,2.3841,2.4024,2.4368,2.4563,2.4819,2.4851,2.4577,2.4481,2.432,2.4093,2.4007,2.3713,2.388,2.4186,2.433,2.4539,2.4802,2.5075,2.5322,2.5603,2.5943,2.6151,2.6208,2.6302,2.6383,2.6396,2.6396,2.6396,2.6396,2.6465,2.6521,2.6589,2.6589,2.685,2.7121,2.7456,2.7723,2.7973,2.8235,2.8495,2.8753,2.8958,2.9212,2.9498,2.9685,2.9946,3.0068,0.5596,0.6156,0.6487,0.6821,0.7141,0.7601,0.7868,0.8122,0.8414,0.8695,0.8954,0.9003,0.913,0.943,0.9628,0.9715,0.9903,1.0301,1.0605,1.0708,1.1203,1.1457,1.1825,1.2504,1.319,1.3864,1.4769,1.5445,1.5648,1.587,1.6272,1.6704,1.6777,1.7052,1.7426,1.7714,1.79,1.8087,1.8458,1.8643,1.8727,1.9096,1.9471,1.9754,2.0019,2.011,2.0292,2.0564,2.0835,2.0835,2.1096,2.1266,2.1535,2.2069,2.2413,2.2482,2.2413,2.2391,2.2447,2.2498,2.253,2.253,2.2441,2.253,2.2618,2.2803,2.2891,2.3067,2.3319,2.359,2.3841,2.409,2.409,2.4059,2.418,2.408,2.3866,2.3918,2.3892,2.3554,2.3591,2.3829,2.4018,2.4215,2.4522,2.4795,2.5052,2.5266,2.561,2.5737,2.5836,2.5931,2.5968,2.5968,2.598,2.605,2.605,2.6119,2.6188,2.6188,2.6327,2.6371,2.6633,2.6918,2.7188,2.7536,2.7723,2.7973,2.817,2.8379,2.8688,2.8994,2.9121,2.931,2.9512,0.448,0.4925,0.526,0.5483,0.5915,0.6478,0.6829,0.7071,0.7522,0.7906,0.814,0.8265,0.8531,0.8836,0.9438,0.9628,0.9719,1.0015,1.0216,1.0314,1.0618,1.101,1.1323,1.2005,1.251,1.3148,1.3929,1.4601,1.4983,1.512,1.5474,1.5827,1.5912,1.6008,1.6487,1.6958,1.7059,1.7246,1.7613,1.7885,1.7885,1.835,1.8735,1.9012,1.9196,1.9379,1.9563,1.9737,2.0019,2.0119,2.0292,2.0374,2.0645,2.0997,2.1526,2.1667,2.1695,2.1713,2.1651,2.1704,2.1624,2.1695,2.1704,2.1722,2.182,2.2008,2.2185,2.2451,2.2706,2.3057,2.3242,2.3484,2.3657,2.3667,2.3861,2.3836,2.376,2.387,2.3691,2.3458,2.3647,2.3791,2.3951,2.4161,2.4399,2.455,2.4696,2.4952,2.5228,2.5409,2.5535,2.5594,2.57,2.577,2.577,2.57,2.5712,2.5783,2.584,2.591,2.598,2.6107,2.6176,2.6314,2.6671,2.7066,2.7268,2.7456,2.7656,2.7789,2.8105,2.8417,2.856,2.8688,2.8881,0.3362,0.3694,0.3904,0.4234,0.4666,0.5443,0.5885,0.6115,0.6627,0.703,0.7344,0.7637,0.7939,0.8336,0.8935,0.9339,0.9442,0.9727,0.9826,0.992,1.022,1.0618,1.1015,1.1522,1.2016,1.26,1.3012,1.3545,1.4123,1.4319,1.4604,1.4887,1.4896,1.5057,1.554,1.592,1.6204,1.6393,1.6676,1.6951,1.7138,1.752,1.7893,1.8172,1.8365,1.8542,1.8727,1.8912,1.9096,1.9288,1.9471,1.9745,1.9828,2.0192,2.0512,2.0729,2.0863,2.0953,2.106,2.1042,2.1087,2.1096,2.0997,2.1096,2.1114,2.1203,2.1392,2.183,2.1998,2.2255,2.253,2.296,2.3135,2.3232,2.3339,2.359,2.3637,2.3654,2.3629,2.3563,2.3691,2.3735,2.3743,2.3899,2.4026,2.4393,2.4574,2.4637,2.4923,2.5157,2.5278,2.536,2.5419,2.5489,2.5489,2.5419,2.5431,2.5431,2.5489,2.5618,2.57,2.5828,2.591,2.598,2.6258,2.6658,2.6794,2.6998,2.7188,2.739,2.7656,2.7855,2.7973,2.8105,2.8235,0.2243,0.2575,0.2535,0.2957,0.3707,0.4239,0.4694,0.5188,0.5609,0.6052,0.6537,0.6839,0.7238,0.7733,0.8233,0.8634,0.8931,0.9133,0.9331,0.943,0.983,1.0116,1.0395,1.09,1.1499,1.2115,1.2393,1.2802,1.3304,1.334,1.353,1.387,1.3871,1.3902,1.449,1.4771,1.5057,1.5248,1.5534,1.5913,1.6292,1.6581,1.6857,1.7138,1.7326,1.752,1.7699,1.7978,1.8265,1.8365,1.8735,1.9012,1.9288,1.9288,1.9513,1.9935,2.0413,2.1032,2.0896,2.0861,2.0753,2.068,2.068,2.0564,2.0572,2.0482,2.0654,2.1078,2.1177,2.1365,2.182,2.2087,2.2264,2.2451,2.2725,2.2989,2.3144,2.3222,2.3308,2.3374,2.3378,2.3359,2.332,2.3499,2.3625,2.4014,2.4344,2.4426,2.4529,2.4676,2.4884,2.4945,2.4992,2.5064,2.5135,2.5064,2.5076,2.5076,2.5206,2.5265,2.5336,2.5489,2.5618,2.5758,2.5968,2.6164,2.6289,2.6496,2.6714,2.685,2.7121,2.7255,2.739,2.7523,2.7643,0.1097,0.1545,0.1845,0.2154,0.2576,0.3144,0.3733,0.4231,0.4572,0.5037,0.5639,0.6039,0.6539,0.7241,0.764,0.7935,0.8333,0.8634,0.8832,0.9031,0.9343,0.9717,1.0066,1.0493,1.0958,1.1544,1.1795,1.1976,1.2336,1.2744,1.3004,1.3243,1.3046,1.3044,1.3431,1.3715,1.3902,1.419,1.458,1.4962,1.5248,1.5445,1.5724,1.6096,1.6197,1.6379,1.6662,1.7044,1.7333,1.752,1.7792,1.8087,1.8365,1.855,1.8711,1.8988,1.9446,1.987,2.012,2.0152,2.0152,2.007,2.0053,2.0036,1.9945,1.9945,2.0027,2.0374,2.0374,2.0645,2.1015,2.1302,2.1571,2.175,2.2026,2.2283,2.2539,2.2706,2.2853,2.296,2.3115,2.3011,2.3092,2.3418,2.3701,2.4126,2.4317,2.4293,2.4204,2.4086,2.426,2.4502,2.449,2.449,2.4562,2.4634,2.4706,2.4718,2.4861,2.4992,2.4992,2.5135,2.5265,2.5336,2.5407,2.5535,2.5791,2.6013,2.6245,2.6383,2.6521,2.6645,2.6782,2.6837,2.6905,0.0214,0.0754,0.1064,0.1482,0.1795,0.2285,0.2884,0.3493,0.3755,0.4236,0.4839,0.5238,0.5939,0.6545,0.6739,0.7039,0.7537,0.7935,0.8333,0.863,0.8943,0.9299,0.9593,0.9973,1.0441,1.1045,1.1269,1.1456,1.1657,1.1911,1.2314,1.2617,1.2277,1.2304,1.2462,1.2748,1.3033,1.3323,1.3721,1.401,1.4202,1.4292,1.4484,1.4765,1.4956,1.5235,1.5615,1.5913,1.6204,1.6473,1.6662,1.6951,1.7239,1.752,1.78,1.8071,1.835,1.8574,1.8976,1.9152,1.9328,1.9336,1.9228,1.9212,1.9204,1.9212,1.9296,1.9463,1.9563,1.9837,2.0201,2.049,2.0671,2.1032,2.141,2.167,2.1839,2.2097,2.2353,2.253,2.2706,2.2706,2.2892,2.3317,2.377,2.4135,2.4281,2.419,2.4009,2.3667,2.3627,2.3835,2.3813,2.3824,2.397,2.4043,2.42,2.4345,2.449,2.4562,2.4562,2.4634,2.4849,2.4849,2.4849,2.5064,2.5336,2.5618,2.584,2.605,2.6245,2.6176,2.6233,2.622,2.6289,-0.0,0.0104,-0.0,0.0728,0.166,0.1631,0.2126,0.2838,0.3133,0.3531,0.4135,0.4636,0.5033,0.5434,0.5737,0.6037,0.6537,0.7039,0.7537,0.7935,0.834,0.8752,0.9111,0.9497,0.99,1.0326,1.0657,1.1043,1.1159,1.1129,1.1322,1.1447,1.1392,1.1541,1.1683,1.197,1.2165,1.2462,1.2759,1.2851,1.2948,1.3136,1.3221,1.3414,1.3703,1.3998,1.4094,1.458,1.4968,1.5242,1.5432,1.5812,1.6292,1.6487,1.6763,1.703,1.7225,1.7441,1.765,1.8303,1.8682,1.8597,1.8404,1.8272,1.8365,1.8272,1.8357,1.8635,1.8727,1.8912,1.9271,1.9554,1.9837,2.0119,2.0482,2.0843,2.1114,2.1383,2.1651,2.2008,2.2185,2.2264,2.2441,2.2794,2.3232,2.3657,2.3785,2.3773,2.3545,2.324,2.3113,2.3034,2.3075,2.315,2.3298,2.3446,2.3519,2.3677,2.3813,2.3897,2.397,2.4127,2.4345,2.4418,2.4478,2.4634,2.4861,2.5135,2.5419,2.577,2.591,2.5828,2.5828,2.5898,2.5968,-0.0,-0.0,-0.0,0.0408,0.1122,0.1418,0.1818,0.2222,0.2425,0.2725,0.333,0.383,0.4131,0.4433,0.4736,0.5238,0.5734,0.6034,0.6637,0.7238,0.7736,0.8134,0.8564,0.9003,0.9481,0.9815,1.0256,1.0559,1.0732,1.0666,1.0598,1.0664,1.0693,1.0757,1.09,1.1194,1.1389,1.1487,1.1683,1.178,1.1878,1.1878,1.2063,1.2457,1.2554,1.2948,1.3238,1.3516,1.3806,1.4094,1.4376,1.4765,1.5153,1.535,1.5622,1.5886,1.6082,1.619,1.6501,1.7246,1.7815,1.7815,1.7628,1.7613,1.7613,1.7707,1.79,1.7994,1.8179,1.8357,1.8719,1.8904,1.9004,1.9279,1.9646,2.0011,2.0283,2.0564,2.0925,2.1186,2.1553,2.1741,2.1919,2.2185,2.2618,2.3028,2.3212,2.3243,2.3031,2.2825,2.2566,2.2347,2.238,2.2402,2.2553,2.2703,2.2777,2.299,2.3224,2.3224,2.3298,2.3519,2.3677,2.3824,2.4043,2.4189,2.4406,2.4694,2.4981,2.5348,2.5477,2.5407,2.5477,2.5642,2.5642,-0.0,-0.0,-0.0,0.0303,0.0808,0.1414,0.1718,0.192,0.2022,0.2223,0.2725,0.3126,0.3429,0.363,0.3833,0.4234,0.4732,0.5133,0.5737,0.6337,0.6836,0.7335,0.7839,0.8464,0.8937,0.9282,0.9764,1.0152,1.042,1.0249,1.0285,1.0261,1.0129,1.0156,1.0413,1.0511,1.0708,1.0708,1.0801,1.09,1.1002,1.0998,1.1096,1.1487,1.1585,1.178,1.217,1.2452,1.2743,1.3033,1.3329,1.3715,1.401,1.4208,1.4484,1.4663,1.4943,1.5038,1.5527,1.6197,1.677,1.6777,1.6951,1.6951,1.7044,1.7239,1.734,1.734,1.7527,1.7807,1.8071,1.8071,1.8265,1.8542,1.9004,1.9363,1.9463,1.9737,2.0102,2.0374,2.0744,2.1114,2.1383,2.1651,2.2185,2.2539,2.2766,2.2742,2.2566,2.2241,2.1906,2.173,2.1614,2.1717,2.1807,2.2056,2.2208,2.2327,2.2553,2.2553,2.2703,2.2852,2.3001,2.315,2.3372,2.3677,2.397,2.4116,2.4478,2.4921,2.5076,2.5183,2.5123,2.5218,2.5289,-0.0,-0.0,-0.0,0.0303,0.0909,0.1414,0.1617,0.1617,0.192,0.2122,0.2321,0.2521,0.2724,0.3027,0.3027,0.3327,0.3729,0.4033,0.4636,0.5436,0.6039,0.6539,0.7138,0.7756,0.8317,0.8776,0.9346,0.9828,1.019,1.0035,1.0068,1.0042,0.9803,0.9821,1.0023,1.0314,1.0413,1.0413,1.0413,1.0314,1.031,1.031,1.0413,1.0605,1.0806,1.0998,1.1194,1.1482,1.1775,1.2068,1.2268,1.2559,1.2851,1.3033,1.3318,1.3511,1.3788,1.4082,1.4394,1.5255,1.5635,1.5825,1.6001,1.6103,1.6292,1.6393,1.6581,1.6581,1.677,1.6871,1.7059,1.7239,1.752,1.7807,1.8265,1.8542,1.8635,1.9004,1.9279,1.9637,2.0011,2.0473,2.0753,2.1203,2.1651,2.2106,2.2293,2.2273,2.2053,2.1919,2.1676,2.142,2.1362,2.1272,2.1457,2.147,2.164,2.1762,2.1807,2.1873,2.1949,2.2176,2.2327,2.2402,2.2777,2.315,2.3309,2.3542,2.4011,2.4576,2.4858,2.4979,2.4837,2.5003,2.5324,-0.0,-0.0,-0.0,0.0505,0.1313,0.1516,0.1617,0.1617,0.1718,0.1819,0.1919,0.2021,0.2223,0.2425,0.2523,0.2623,0.2823,0.333,0.3934,0.4535,0.5138,0.5739,0.6439,0.7051,0.7714,0.8364,0.9027,0.9328,0.9614,0.9646,0.9661,0.9634,0.9465,0.9545,0.9727,0.9826,0.9821,0.9628,0.9628,0.9525,0.9418,0.9525,0.9727,0.992,1.0117,1.0314,1.0507,1.0801,1.0998,1.1194,1.1389,1.1585,1.178,1.1965,1.2262,1.2457,1.2737,1.3039,1.3255,1.3744,1.4106,1.458,1.5057,1.5255,1.5255,1.5629,1.5724,1.5913,1.6103,1.6298,1.648,1.6676,1.6958,1.6965,1.734,1.752,1.78,1.8179,1.8635,1.8912,1.9279,1.9837,2.0292,2.0654,2.1195,2.1562,2.1839,2.1841,2.1701,2.176,2.1669,2.1365,2.1236,2.1147,2.1123,2.1125,2.1095,2.1161,2.1168,2.1098,2.1252,2.1492,2.1645,2.1797,2.2176,2.2563,2.2832,2.3188,2.3729,2.4183,2.4562,2.5027,2.5257,2.5557,2.5958,-0.0303,-0.0303,-0.0303,0.0101,0.0808,0.1111,0.1415,0.1516,0.1617,0.1617,0.1617,0.1819,0.192,0.2021,0.2019,0.212,0.2019,0.2424,0.3029,0.363,0.4332,0.4834,0.5436,0.6245,0.6914,0.7632,0.8137,0.8525,0.8804,0.9064,0.9145,0.9198,0.9091,0.9141,0.9327,0.9324,0.9225,0.913,0.913,0.9031,0.9027,0.9031,0.9232,0.943,0.9628,0.9826,1.0122,1.0216,1.031,1.0511,1.0609,1.0703,1.09,1.1096,1.1296,1.1585,1.1878,1.2083,1.2201,1.2288,1.2754,1.3232,1.3913,1.4298,1.4394,1.4771,1.4962,1.5153,1.5432,1.5629,1.5724,1.6015,1.6298,1.64,1.6683,1.6871,1.7153,1.7527,1.7807,1.8179,1.8542,1.9188,1.9828,2.0292,2.0654,2.1024,2.1293,2.1362,2.1443,2.1537,2.156,2.1372,2.1128,2.1021,2.0948,2.0838,2.0806,2.0593,2.0595,2.0537,2.0566,2.0799,2.0954,2.1205,2.1619,2.1998,2.2524,2.2934,2.3498,2.3981,2.4447,2.4993,2.5472,2.575,2.6062,-0.0808,-0.0808,-0.0808,-0.0808,-0.0707,0.0101,0.0909,0.1516,0.1516,0.1516,0.1617,0.1516,0.1617,0.1617,0.1617,0.1516,0.1516,0.1617,0.2121,0.2725,0.3327,0.3729,0.4332,0.5138,0.5903,0.6476,0.7053,0.7525,0.7916,0.8323,0.8581,0.8681,0.8645,0.8627,0.8726,0.8627,0.8726,0.873,0.8829,0.873,0.863,0.873,0.8931,0.913,0.9232,0.943,0.9624,0.9821,0.992,1.0117,1.0216,1.0314,1.0408,1.0413,1.0605,1.0801,1.1096,1.1208,1.1231,1.1311,1.1394,1.1975,1.2646,1.3227,1.3619,1.3908,1.4106,1.4298,1.458,1.4682,1.4783,1.5255,1.573,1.6015,1.6305,1.6487,1.6588,1.6871,1.7153,1.7434,1.7893,1.845,1.9188,1.9737,2.0102,2.0473,2.0753,2.1087,2.1175,2.1304,2.1351,2.1373,2.12,2.0922,2.0885,2.0837,2.0721,2.0633,2.0396,2.0301,2.022,2.0368,2.069,2.1056,2.1085,2.1544,2.2213,2.2773,2.3327,2.3769,2.4281,2.4794,2.53,2.5407,2.5554,-0.1817,-0.1917,-0.1513,-0.1615,-0.1917,-0.1614,-0.0808,0.0404,0.0707,0.0909,0.101,0.101,0.1212,0.1516,0.1212,0.0808,0.0909,0.1212,0.1617,0.2121,0.2522,0.3025,0.3627,0.4237,0.4993,0.5551,0.6102,0.6516,0.6836,0.7363,0.7604,0.7643,0.7832,0.7928,0.7829,0.7733,0.8035,0.8333,0.8428,0.8329,0.8333,0.8432,0.8535,0.8634,0.9034,0.9133,0.9331,0.9525,0.9624,0.9727,0.9821,0.9821,0.9821,1.0019,1.0216,1.0507,1.06,1.0605,1.0641,1.0636,1.0717,1.0806,1.1385,1.197,1.2554,1.2948,1.3244,1.3431,1.3715,1.3913,1.4298,1.4682,1.5159,1.554,1.573,1.6015,1.6116,1.6305,1.6595,1.6871,1.7333,1.7893,1.8635,1.9012,1.9371,1.992,2.0292,2.0564,2.0889,2.1105,2.1201,2.1225,2.1346,2.1176,2.1047,2.1013,2.0791,2.0578,2.0411,2.0344,2.0464,2.0573,2.0803,2.0938,2.1167,2.1578,2.2028,2.2581,2.3066,2.3533,2.3971,2.4587,2.5067,2.5142,2.524,-0.2663,-0.2566,-0.2169,-0.2268,-0.2569,-0.2587,-0.1896,-0.0999,-0.0302,0.0202,0.0505,0.0505,0.0707,0.0808,0.0606,0.0303,0.0101,0.0606,0.101,0.1414,0.1716,0.222,0.2825,0.333,0.3853,0.4497,0.5018,0.5315,0.5613,0.609,0.6439,0.6739,0.6936,0.7033,0.7033,0.7036,0.7135,0.7534,0.7733,0.7733,0.7836,0.7939,0.8137,0.8336,0.8737,0.8935,0.9034,0.9229,0.9229,0.9327,0.9327,0.9324,0.9324,0.9422,0.9521,0.9715,0.971,0.9719,0.9739,0.9838,0.9929,1.0122,1.0314,1.09,1.1487,1.1975,1.2268,1.2559,1.2948,1.3329,1.3817,1.4202,1.4586,1.4968,1.5261,1.5547,1.5737,1.5933,1.6116,1.6494,1.6965,1.7426,1.7986,1.8272,1.8735,1.9279,1.9737,2.011,2.0555,2.0962,2.1087,2.115,2.1346,2.1371,2.1244,2.114,2.0998,2.0741,2.0578,2.0578,2.0698,2.0755,2.0754,2.1015,2.1379,2.1707,2.2026,2.2376,2.2793,2.3216,2.3503,2.3801,2.4258,2.4661,2.4914,-0.3337,-0.3148,-0.2761,-0.2962,-0.3154,-0.3012,-0.2838,-0.2647,-0.1492,-0.0705,-0.0202,-0.0101,-0.0,0.0202,-0.0,-0.0101,-0.0303,-0.0101,0.0303,0.0707,0.1111,0.1515,0.1817,0.2323,0.2932,0.3229,0.3633,0.4053,0.444,0.4832,0.5336,0.5842,0.5839,0.5937,0.6137,0.6137,0.6237,0.6337,0.6637,0.6836,0.7238,0.7441,0.7643,0.7939,0.8233,0.8432,0.8726,0.8726,0.8825,0.8825,0.8825,0.8825,0.8924,0.8924,0.8924,0.8928,0.9023,0.9031,0.9137,0.924,0.9335,0.9529,0.9723,1.0019,1.0507,1.1096,1.1492,1.1785,1.2165,1.2657,1.3044,1.3528,1.401,1.449,1.4783,1.5166,1.5452,1.5642,1.5832,1.6211,1.6494,1.7059,1.7434,1.7807,1.8179,1.8635,1.9096,1.9463,1.992,2.0464,2.0817,2.0907,2.1168,2.1338,2.1275,2.1183,2.1204,2.0976,2.0765,2.0833,2.1056,2.0927,2.0734,2.1117,2.153,2.1654,2.1939,2.2263,2.2475,2.2698,2.2902,2.294,2.3309,2.3897,2.4155,-0.4377,-0.4095,-0.4095,-0.4191,-0.4383,-0.3922,-0.3642,-0.3451,-0.2795,-0.1966,-0.1308,-0.0807,-0.0404,-0.0202,-0.0504,-0.0706,-0.101,-0.0707,-0.0303,-0.0,0.0404,0.0707,0.101,0.1515,0.2018,0.232,0.2622,0.3025,0.3528,0.383,0.4131,0.4533,0.4634,0.4933,0.5135,0.5135,0.5236,0.5236,0.5334,0.5937,0.6642,0.6842,0.7141,0.7441,0.7736,0.8038,0.8233,0.8528,0.8726,0.8825,0.8825,0.8825,0.8825,0.8825,0.8733,0.8737,0.8737,0.8737,0.8741,0.884,0.8935,0.8931,0.9126,0.9229,0.9624,1.0314,1.0806,1.0998,1.1389,1.1878,1.2365,1.2948,1.3431,1.3913,1.44,1.4783,1.5166,1.5356,1.5642,1.5927,1.6218,1.6595,1.6972,1.734,1.7714,1.8087,1.845,1.8819,1.9188,1.9646,2.0184,2.0456,2.0907,2.1069,2.1141,2.1203,2.113,2.1307,2.1189,2.1277,2.1392,2.1282,2.1163,2.1383,2.1655,2.1776,2.1845,2.2054,2.2246,2.2362,2.2441,2.2441,2.253,2.295,2.3125,-0.5184,-0.5002,-0.4912,-0.5099,-0.5203,-0.468,-0.4229,-0.395,-0.3507,-0.299,-0.2359,-0.1675,-0.1088,-0.0697,-0.0998,-0.1206,-0.1512,-0.1313,-0.101,-0.0808,-0.0404,-0.0101,0.0303,0.0707,0.101,0.1414,0.1817,0.2221,0.2724,0.2924,0.3126,0.3428,0.3629,0.383,0.4033,0.4133,0.4133,0.4131,0.4131,0.4634,0.5639,0.5939,0.6339,0.6739,0.7141,0.7441,0.7637,0.7832,0.8134,0.8233,0.8333,0.8435,0.8432,0.8432,0.8435,0.8439,0.8439,0.8439,0.8542,0.8538,0.8634,0.863,0.8726,0.9027,0.9027,0.962,1.0015,1.0306,1.0904,1.1394,1.178,1.2365,1.2856,1.334,1.3919,1.4406,1.479,1.5166,1.5267,1.5458,1.5648,1.5838,1.6211,1.64,1.6864,1.7441,1.7807,1.8172,1.845,1.8727,1.9363,1.9911,2.0266,2.0727,2.0907,2.0988,2.1132,2.1257,2.1383,2.1489,2.1478,2.156,2.1713,2.1615,2.1615,2.1784,2.1891,2.1909,2.1919,2.1998,2.2087,2.2078,2.2078,2.2078,2.2255,-0.5819,-0.5811,-0.5641,-0.5644,-0.5657,-0.5113,-0.4693,-0.4522,-0.4027,-0.368,-0.3403,-0.2649,-0.2109,-0.1751,-0.1769,-0.169,-0.1705,-0.1713,-0.1615,-0.1515,-0.1111,-0.0808,-0.0606,-0.0303,0.0101,0.0606,0.1111,0.1515,0.1917,0.2119,0.2422,0.2624,0.2725,0.2826,0.3029,0.313,0.3128,0.3128,0.3228,0.343,0.4133,0.4834,0.5436,0.5939,0.6339,0.6642,0.6739,0.6939,0.7241,0.754,0.7739,0.7939,0.8041,0.8038,0.8038,0.8041,0.8141,0.8137,0.8137,0.8237,0.8336,0.8432,0.8627,0.8726,0.873,0.8928,0.932,0.9719,1.031,1.0806,1.1198,1.1688,1.2175,1.2759,1.3346,1.4027,1.4406,1.479,1.4885,1.4987,1.5178,1.5363,1.5553,1.5737,1.6116,1.6595,1.7066,1.734,1.7714,1.7994,1.845,1.8904,1.9363,1.9828,2.0374,2.0645,2.0826,2.1096,2.1195,2.1374,2.1562,2.1463,2.1463,2.1553,2.1553,2.1553,2.1553,2.1553,2.1553,2.1642,2.1633,2.1633,2.1633,2.1633,2.1633,-0.6526,-0.6526,-0.6254,-0.6169,-0.6088,-0.5662,-0.5399,-0.5138,-0.4707,-0.4353,-0.4093,-0.373,-0.3047,-0.2109,-0.2438,-0.2465,-0.238,-0.2303,-0.2117,-0.2018,-0.1717,-0.1515,-0.1313,-0.1111,-0.0707,-0.0101,0.0404,0.0808,0.1211,0.1515,0.1717,0.1818,0.1818,0.2019,0.2422,0.2522,0.2422,0.2422,0.2422,0.2623,0.3127,0.383,0.4535,0.5037,0.5536,0.5737,0.5937,0.6539,0.6842,0.7045,0.7241,0.7441,0.764,0.7643,0.7743,0.7842,0.7839,0.7939,0.7939,0.8038,0.8038,0.8137,0.8333,0.8333,0.8432,0.8535,0.8829,0.9027,0.962,1.0117,1.0511,1.11,1.159,1.2273,1.2856,1.3443,1.3925,1.4304,1.4496,1.4694,1.4981,1.5077,1.5172,1.5356,1.5439,1.592,1.6204,1.6574,1.6864,1.7153,1.7527,1.7994,1.845,1.9188,1.9837,2.0201,2.0382,2.0654,2.0925,2.1096,2.1096,2.1096,2.1186,2.1275,2.1275,2.1177,2.1177,2.1275,2.1275,2.1266,2.1177,2.1087,2.1186,2.1186,2.1275]},{"header":{"parameterUnit":"m.s-1","parameterCategory":1,"la1":31.0,"la2":29.5877,"lo1":-88.7671,"lo2":-86.6584,"dy":0.0162,"dx":0.0185,"nx":115,"ny":88,"refTime":"2023-05-28T18:00:00:Z","depth":0,"parameterNumber":3,"parameterNumberName":"V-component_of_WINDS"},"data":[0.0,0.0,0.0,0.0,0.0,0.0,0.0,0.0,0.0,0.0,0.0,0.0,0.0,0.0,0.0,0.0,0.0,0.0,0.0,0.0,0.0,0.0,0.0,0.0,0.0,0.0,0.0,0.0,0.0,0.0,0.0,0.0,0.0,0.0,0.0,0.0,0.0,0.0,0.0,0.0,0.0,0.0,0.0,0.0,0.0,0.0,0.0,0.0,0.0,0.0,0.0,0.0,0.0,0.0,0.0,0.0,0.0,0.0,0.0,0.0,0.0,0.0,0.0,0.0,0.0,0.0,0.0,0.0,0.0,0.0,0.0,0.0,0.0,0.0,0.0,0.0,0.0,0.0,0.0,0.0,0.0,0.0,0.0,0.0,0.0,0.0,0.0,0.0,0.0,0.0,0.0,0.0,0.0,0.0,0.0,0.0,0.0,0.0,0.0,0.0,0.0,0.0,0.0,0.0,0.0,0.0,0.0,0.0,0.0,0.0,0.0,0.0,0.0,0.0,0.0,0.0,0.0,0.0,0.0,0.0,0.0,0.0,0.0,0.0,0.0,0.0,0.0,0.0,0.0,0.0,0.0,0.0,0.0,0.0,0.0,0.0,0.0,0.0,0.0,0.0,0.0,0.0,0.0,0.0,0.0,0.0,0.0,0.0,0.0,0.0,0.0,0.0,0.0,0.0,0.0,0.0,0.0,0.0,0.0,0.0,0.0,0.0,0.0,0.0,0.0,0.0,0.0,0.0,0.0,0.0,0.0,0.0,0.0,0.0,0.0,0.0,0.0,0.0,0.0,0.0,0.0,0.0,0.0,0.0,0.0,0.0,0.0,0.0,0.0,0.0,0.0,0.0,0.0,0.0,0.0,0.0,0.0,0.0,0.0,0.0,0.0,0.0,0.0,0.0,0.0,0.0,0.0,0.0,0.0,0.0,0.0,0.0,0.0,0.0,0.0,0.0,0.0,0.0,0.0,0.0,0.0,0.0,0.0,0.0,0.0,0.0,0.0,0.0,0.0,0.0,0.0,0.0,0.0,0.0,0.0,0.0,0.0,0.0,0.0,0.0,0.0,0.0,0.0,0.0,0.0,0.0,0.0,0.0,0.0,0.0,0.0,0.0,0.0,0.0,0.0,0.0,0.0,0.0,0.0,0.0,0.0,0.0,0.0,0.0,0.0,0.0,0.0,0.0,0.0,0.0,0.0,0.0,0.0,0.0,0.0,0.0,0.0,0.0,0.0,0.0,0.0,0.0,0.0,0.0,0.0,0.0,0.0,0.0,0.0,0.0,0.0,0.0,0.0,0.0,0.0,0.0,0.0,0.0,0.0,0.0,0.0,0.0,0.0,0.0,0.0,0.0,0.0,0.0,0.0,0.0,0.0,0.0,0.0,0.0,0.0,0.0,0.0,0.0,0.0,0.0,0.0,0.0,0.0,0.0,0.0,0.0,0.0,0.0,0.0,0.0,0.0,0.0,0.0,0.0,0.0,0.0,0.0,0.0,0.0,0.0,0.0,0.0,0.0,0.0,0.0,0.0,0.0,0.0,0.0,0.0,0.0,0.0,0.0,0.0,0.0,0.0,0.0,0.0,0.0,0.0,0.0,0.0,0.0,0.0,0.0,0.0,0.0,0.0,0.0,0.0,0.0,0.0,0.0,0.0,0.0,0.0,0.0,0.0,0.0,0.0,0.0,0.0,0.0,0.0,0.0,0.0,0.0,0.0,0.0,0.0,0.0,0.0,0.0,0.0,0.0,0.0,0.0,0.0,0.0,0.0,0.0,0.0,0.0,0.0,0.0,0.0,0.0,0.0,0.0,0.0,0.0,0.0,0.0,0.0,0.0,0.0,0.0,0.0,0.0,0.0,0.0,0.0,0.0,0.0,0.0,0.0,0.0,0.0,0.0,0.0,0.0,0.0,0.0,0.0,0.0,0.0,0.0,0.0,0.0,0.0,0.0,0.0,0.0,0.0,0.0,0.0,0.0,0.0,0.0,0.0,0.0,0.0,0.0,0.0,0.0,0.0,0.0,0.0,0.0,0.0,0.0,0.0,0.0,0.0,0.0,0.0,0.0,0.0,0.0,0.0,0.0,0.0,0.0,0.0,0.0,0.0,0.0,0.0,0.0,0.0,0.0,0.0,0.0,0.0,0.0,0.0,0.0,0.0,0.0,0.0,0.0,0.0,0.0,0.0,0.0,0.0,0.0,0.0,0.0,0.0,0.0,0.0,0.0,0.0,0.0,0.0,0.0,0.0,0.0,0.0,0.0,0.0,0.0,0.0,0.0,0.0,0.0,0.0,0.0,0.0,0.0,0.0,0.0,0.0,0.0,0.0,0.0,0.0,0.0,0.0,0.0,0.0,0.0,0.0,0.0,0.0,0.0,0.0,0.0,0.0,0.0,0.0,0.0,0.0,0.0,0.0,0.0,0.0,0.0,0.0,0.0,0.0,0.0,0.0,0.0,0.0,0.0,0.0,0.0,0.0,0.0,0.0,0.0,0.0,0.0,0.0,0.0,0.0,0.0,0.0,0.0,0.0,0.0,0.0,0.0,0.0,0.0,0.0,0.0,0.0,0.0,0.0,0.0,0.0,0.0,0.0,0.0,0.0,0.0,0.0,0.0,0.0,0.0,0.0,0.0,0.0,0.0,0.0,0.0,0.0,0.0,0.0,0.0,0.0,0.0,0.0,0.0,0.0,0.0,0.0,0.0,0.0,0.0,0.0,0.0,0.0,0.0,0.0,0.0,0.0,0.0,0.0,0.0,0.0,0.0,0.0,0.0,0.0,0.0,0.0,0.0,0.0,0.0,0.0,0.0,0.0,0.0,0.0,0.0,0.0,0.0,0.0,0.0,0.0,0.0,0.0,0.0,0.0,0.0,0.0,0.0,0.0,0.0,0.0,0.0,0.0,0.0,0.0,0.0,0.0,0.0,0.0,0.0,0.0,0.0,0.0,0.0,0.0,0.0,0.0,0.0,0.0,0.0,0.0,0.0,0.0,0.0,0.0,0.0,0.0,0.0,0.0,0.0,0.0,0.0,0.0,0.0,0.0,0.0,0.0,0.0,0.0,0.0,0.0,0.0,0.0,0.0,0.0,0.0,0.0,0.0,0.0,0.0,0.0,0.0,0.0,0.0,0.0,0.0,0.0,0.0,0.0,0.0,0.0,0.0,0.0,0.0,0.0,0.0,0.0,0.0,0.0,0.0,0.0,0.0,0.0,0.0,0.0,0.0,0.0,0.0,0.0,0.0,0.0,0.0,0.0,0.0,0.0,0.0,0.0,0.0,0.0,0.0,0.0,0.0,0.0,0.0,0.0,0.0,0.0,0.0,0.0,0.0,0.0,0.0,0.0,0.0,0.0,0.0,0.0,0.0,0.0,0.0,0.0,0.0,0.0,0.0,0.0,0.0,0.0,0.0,0.0,0.0,0.0,0.0,0.0,0.0,0.0,0.0,0.0,0.0,0.0,0.0,0.0,0.0,0.0,0.0,0.0,0.0,0.0,0.0,0.0,0.0,0.0,0.0,0.0,0.0,0.0,0.0,0.0,0.0,0.0,0.0,0.0,0.0,0.0,0.0,0.0,0.0,0.0,0.0,0.0,0.0,0.0,0.0,0.0,0.0,0.0,0.0,0.0,0.0,0.0,0.0,0.0,0.0,0.0,0.0,0.0,0.0,0.0,0.0,0.0,0.0,0.0,0.0,0.0,0.0,0.0,0.0,0.0,0.0,0.0,0.0,0.0,0.0,0.0,0.0,0.0,0.0,0.0,0.0,0.0,0.0,0.0,0.0,0.0,0.0,0.0,0.0,0.0,0.0,0.0,0.0,0.0,0.0,0.0,0.0,0.0,0.0,0.0,0.0,0.0,0.0,0.0,0.0,0.0,0.0,0.0,0.0,0.0,0.0,0.0,0.0,0.0,0.0,0.0,0.0,0.0,0.0,0.0,0.0,0.0,0.0,0.0,0.0,0.0,0.0,0.0,0.0,0.0,0.0,0.0,0.0,0.0,0.0,0.0,0.0,0.0,0.0,0.0,0.0,0.0,0.0,0.0,0.0,0.0,0.0,0.0,0.0,0.0,0.0,0.0,0.0,0.0,0.0,0.0,0.0,0.0,0.0,0.0,0.0,0.0,0.0,0.0,0.0,0.0,0.0,0.0,0.0,0.0,0.0,0.0,0.0,0.0,0.0,0.0,0.0,0.0,0.0,0.0,0.0,0.0,0.0,0.0,0.0,0.0,0.0,0.0,0.0,0.0,0.0,0.0,0.0,0.0,0.0,0.0,0.3128,0.0,0.0,0.0,0.0,0.0,0.0,0.0,0.0,0.0,0.0,0.0,0.0,0.0,0.0,0.0,0.0,0.0,0.0,0.0,0.0,0.0,0.0,0.0,0.0,0.0,0.0,0.0,0.0,0.0,0.0,0.0,0.0,0.0,0.0,0.0,0.0,0.0,0.0,0.0,0.0,0.0,0.0,0.0,0.0,0.0,0.0,0.0,0.0,0.0,0.0,0.0,0.0,0.0,0.0,0.0,0.0,0.0,0.0,0.0,0.0,0.0,0.0,0.0,0.0,0.0,0.0,0.0,0.0,0.0,0.0,0.0,0.0,0.0,0.0,0.0,0.0,0.0,0.0,0.0,0.0,0.0,0.0,0.0,0.0,0.0,0.0,0.0,0.0,0.0,0.0,0.0,0.0,0.0,0.0,0.0,0.0,0.0,0.0,0.0,0.0,0.0,0.0,0.0,0.0,0.0,0.0,0.0,0.0,0.0,0.0,0.2453,0.2594,0.2821,0.3043,0.3355,0.0,0.0,0.0,0.0,0.0,0.0,0.0,0.0,0.0,0.0,0.0,0.0,0.0,0.0,0.0,0.0,0.0,0.0,0.0,0.0,0.0,0.0,0.0,0.0,0.0,0.0,0.0,0.0,0.0,0.0,0.0,0.0,0.0,0.0,0.0,0.0,0.0,0.0,0.0,0.0,0.0,0.0,0.0,0.0,0.0,0.0,0.0,0.0,0.0,0.0,0.0,0.0,0.0,0.0,0.0,0.0,0.0,0.0,0.0,0.0,0.0,0.0,0.0,0.0,0.0,0.0,0.0,0.0,0.0,0.0,0.0,0.0,0.0,0.0,0.0,0.0,0.0,0.0,0.0,0.0,0.0,0.0,0.0,0.0,0.0,0.0,0.0,0.0,0.0,0.0,0.0,0.0,0.0,0.0,0.0,0.0,0.0,0.0,0.0,0.0,0.0,0.0,0.0,0.0,0.0,0.0,0.0,0.0,0.0,0.0,0.0,0.0,0.3131,0.3346,0.3656,0.0,0.0,0.0,0.0,0.0,0.0,0.0,0.0,0.0,0.0,0.0,0.0,0.0,0.0,0.0,0.0,0.0,0.0,0.0,0.0,0.0,0.0,0.0,0.0,0.0,0.0,0.0,0.0,0.0,0.0,0.0,0.0,0.0,0.0,0.0,0.0,0.0,0.0,0.0,0.0,0.0,0.0,0.0,0.0,0.0,0.0,0.0,0.0,0.0,0.0,0.0,0.0,0.0,0.0,0.0,0.0,0.0,0.0,0.0,0.0,0.0,0.0,0.0,0.0,0.0,0.0,0.0,0.0,0.0,0.0,0.0,0.0,0.0,0.0,0.0,0.0,0.0,0.0,0.0,0.0,0.0,0.0,0.0,0.0,0.0,0.0,0.0,0.0,0.0,0.0,0.0,0.0,0.0,0.0,0.0,0.0,0.0,0.0,0.0,0.0,0.0,0.0,0.0,0.0,0.0,0.0,0.0,0.0,0.0,0.0,0.2758,0.2891,0.3163,0.0,0.4124,0.0,0.0,0.0,0.0,0.0,0.0,0.0,0.0,0.0,0.0,0.0,0.0,0.0,0.0,0.0,0.0,0.0,0.0,0.0,0.0,0.0,0.0,0.0,0.0,0.0,0.0,0.0,0.0,0.0,0.0,0.0,0.0,0.0,0.0,0.0,0.0,0.0,0.0,0.0,0.0,0.0,0.0,0.0,0.0,0.0,0.0,0.0,0.0,0.0,0.0,0.0,0.0,0.0,0.0,0.0,0.0,0.0,0.0,0.0,0.0,0.0,0.0,0.0,0.0,0.0,0.0,0.0,0.0,0.0,0.0,0.0,0.0,0.0,0.0,0.0,0.0,0.0,0.0,0.0,0.0,0.0,0.0,0.0,0.0,0.0,0.0,0.0,0.0,0.0,0.0,0.0,0.0,0.0,0.0,0.0,0.0,0.0,0.0,0.0,0.0,0.0,0.0,0.0,0.0,0.0,0.0,0.0,0.0,0.0,0.0,0.305,0.326,0.3599,0.395,0.0,0.0,0.0,0.0,0.0,0.0,0.0,0.0,0.0,0.0,0.0,0.0,0.0,0.0,0.0,0.0,0.0,0.0,0.0,0.0,0.0,0.0,0.0,0.0,0.0,0.0,0.0,0.0,0.0,0.0,0.0,0.0,0.0,0.0,0.0,0.0,0.0,0.0,0.0,0.0,0.0,0.0,0.0,0.0,0.0,0.0,0.0,0.0,0.0,0.0,0.0,0.0,0.0,0.0,0.0,0.0,0.0,0.0,0.0,0.0,0.0,0.0,0.0,0.0,0.0,0.0,0.0,0.0,0.0,0.0,0.0,0.0,0.0,0.0,0.0,0.0,0.0,0.0,0.0,0.0,0.0,0.0,0.0,0.0,0.0,0.0,0.0,0.0,0.0,0.0,0.0,0.0,0.0,0.0,0.0,0.0,0.0,0.0,0.0,0.0,0.0,0.0,0.0,0.0,0.0,0.0,0.0,0.0,0.0,0.0,0.2907,0.3233,0.3597,0.3928,0.4226,0.449,0.0,0.0,0.0,0.0,0.0,0.0,0.0,0.0,0.0,0.0,0.0,0.0,0.0,0.0,0.0,0.0,0.0,0.0,0.0,0.0,0.0,0.0,0.0,0.0,0.0,0.0,0.0,0.0,0.0,0.0,0.0,0.0,0.0,0.0,0.0,0.0,0.0,0.0,0.0,0.0,0.0,0.0,0.0,0.0,0.0,0.0,0.0,0.0,0.0,0.0,0.0,0.0,0.0,0.0,0.0,0.0,0.0,0.0,0.0,0.0,0.0,0.0,0.0,0.0,0.0,0.0,0.0,0.0,0.0,0.0,0.0,0.0,0.0,0.0,0.0,0.0,0.0,0.0,0.0,0.0,0.0,0.0,0.0,0.0,0.0,0.0,0.0,0.0,0.0,0.0,0.0,0.0,0.0,0.0,0.0,0.0,0.0,0.0,0.0,0.0,0.0,0.0,0.0,0.0,0.0,0.0,0.0,0.0,0.251,0.2772,0.3233,0.3853,0.4026,0.4194,0.0,0.0,0.0,0.0,0.0,0.0,0.0,0.0,0.0,0.0,0.0,0.0,0.0,0.0,0.0,0.0,0.0,0.0,0.0,0.0,0.0,0.0,0.0,0.0,0.0,0.0,0.0,0.0,0.0,0.0,0.0,0.0,0.0,0.0,0.0,0.0,0.0,0.0,0.0,0.0,0.0,0.0,0.0,0.0,0.0,0.0,0.0,0.0,0.0,0.0,0.0,0.0,0.0,0.0,0.0,0.0,0.0,0.0,0.0,0.0,0.0,0.0,0.0,0.0,0.0,0.0,0.0,0.0,0.0,0.0,0.0,0.0,0.0,0.0,0.0,0.0,0.0,0.0,0.0,0.0,0.0,0.0,0.0,0.0,0.0,0.0,0.0,0.0,0.0,0.0,0.0,0.0,0.0,0.0,0.0,0.0,0.0,0.0,0.0,0.0,0.0,0.0,0.0,0.0,0.0,0.0,0.0,0.0,0.0,0.2441,0.2874,0.327,0.3626,0.3858,0.4086,0.0,0.0,0.0,0.0,0.0,0.0,0.0,0.0,0.0,0.0,0.0,0.0,0.0,0.0,0.0,0.0,0.0,0.0,0.0,0.0,0.0,0.0,0.0,0.0,0.0,0.0,0.0,0.0,0.0,0.0,0.0,0.0,0.0,0.0,0.0,0.0,0.0,0.0,0.0,0.0,0.0,0.0,0.0,0.0,0.0,0.0,0.0,0.0,0.0,0.0,0.0,0.0,0.0,0.0,0.0,0.0,0.0,0.0,0.0,0.0,0.0,0.0,0.0,0.0,0.0,0.0,0.0,0.0,0.0,0.0,0.0,0.0,0.0,0.0,0.0,0.0,0.0,0.0,0.0,0.0,0.0,0.0,0.0,0.0,0.0,0.0,0.0,0.0,0.0,0.0,0.0,0.0,0.0,0.0,0.0,0.0,0.0,0.0,0.0,0.0,0.0,0.0,0.0,0.0,0.0,0.0,0.0,0.0,0.0,0.238,0.0,0.3175,0.3405,0.3663,0.3923,0.0,0.0,0.0,0.0,0.0,0.0,0.0,0.0,0.0,0.0,0.0,0.0,0.0,0.0,0.0,0.0,0.0,0.0,0.0,0.0,0.0,0.0,0.0,0.0,0.0,0.0,0.0,0.0,0.0,0.0,0.0,0.0,0.0,0.0,0.0,0.0,0.0,0.0,0.0,0.0,0.0,0.0,0.0,0.0,0.0,0.0,0.0,0.0,0.0,0.0,0.0,0.0,0.0,0.0,0.0,0.0,0.0,0.0,0.0,0.0,0.0,0.0,0.0,0.0,0.0,0.0,0.0,0.0,0.0,0.0,0.0,0.0,0.0,0.0,0.0,0.0,0.0,0.0,0.0,0.0,0.0,0.0,0.0,0.0,0.0,0.0,0.0,0.0,0.0,0.0,0.0,0.0,0.0,0.0,0.0,0.0,0.0,0.0,0.0,0.0,0.0,0.0,0.0,0.0,0.0,0.0,0.0,0.0,0.1911,0.2286,0.2616,0.2915,0.3175,0.3471,0.3695,0.0,0.0,0.0,0.0,0.0,0.0,0.0,0.0,0.0,0.0,0.0,0.0,0.0,0.0,0.0,0.0,0.0,0.0,0.0,0.0,0.0,0.0,0.0,0.0,0.0,0.0,0.0,0.0,0.0,0.0,0.0,0.0,0.0,0.0,0.0,0.0,0.0,0.0,0.0,0.0,0.0,0.0,0.0,0.0,0.0,0.0,0.0,0.0,0.0,0.0,0.0,0.0,0.0,0.0,0.0,0.0,0.0,0.0,0.0,0.0,0.0,0.0,0.0,0.0,0.0,0.0,0.0,0.0,0.0,0.0,0.0,0.0,0.0,0.0,0.0,0.0,0.0,0.0,0.0,0.0,0.0,0.0,0.0,0.0,0.0,0.0,0.0,0.0,0.0,0.0,0.0,0.0,0.0,0.0,0.0,0.0,0.0,0.0,0.0,0.0,0.0,0.0,0.0,0.0,0.0,0.0,0.0,0.0,0.0,0.2083,0.2377,0.2646,0.2845,0.3175,0.3438,0.0,0.0,0.0,0.0,0.0,0.0,0.0,0.0,0.0,0.0,0.0,0.0,0.0,0.0,0.0,0.0,0.0,0.0,0.0,0.0,0.0,0.0,0.0,0.0,0.0,0.0,0.0,0.0,0.0,0.0,0.0,0.0,0.0,0.0,0.0,0.0,0.0,0.0,0.0,0.0,0.0,0.0,0.0,0.0,0.0,0.0,0.0,0.0,0.0,0.0,0.0,0.0,0.0,0.0,0.0,0.0,0.0,0.0,0.0,0.0,0.0,0.0,0.0,0.0,0.0,0.0,0.0,0.0,0.0,0.0,0.0,0.0,0.0,0.0,0.0,0.0,0.0,0.0,0.0,0.0,0.0,0.0,0.0,0.0,0.0,0.0,0.0,0.0,0.0,0.0,0.0,0.0,0.0,0.0,0.0,0.0,0.0,0.0,0.0,0.0,0.0,0.0,0.0,0.0,0.0,0.0,0.0,0.0,0.0,0.1709,0.2026,0.2313,0.2556,0.2916,0.3224,0.3542,0.0,0.0,0.0,0.0,0.0,0.0,0.0,0.0,0.0,0.0,0.0,0.0,0.0,0.0,0.0,0.0,0.0,0.0,0.0,0.0,0.0,0.0,0.0,0.0,0.0,0.0,0.0,0.0,0.0,0.0,0.0,0.0,0.0,0.0,0.0,0.0,0.0,0.0,0.0,0.0,0.0,0.0,0.0,0.0,0.0,0.0,0.0,0.0,0.0,0.0,0.0,0.0,0.0,0.0,0.0,0.0,0.0,0.0,0.0,0.0,0.0,0.0,0.0,0.0,0.0,0.0,0.0,0.0,0.0,0.0,0.0,0.0,0.0,0.0,0.0,0.0,0.0,0.0,0.0,0.0,0.0,0.0,0.0,0.0,0.0,0.0,0.0,0.0,0.0,0.0,0.0,0.0,0.0,0.0,0.0,0.0,0.0,0.0,0.0,0.0,0.0,0.0,0.0,0.0,0.0,0.0,0.0,0.0,0.1179,0.1541,0.1901,0.226,0.2662,0.3075,0.0,0.0,0.0,0.0,0.0,0.0,0.0,0.0,0.0,0.0,0.0,0.0,0.0,0.0,0.0,0.0,0.0,0.0,0.0,0.0,0.0,0.0,0.0,0.0,0.0,0.0,0.0,0.0,0.0,0.0,0.0,0.0,0.0,0.0,0.0,0.0,0.0,0.0,0.0,0.0,0.0,0.0,0.0,0.0,0.0,0.0,0.0,0.0,0.0,0.0,0.0,0.0,0.0,0.0,0.0,0.0,0.0,0.0,0.0,0.0,0.0,0.0,0.0,0.0,0.0,0.0,0.0,0.0,0.0,0.0,0.0,0.0,0.0,0.0,0.0,0.0,0.0,0.0,0.0,0.0,0.0,0.0,0.0,0.0,0.0,0.0,0.0,0.0,0.0,0.0,0.0,0.0,0.0,0.0,0.0,0.0,0.0,0.0,0.0,0.0,0.0,0.0,0.0,0.0,0.0,0.0,0.0,0.0,0.0,0.0629,0.0964,0.1356,0.1769,0.2173,0.2611,0.0,0.0,0.0,0.0,0.0,0.0,0.0,0.0,0.0,0.0,0.0,0.0,0.0,0.0,0.0,0.0,0.0,0.0,0.0,0.0,0.0,0.0,0.0,0.0,0.0,0.0,0.0,0.0,0.0,0.0,0.0,0.0,0.0,0.0,0.0,0.0,0.0,0.0,0.0,0.0,0.0,0.0,0.0,0.0,0.0,0.0,0.0,0.0,0.0,0.0,0.0,0.0,0.0,0.0,0.0,0.0,0.0,0.0,0.0,0.0,0.0,0.0,0.0,0.0,0.0,0.0,0.0,0.0,0.0,0.0,0.0,0.0,0.0,0.0,0.0,0.0,0.0,0.0,0.0,0.0,0.0,0.0,0.0,0.0,0.0,0.0,0.0,0.0,0.0,0.0,0.0,0.0,0.0,0.0,0.0,0.0,0.0,0.0,0.0,0.0,0.0,0.0,0.0,0.0,0.0,0.0,0.0,0.0,0.0449,0.025,0.0427,0.0726,0.1123,0.1618,0.2154,0.0,0.0,0.0,0.0,0.0,0.0,0.0,0.0,0.0,0.0,0.0,0.0,0.0,0.0,0.0,0.0,0.0,0.0,0.0,0.0,0.0,0.0,0.0,0.0,0.0,0.0,0.0,0.0,0.0,0.0,0.0,0.0,0.0,0.0,0.0,0.0,0.0,0.0,0.0,0.0,0.0,0.0,0.0,0.0,0.0,0.0,0.0,0.0,0.0,0.0,0.0,0.0,0.0,0.0,0.0,0.0,0.0,0.0,0.0,0.0,0.0,0.0,0.0,0.0,0.0,0.0,0.0,0.0,0.0,0.0,0.0,0.0,0.0,0.0,0.0,0.0,0.0,0.0,0.0,0.0,0.0,0.0,0.0,0.0,0.0,0.0,0.0,0.0,0.0,0.0,0.0,0.0,0.0,0.0,0.0,0.0,0.0,0.0,0.0,0.0,0.0,0.0,0.0,0.0,0.0,0.0,0.0,0.0,-0.013,-0.0135,-0.009,0.0045,0.0407,0.1034,0.1746,0.0,0.0,0.0,0.0,0.0,0.0,0.0,0.0,0.0,0.0,0.0,0.0,0.0,0.0,0.0,0.0,0.0,0.0,0.0,0.0,0.0,0.0,0.0,0.0,0.0,0.0,0.0,0.0,0.0,0.0,0.0,0.0,0.0,0.0,0.0,0.0,0.0,0.0,0.0,0.0,0.0,0.0,0.0,0.0,0.0,0.0,0.0,0.0,0.0,0.0,0.0,0.0,0.0,0.0,0.0,0.0,0.0,0.0,0.0,0.0,0.0,0.0,0.0,0.0,0.0,0.0,0.0,0.0,0.0,0.0,0.0,0.0,0.0,0.0,0.0,0.0,0.0,0.0,0.0,0.0,0.0,0.0,0.0,0.0,0.0,0.0,0.0,0.0,0.0,0.0,0.0,0.0,0.0,0.0,0.0,0.0,0.0,0.0,0.0,0.0,0.0,0.0,0.0,0.0,0.0,0.0,0.0,0.0,-0.0542,-0.0845,-0.0705,-0.0564,-0.0376,0.0501,0.1208,0.0,0.0,0.0,0.0,0.0,0.0,0.0,0.0,0.0,0.0,0.0,0.0,0.0,0.0,0.0,0.0,0.0,0.0,0.0,0.0,0.0,0.0,0.0,0.0,0.0,0.0,0.0,0.0,0.0,0.0,0.0,0.0,0.0,0.0,0.0,0.0,0.0,0.0,0.0,0.0,0.0,0.0,0.0,0.0,0.0,0.0,0.0,0.0,-0.3142,0.0,0.0,0.0,0.0,0.0,0.0,0.0,0.0,0.0,0.0,0.0,0.0,0.0,0.0,0.0,0.0,0.0,0.0,0.0,0.0,0.0,0.0,0.0,0.0,0.0,0.0,0.0,0.0,0.0,0.0,0.0,0.0,0.0,0.0,0.0,0.0,0.0,0.0,0.0,0.0,0.0,0.0,0.0,0.0,0.0,0.0,0.0,0.0,0.0,0.0,0.0,0.0,0.0,0.0,0.0,0.0,0.0,0.0,0.0,-0.0961,-0.1141,-0.0952,-0.0808,-0.0666,-0.0047,0.0594,0.0,0.0,0.0,0.0,0.0,0.0,0.0,0.0,0.0,0.0,0.0,0.0,0.0,0.0,0.0,0.0,0.0,0.0,0.0,0.0,0.0,0.0,0.0,0.0,0.0,0.0,0.0,0.0,0.0,0.0,0.0,0.0,0.0,0.0,0.0,0.0,0.0,0.0,0.0,0.0,0.0,0.0,0.0,0.0,0.0,0.0,0.0,0.0,0.0,0.0,0.0,0.0,0.0,0.0,0.0,0.0,0.0,0.0,0.0,0.0,0.0,0.0,0.0,0.0,0.0,0.0,0.0,0.0,0.0,0.0,0.0,0.0,0.0,0.0,0.0,0.0,0.0,0.0,0.0,0.0,0.0,0.0,0.0,0.0,0.0,0.0,0.0,0.0,0.0,0.0,0.0,0.0,0.0,0.0,0.0,0.0,0.0,0.0,0.0,0.0,0.0,0.0,0.0,0.0,0.0,0.0,0.0,-0.1254,-0.1283,-0.1246,-0.1105,-0.0961,-0.0864,-0.053,0.0047,0.0897,0.0,0.0,0.0,0.0,0.0,0.0,0.0,0.0,0.0,0.0,0.0,0.0,0.0,0.0,0.0,0.0,0.0,0.0,0.0,0.0,0.0,0.0,0.0,0.0,0.0,0.0,0.0,0.0,0.0,0.0,0.0,0.0,0.0,0.0,0.0,0.0,0.0,0.0,-0.435,-0.4377,0.0,0.0,0.0,0.0,0.0,0.0,0.0,0.0,-0.3821,0.0,0.0,0.0,0.0,0.0,0.0,0.0,0.0,0.0,0.0,0.0,0.0,0.0,0.0,0.0,0.0,0.0,0.0,0.0,0.0,0.0,0.0,0.0,0.0,0.0,0.0,0.0,0.0,0.0,0.0,0.0,0.0,0.0,0.0,0.0,0.0,0.0,0.0,0.0,0.0,0.0,0.0,0.0,0.0,0.0,0.0,0.0,0.0,0.0,0.0,0.0,0.0,0.0,0.0,0.0,0.0,-0.1299,-0.1435,-0.1534,-0.1547,-0.1501,-0.135,-0.1049,-0.08,-0.0242,0.0542,0.0,0.0,0.0,0.0,0.0,0.0,0.0,0.0,0.0,0.0,0.0,0.0,0.0,0.0,0.0,0.0,0.0,0.0,0.0,0.0,0.0,0.0,0.0,0.0,0.0,0.0,0.0,0.0,0.0,0.0,0.0,0.0,0.0,0.0,0.0,0.0,0.0,0.0,0.0,-0.471,-0.464,0.0,0.0,0.0,0.0,0.0,0.0,0.0,0.0,-0.4437,0.0,0.0,0.0,0.0,0.0,0.0,0.0,0.0,0.0,0.0,0.0,0.0,0.0,0.0,0.0,0.0,0.0,0.0,0.0,0.0,0.0,0.0,0.0,0.0,0.0,0.0,0.0,0.0,0.0,0.0,0.0,0.0,0.0,0.0,0.0,0.0,0.0,0.0,0.0,0.0,0.0,0.0,0.0,0.0,0.0,0.0,0.0,0.0,0.0,0.0,0.0,0.0,0.0,0.0,0.0,-0.157,-0.1695,-0.1762,-0.1714,-0.1697,-0.1493,-0.1212,-0.0908,-0.0487,0.0,0.0,0.0,0.0,0.0,0.0,0.0,0.0,0.0,0.0,0.0,0.0,0.0,0.0,0.0,0.0,0.0,0.0,0.0,0.0,0.0,0.0,0.0,0.0,0.0,0.0,0.0,0.0,0.0,0.0,0.0,0.0,0.0,0.0,0.0,0.0,0.0,0.0,0.0,0.0,-0.4902,-0.4864,-0.4724,0.0,0.0,0.0,0.0,0.0,0.0,-0.4838,-0.4908,0.0,0.0,0.0,0.0,0.0,0.0,0.0,0.0,0.0,0.0,0.0,0.0,0.0,0.0,0.0,0.0,0.0,0.0,0.0,0.0,0.0,0.0,0.0,0.0,0.0,0.0,0.0,0.0,0.0,0.0,0.0,0.0,0.0,0.0,0.0,0.0,0.0,0.0,0.0,0.0,0.0,0.0,0.0,0.0,0.0,0.0,0.0,0.0,0.0,0.0,0.0,0.0,0.0,0.0,0.0,-0.1885,-0.196,-0.1992,-0.1917,-0.1831,-0.1676,-0.1365,-0.1059,-0.0682,0.0,0.0,0.0,0.0,0.0,0.0,0.0,0.0,0.0,0.0,0.0,0.0,0.0,0.0,0.0,0.0,0.0,0.0,0.0,0.0,0.0,0.0,0.0,0.0,0.0,0.0,0.0,0.0,0.0,0.0,0.0,0.0,0.0,0.0,0.0,0.0,0.0,0.0,0.0,0.0,0.0,-0.5222,-0.5182,-0.5339,0.0,0.0,0.0,0.0,-0.5333,-0.5352,0.0,0.0,0.0,0.0,0.0,0.0,0.0,0.0,0.0,0.0,0.0,0.0,0.0,0.0,0.0,0.0,0.0,0.0,0.0,0.0,0.0,0.0,0.0,0.0,0.0,0.0,0.0,0.0,0.0,0.0,0.0,0.0,0.0,0.0,0.0,0.0,0.0,0.0,0.0,0.0,0.0,0.0,0.0,0.0,0.0,0.0,0.0,0.0,0.0,0.0,0.0,0.0,0.0,0.0,0.0,0.0,-0.2239,-0.2377,-0.2376,-0.2315,-0.2141,-0.1934,-0.1668,-0.1262,-0.0877,0.0,0.0,0.0,0.0,0.0,0.0,0.0,0.0,0.0,0.0,0.0,0.0,0.0,0.0,0.0,0.0,0.0,0.0,0.0,0.0,0.0,0.0,0.0,0.0,0.0,0.0,0.0,0.0,0.0,0.0,0.0,0.0,0.0,0.0,0.0,0.0,0.0,0.0,0.0,0.0,0.0,-0.6138,-0.6059,-0.6079,-0.6032,0.0,0.0,-0.5954,-0.5756,-0.5932,0.0,0.0,0.0,0.0,0.0,0.0,0.0,0.0,0.0,0.0,0.0,0.0,0.0,0.0,0.0,0.0,0.0,0.0,0.0,0.0,0.0,0.0,0.0,0.0,0.0,0.0,0.0,0.0,0.0,0.0,0.0,0.0,0.0,0.0,0.0,0.0,0.0,0.0,0.0,0.0,0.0,0.0,0.0,0.0,0.0,0.0,0.0,0.0,0.0,0.0,0.0,0.0,0.0,0.0,0.0,-0.28,-0.2871,-0.2793,-0.2799,-0.2749,-0.2529,-0.2318,-0.1978,-0.158,-0.1181,0.0,0.0,0.0,0.0,0.0,0.0,0.0,0.0,0.0,0.0,0.0,0.0,0.0,0.0,0.0,0.0,0.0,0.0,0.0,0.0,0.0,0.0,0.0,0.0,0.0,0.0,0.0,0.0,0.0,0.0,0.0,0.0,0.0,0.0,0.0,0.0,0.0,0.0,0.0,0.0,0.0,0.0,-0.6343,-0.6443,0.0,0.0,0.0,-0.6546,-0.6358,0.0,0.0,0.0,0.0,0.0,0.0,0.0,0.0,0.0,0.0,0.0,0.0,0.0,0.0,0.0,0.0,0.0,0.0,0.0,0.0,0.0,0.0,0.0,0.0,0.0,0.0,0.0,0.0,0.0,0.0,0.0,0.0,0.0,0.0,0.0,0.0,0.0,0.0,0.0,0.0,0.0,0.0,0.0,0.0,0.0,0.0,0.0,0.0,0.0,0.0,0.0,0.0,0.0,0.0,0.0,0.0,0.0,-0.3463,-0.3254,-0.3171,-0.3129,-0.2914,-0.2646,-0.2342,-0.1954,0.0,0.0,0.0,0.0,0.0,0.0,0.0,0.0,0.0,0.0,0.0,0.0,0.0,0.0,0.0,0.0,0.0,0.0,0.0,0.0,0.0,0.0,0.0,0.0,0.0,0.0,0.0,-0.4971,0.0,0.0,0.0,0.0,0.0,0.0,0.0,0.0,0.0,0.0,0.0,0.0,0.0,0.0,-0.6536,-0.6715,-0.6866,-0.6887,0.0,0.0,-0.6992,-0.6793,-0.663,-0.6496,0.0,0.0,0.0,0.0,0.0,0.0,0.0,0.0,0.0,0.0,0.0,0.0,0.0,0.0,0.0,0.0,0.0,0.0,0.0,0.0,0.0,0.0,0.0,0.0,0.0,0.0,0.0,0.0,0.0,0.0,0.0,0.0,0.0,0.0,0.0,0.0,0.0,0.0,0.0,0.0,0.0,0.0,0.0,0.0,0.0,0.0,0.0,0.0,0.0,0.0,0.0,0.0,0.0,0.0,0.0,-0.3939,-0.3703,-0.3586,-0.3547,-0.3239,-0.2973,-0.277,-0.2311,-0.2029,0.0,0.0,0.0,0.0,0.0,0.0,0.0,0.0,0.0,0.0,0.0,0.0,0.0,0.0,0.0,0.0,0.0,0.0,0.0,0.0,0.0,0.0,0.0,0.0,0.0,0.0,0.0,0.0,0.0,0.0,0.0,0.0,0.0,0.0,0.0,0.0,0.0,0.0,0.0,0.0,0.0,-0.741,-0.7418,-0.7529,-0.7516,0.0,0.0,-0.7125,-0.6921,-0.6872,-0.6745,-0.6453,0.0,0.0,0.0,0.0,0.0,0.0,0.0,0.0,0.0,0.0,0.0,0.0,0.0,0.0,0.0,0.0,0.0,0.0,0.0,0.0,0.0,0.0,0.0,0.0,0.0,0.0,0.0,0.0,0.0,0.0,0.0,0.0,0.0,0.0,0.0,0.0,0.0,0.0,0.0,0.0,0.0,0.0,0.0,0.0,0.0,0.0,0.0,0.0,0.0,0.0,0.0,0.0,0.0,-0.4713,-0.4751,-0.4534,-0.4431,-0.4365,-0.3935,-0.3611,-0.3566,-0.3076,-0.2764,0.0,0.0,0.0,0.0,0.0,0.0,0.0,0.0,0.0,0.0,0.0,0.0,0.0,0.0,0.0,0.0,0.0,0.0,0.0,0.0,0.0,0.0,0.0,0.0,0.0,0.0,0.0,0.0,-0.6227,-0.6355,-0.6581,0.0,0.0,0.0,0.0,0.0,0.0,0.0,0.0,0.0,0.0,-0.7607,-0.7621,-0.767,0.0,0.0,-0.7328,-0.7245,-0.6992,-0.6914,-0.6872,-0.6708,-0.6666,0.0,0.0,0.0,0.0,0.0,0.0,0.0,0.0,0.0,0.0,0.0,0.0,0.0,0.0,0.0,0.0,0.0,0.0,0.0,0.0,0.0,0.0,0.0,0.0,0.0,0.0,0.0,0.0,0.0,0.0,0.0,0.0,0.0,0.0,0.0,0.0,0.0,0.0,0.0,0.0,0.0,0.0,0.0,0.0,0.0,0.0,0.0,0.0,0.0,0.0,0.0,0.0,-0.5462,-0.553,-0.5264,-0.5108,-0.5117,-0.457,-0.4242,-0.4184,-0.3785,-0.3461,0.0,0.0,0.0,0.0,0.0,0.0,0.0,0.0,0.0,0.0,0.0,0.0,0.0,0.0,0.0,0.0,0.0,0.0,0.0,0.0,0.0,0.0,0.0,0.0,0.0,0.0,0.0,0.0,-0.6575,-0.6732,-0.6878,0.0,0.0,0.0,0.0,0.0,0.0,0.0,0.0,0.0,0.0,-0.7731,-0.7753,-0.7712,-0.7635,-0.7419,-0.737,-0.7328,-0.7063,-0.6943,-0.6914,-0.6914,0.0,0.0,0.0,0.0,0.0,0.0,0.0,0.0,0.0,0.0,0.0,0.0,0.0,0.0,0.0,0.0,0.0,0.0,0.0,0.0,0.0,0.0,0.0,0.0,0.0,0.0,0.0,0.0,0.0,0.0,-0.9265,0.0,0.0,0.0,0.0,0.0,0.0,0.0,0.0,0.0,0.0,0.0,0.0,0.0,0.0,0.0,0.0,0.0,0.0,0.0,0.0,0.0,0.0,-0.6166,-0.6252,-0.5902,-0.569,-0.5614,-0.512,-0.4794,-0.4684,-0.4324,-0.4089,-0.4079,0.0,0.0,0.0,0.0,0.0,0.0,0.0,0.0,0.0,0.0,0.0,0.0,0.0,0.0,0.0,0.0,0.0,0.0,0.0,0.0,0.0,0.0,0.0,0.0,0.0,0.0,-0.6708,-0.6865,-0.7112,0.0,0.0,0.0,0.0,0.0,0.0,0.0,0.0,0.0,0.0,-0.7807,-0.7773,-0.7878,-0.7753,-0.7628,-0.7412,-0.737,-0.7286,-0.7063,-0.7021,-0.6979,0.0,0.0,0.0,0.0,0.0,0.0,0.0,0.0,0.0,0.0,0.0,0.0,0.0,0.0,0.0,0.0,0.0,0.0,0.0,0.0,0.0,0.0,0.0,0.0,0.0,0.0,0.0,-1.101,-1.0844,0.0,0.0,0.0,0.0,0.0,0.0,0.0,0.0,0.0,0.0,0.0,-0.8562,-0.8482,0.0,0.0,0.0,0.0,0.0,0.0,0.0,0.0,0.0,0.0,0.0,0.0,-0.6941,-0.703,-0.6781,-0.6518,-0.6322,-0.5773,-0.55,-0.5391,-0.5062,-0.487,-0.4916,0.0,0.0,0.0,0.0,0.0,0.0,0.0,0.0,0.0,0.0,0.0,0.0,0.0,0.0,0.0,0.0,0.0,0.0,0.0,0.0,0.0,0.0,0.0,0.0,0.0,-0.7034,0.0,0.0,0.0,0.0,0.0,0.0,0.0,0.0,0.0,0.0,0.0,-0.8077,-0.8013,-0.8085,-0.8093,-0.7912,-0.778,-0.7648,0.0,0.0,0.0,0.0,0.0,0.0,0.0,0.0,0.0,0.0,0.0,0.0,0.0,0.0,-0.7809,-0.7157,-0.7132,-0.7167,-0.7167,0.0,0.0,0.0,0.0,0.0,0.0,0.0,0.0,0.0,0.0,0.0,0.0,0.0,0.0,0.0,0.0,-1.2378,0.0,0.0,0.0,0.0,0.0,0.0,0.0,0.0,-1.0092,-1.0059,-1.0079,-0.9813,-0.966,0.0,-0.9366,-0.8949,0.0,0.0,0.0,0.0,0.0,0.0,0.0,0.0,-0.7852,-0.7883,-0.7641,-0.7354,-0.7025,-0.6539,-0.6213,-0.6213,-0.5882,-0.5735,-0.5704,-0.5493,-0.5343,0.0,0.0,0.0,0.0,0.0,0.0,0.0,0.0,0.0,0.0,0.0,0.0,0.0,0.0,0.0,0.0,0.0,0.0,0.0,0.0,0.0,0.0,0.0,-0.7335,0.0,0.0,0.0,0.0,0.0,0.0,0.0,0.0,0.0,-0.8152,-0.8242,-0.8291,-0.8185,-0.8299,-0.8314,-0.8044,0.0,0.0,0.0,0.0,0.0,0.0,0.0,-0.7664,-0.7843,-0.79,-0.8139,-0.8639,-0.8929,-0.9128,-0.9136,0.0,0.0,-0.7894,-0.7736,-0.778,-0.778,-0.7736,-0.7736,-0.7736,-0.7692,-0.7699,0.0,0.0,0.0,0.0,0.0,0.0,0.0,0.0,-1.5216,-1.5091,0.0,-1.4809,0.0,0.0,0.0,0.0,0.0,-1.2374,0.0,0.0,-1.2026,-1.2038,-1.2069,-1.1564,-1.1362,-1.1321,-1.0605,-1.0287,-1.0213,-0.9486,0.0,0.0,0.0,0.0,0.0,0.0,-0.8853,-0.881,-0.8415,-0.8055,-0.7723,-0.7348,-0.7031,-0.6933,-0.6756,-0.6546,-0.6452,-0.6427,-0.6221,-0.5795,-0.5887,0.0,0.0,0.0,0.0,0.0,0.0,0.0,0.0,0.0,0.0,0.0,0.0,0.0,0.0,0.0,0.0,0.0,0.0,0.0,0.0,-0.744,0.0,0.0,0.0,0.0,0.0,0.0,0.0,0.0,0.0,0.0,-0.8478,-0.8471,-0.8521,-0.8521,0.0,0.0,0.0,0.0,-0.7987,-0.7912,-0.7919,-0.7878,-0.7775,-0.7859,-0.8131,-0.8589,0.0,0.0,-0.9641,-0.976,-0.9785,-0.9768,-0.9801,-0.9522,-0.8919,-0.8648,-0.8533,-0.8493,-0.8393,-0.8327,-0.8334,-0.8325,-0.8292,-2.112,0.0,0.0,0.0,0.0,-1.7944,-1.7626,-1.7402,-1.7198,-1.6837,-1.6475,-1.6422,0.0,0.0,0.0,0.0,0.0,0.0,-1.4027,-1.3811,-1.344,-1.3203,-1.3004,-1.277,-1.2608,-1.2427,-1.2209,-1.2105,-1.2087,-1.1721,-1.0885,-0.969,0.0,0.0,0.0,0.0,-0.96,-0.9481,-0.9099,-0.8784,-0.8508,-0.7931,-0.7557,-0.7359,-0.73,-0.7261,-0.7353,-0.7183,-0.7081,-0.7025,-0.6813,0.0,0.0,0.0,0.0,0.0,0.0,0.0,0.0,0.0,0.0,0.0,0.0,0.0,0.0,0.0,0.0,0.0,0.0,0.0,-0.8316,-0.8113,-0.7968,0.0,0.0,0.0,0.0,0.0,0.0,0.0,0.0,0.0,-0.9387,-0.8963,-0.8635,0.0,0.0,-0.8407,-0.8406,-0.8455,-0.8414,-0.8291,-0.825,0.0,0.0,-0.8723,-0.8972,-0.9558,-1.0052,-1.0348,-1.0505,-1.085,-1.1097,-1.0991,-1.1,-1.0844,-1.0467,-0.9644,-0.912,-0.9043,-0.895,-0.8857,-0.8771,-0.8724,-0.8685,-2.486,-2.3429,-2.1546,-2.057,-2.0196,-1.9939,-1.9667,-1.938,-1.9148,-1.8916,-1.8635,-1.8526,-1.8247,-1.7734,-1.7161,0.0,0.0,0.0,-1.5373,-1.5214,-1.4743,-1.4517,-1.4453,-1.4143,-1.3883,-1.3764,-1.3541,-1.3413,-1.3413,-1.3277,-1.2554,-1.1352,0.0,0.0,-1.0876,-1.0639,-1.049,-1.0379,-0.9932,-0.9569,-0.9295,-0.8718,-0.8309,-0.8109,-0.8103,-0.8103,-0.8203,-0.8105,-0.8069,-0.8049,-0.7713,-0.7498,0.0,0.0,0.0,0.0,0.0,0.0,0.0,0.0,0.0,0.0,0.0,-0.8034,0.0,0.0,0.0,0.0,-0.885,-0.8857,-0.8872,-0.8579,0.0,0.0,0.0,0.0,0.0,0.0,0.0,-0.9375,-0.9506,-0.969,-0.9918,-0.9569,-0.9325,-0.9291,-0.8911,-0.876,-0.9104,0.0,-0.9333,-0.9129,-0.9137,-0.9203,-0.956,-0.9655,-0.9915,-1.0567,-1.1048,-1.1402,-1.1459,-1.1724,-1.1918,-1.1828,-1.1778,-1.1678,-1.1477,-1.0695,-1.0019,-0.9827,-0.969,-0.9552,-0.9351,-0.9358,-0.9246,-2.8095,-2.7651,-2.4326,-2.2664,-2.2168,-2.2013,-2.1801,-2.1448,-2.1321,-2.1203,-2.1129,-2.0958,-2.0653,-2.011,-1.8988,0.0,-1.7066,-1.6773,-1.6651,-1.6613,-1.6178,-1.6133,-1.63,-1.5741,-1.5371,-1.5371,-1.4745,-1.4483,-1.4493,-1.4413,-1.4143,-1.3706,-1.2664,-1.2131,-1.1977,-1.1569,-1.1377,-1.1377,-1.0812,-1.0336,-1.0072,-0.9562,-0.9211,-0.9113,-0.9054,-0.9061,-0.9054,-0.9054,-0.9034,-0.8905,-0.8594,-0.8382,-0.8275,0.0,0.0,0.0,0.0,0.0,0.0,0.0,0.0,0.0,0.0,0.0,0.0,0.0,0.0,0.0,-0.9229,0.0,-0.9174,-0.8879,0.0,0.0,0.0,-0.881,-0.9136,-0.9299,-0.9455,-0.9594,0.0,0.0,-1.024,-1.0369,-1.0414,-1.0332,-0.9645,-0.9391,-1.0183,-1.0489,-1.0578,-1.0256,-1.0228,-1.0336,-1.0471,-1.0678,-1.0985,-1.1499,-1.1916,-1.2197,-1.2295,-1.2353,-1.2372,-1.2323,-1.2224,-1.2076,-1.1927,-1.1543,-1.1167,-1.0635,-1.0446,-1.0241,-1.0056,-0.9997,-0.9938,-2.9406,-2.9016,-2.7669,-2.6537,-2.5679,-2.5189,-2.4949,-2.4767,-2.4474,-2.3819,-2.3043,-2.2972,-2.2477,-2.1504,-2.0986,-2.069,-2.0397,-1.9896,-1.9586,-1.9399,-1.8942,-1.8664,-1.8541,-1.8243,-1.7965,-1.7755,-1.7201,-1.6863,-1.6707,-1.597,-1.5572,-1.5447,-1.4904,-1.3942,-1.2539,-1.2431,-1.2224,-1.1918,-1.1669,-1.1209,-1.0651,-1.0293,-1.0028,-0.9917,-0.9814,-0.9762,-0.9769,-0.9769,-0.9725,-0.9702,-0.9551,-0.9443,-0.9541,-0.9358,0.0,0.0,0.0,0.0,0.0,0.0,0.0,0.0,0.0,-0.9889,-1.0153,0.0,-1.0293,0.0,-1.0266,-1.0066,-0.9814,-0.9521,0.0,0.0,-0.9384,-0.9425,-0.9634,-1.0008,-1.0266,-1.0416,-1.0706,-1.0953,-1.1002,-1.1394,-1.1646,-1.1628,-1.0771,-1.0302,-1.0723,-1.1481,-1.1708,-1.0921,-1.0759,-1.0876,-1.1352,-1.1874,-1.2244,-1.2513,-1.2706,-1.2803,-1.2813,-1.2949,-1.2939,-1.2774,-1.2735,-1.2529,-1.2126,-1.1977,-1.1728,-1.1226,-1.082,-1.0573,-1.0419,-1.0316,-1.0154,-3.1644,-3.1056,-3.0499,-2.971,-2.8777,-2.7456,-2.6742,-2.6512,-2.6316,-2.5881,-2.5269,-2.497,-2.4253,-2.3276,-2.2773,-2.23,-2.1944,-2.1431,-2.1131,-2.0893,-2.0481,-2.0192,-2.0006,-1.9714,-1.9538,-1.942,-1.8971,-1.872,-1.8558,-1.7711,-1.7137,-1.6971,-1.6403,-1.5545,-1.4341,-1.3739,-1.3194,-1.2706,-1.2344,-1.195,-1.1418,-1.1158,-1.0947,-1.0795,-1.0685,-1.0685,-1.0694,-1.0643,-1.0694,-1.0728,-1.0508,-1.0414,-1.0446,-1.0297,-1.0282,0.0,0.0,0.0,0.0,0.0,0.0,0.0,0.0,0.0,0.0,0.0,-1.1036,-1.1006,-1.0871,-1.0667,-1.0411,-1.0229,-1.0111,-1.0176,-1.0436,-1.0533,-1.0517,-1.0882,-1.1243,-1.1403,-1.1523,-1.1627,-1.1875,-1.2036,-1.2224,-1.2431,-1.1845,-1.1454,-1.164,-1.2258,-1.2437,-1.1798,-1.1686,-1.1836,-1.2225,-1.2647,-1.2958,-1.2997,-1.3045,-1.3094,-1.3084,-1.318,-1.318,-1.3027,-1.2929,-1.2783,-1.2431,-1.2234,-1.1977,-1.1719,-1.1318,-1.1023,-1.0718,-1.0616,-1.0522,-3.3959,-3.3264,-3.2946,-3.2363,-3.1558,-2.9493,-2.8292,-2.7708,-2.768,-2.7565,-2.7454,-2.6782,-2.5969,-2.5263,-2.4525,-2.3725,-2.302,-2.2596,-2.2347,-2.2178,-2.1681,-2.1416,-2.1358,-2.101,-2.08,-2.073,-2.0451,-2.0287,-2.0275,-1.9436,-1.8792,-1.8398,-1.7764,-1.7167,-1.6604,-1.5498,-1.4528,-1.3738,-1.3223,-1.2791,-1.2473,-1.2323,-1.2095,-1.1799,-1.1749,-1.1722,-1.1669,-1.1619,-1.1678,-1.176,-1.1477,-1.1307,-1.1399,-1.1287,-1.1214,0.0,-1.136,0.0,0.0,0.0,0.0,0.0,0.0,0.0,0.0,-1.193,-1.1718,-1.1362,-1.1311,-1.1268,-1.1114,-1.0995,-1.0986,-1.1131,-1.1545,-1.1809,-1.1614,-1.1872,-1.2175,-1.2389,-1.2161,-1.2228,-1.2684,-1.2536,-1.2541,-1.2987,-1.287,-1.2713,-1.2693,-1.2851,-1.2861,-1.2774,-1.2764,-1.2715,-1.2957,-1.3122,-1.3228,-1.3266,-1.3266,-1.3266,-1.3266,-1.3266,-1.3228,-1.3162,-1.3075,-1.292,-1.2725,-1.2421,-1.2224,-1.2126,-1.1828,-1.1469,-1.1074,-1.0972,-1.0871,-3.4888,-3.4607,-3.4372,-3.4079,-3.3678,-3.3249,-3.1884,-2.9863,-2.9622,-2.9171,-2.8542,-2.7935,-2.7499,-2.7215,-2.6815,-2.6548,-2.6344,-2.5894,-2.5628,-2.5435,-2.4648,-2.4128,-2.3923,-2.3297,-2.2892,-2.2736,-2.2218,-2.1844,-2.1703,-2.1003,-2.0584,-2.0475,-1.9952,-1.9322,-1.857,0.0,0.0,0.0,-1.4993,-1.4697,-1.4512,-1.4294,-1.3918,-1.3319,-1.3097,0.0,-1.2403,-1.2353,-1.2332,-1.2323,-1.2318,0.0,0.0,0.0,0.0,0.0,0.0,0.0,0.0,0.0,0.0,0.0,-1.4532,-1.3903,-1.3474,-1.3057,-1.2744,-1.2572,-1.2464,-1.2356,-1.2201,-1.2192,-1.2192,-1.2201,-1.2269,-1.2367,-1.2303,-1.2483,-1.2572,-1.2619,-1.2841,-1.3068,-1.3167,-1.3531,-1.3791,-1.391,-1.3962,-1.3903,-1.3698,-1.3392,-1.3104,-1.3064,-1.3074,-1.3132,-1.3324,-1.3372,-1.342,-1.3467,-1.3515,-1.3515,-1.3515,-1.3515,-1.3467,-1.3382,-1.3334,-1.319,-1.292,-1.2783,-1.2627,-1.2323,-1.2175,-1.1977,-1.1477,-1.1326,-1.1175,-3.634,0.0,-3.5723,-3.533,0.0,-3.4694,-3.3943,-3.2643,-3.1812,-3.0835,-2.9898,-2.9262,-2.8901,-2.8639,-2.805,-2.7785,-2.7765,-2.734,-2.701,-2.6816,-2.6277,-2.5949,-2.5794,-2.5295,-2.5017,-2.493,-2.4562,-2.4157,-2.361,-2.2943,-2.242,-2.2027,-2.1415,-2.0957,-2.0494,-1.9865,-1.8473,-1.6389,-1.6126,-1.5884,-1.568,-1.5526,-1.5151,-1.4686,0.0,0.0,0.0,0.0,0.0,0.0,0.0,0.0,0.0,0.0,0.0,-1.506,-1.5081,-1.506,-1.4904,-1.5153,-1.5468,-1.5829,-1.5729,-1.5246,-1.418,-1.3765,-1.3504,-1.3341,-1.3232,-1.3068,-1.2949,-1.2949,-1.2949,-1.2958,-1.3072,-1.3188,-1.3206,-1.3423,-1.3588,-1.3675,-1.3746,-1.3848,-1.4033,-1.415,-1.4364,-1.447,-1.4619,-1.4672,-1.4508,-1.4084,-1.3628,-1.3306,-1.3362,-1.3467,-1.3563,-1.361,-1.3621,-1.3668,-1.3716,-1.3668,-1.3621,-1.361,-1.3573,-1.342,-1.342,-1.3324,-1.3094,-1.3017,-1.2871,-1.2715,-1.2569,-1.2431,-1.2126,-1.1877,-1.1628,-3.7891,-3.7223,-3.707,-3.659,-3.5839,-3.5618,-3.5424,-3.5222,0.0,0.0,0.0,-3.0715,-3.0236,-2.9915,-2.913,-2.8767,-2.8741,-2.8355,-2.7998,-2.7806,-2.7575,-2.7368,-2.7201,-2.6958,-2.6816,-2.6816,-2.6708,-2.6237,-2.5575,-2.4858,-2.42,-2.3529,-2.2763,-2.2317,-2.2105,-2.1437,-1.9995,-1.7989,-1.7411,-1.7066,-1.6841,-1.6712,-1.6474,-1.6129,-1.6078,-1.5931,-1.5742,-1.5731,-1.5731,-1.5731,-1.5731,-1.5763,-1.5851,-1.5989,-1.6077,-1.6164,-1.6252,-1.6306,-1.6411,-1.6411,-1.6534,-1.6809,-1.6941,-1.6367,-1.4858,-1.4538,-1.4321,-1.4212,-1.4038,-1.3874,-1.3764,-1.3764,-1.3764,-1.3764,-1.4017,-1.4155,-1.4174,-1.4434,-1.4669,-1.4787,-1.4678,-1.4657,-1.4883,-1.483,-1.4777,-1.5032,-1.5285,-1.5415,-1.5195,-1.4821,-1.4314,-1.3831,-1.3796,-1.383,-1.3831,-1.3821,-1.3821,-1.3821,-1.381,-1.381,-1.3716,-1.3668,-1.361,-1.3515,-1.3467,-1.342,-1.3266,-1.3132,-1.3045,-1.3055,-1.291,-1.2764,-1.2764,-1.252,-1.2215,-3.8739,-3.8492,-3.8294,-3.7987,-3.768,-3.7568,-3.7093,-3.6283,-3.4302,-3.3138,-3.2697,-3.2019,-3.1567,-3.122,-3.0837,-3.0617,-3.0586,-3.0335,-2.9992,0.0,-2.9135,-2.8774,-2.8432,-2.7855,-2.7619,-2.7607,-2.7516,-2.7276,-2.695,-2.6294,-2.5768,-2.5378,-2.4336,-2.3447,-2.2791,-2.2524,-2.2179,-2.1585,-1.9918,-1.8967,-1.8799,-1.8653,-1.8334,-1.7729,-1.7461,-1.7127,-1.6711,-1.665,-1.6516,-1.6516,-1.6639,-1.6885,-1.7272,-1.7868,-1.8363,-1.8573,-1.909,-1.9275,-1.9137,-1.916,-1.9067,-1.8832,-1.8577,-1.7804,-1.6203,-1.5873,-1.576,-1.5625,-1.5444,-1.5234,-1.5119,-1.508,-1.5061,-1.509,-1.5158,-1.5206,-1.5187,-1.5245,-1.5294,-1.5294,-1.5439,-1.5505,-1.5581,-1.5703,-1.5782,-1.5946,-1.6088,-1.6279,-1.5987,-1.5521,-1.5056,-1.4623,-1.4535,-1.4376,-1.4164,-1.3984,-1.4105,-1.3973,-1.4005,-1.4026,-1.3968,-1.3947,-1.3868,-1.3773,-1.3716,-1.3658,-1.3409,-1.3372,-1.3324,-1.3228,-1.318,-1.3132,-1.3084,-1.3035,-1.2861,-3.9345,-3.9239,-3.887,-3.8688,-3.8567,-3.8374,-3.8044,-3.7488,-3.607,-3.4939,-3.4037,-3.3671,-3.3387,-3.3096,-3.2749,-3.239,-3.2071,-3.1782,-3.1248,-3.0598,-3.0322,-2.9999,-2.9731,-2.9473,-2.9315,-2.9331,-2.9123,-2.8831,-2.8324,-2.7841,-2.7402,-2.6923,-2.5936,-2.4888,-2.3877,-2.3662,-2.3393,-2.2844,-2.16,-2.0904,-2.0797,-2.069,-2.0482,-2.0048,-1.9953,-1.9777,-1.9454,-1.9389,-1.9283,-1.9177,-1.9255,-1.9364,-1.951,-1.9818,-2.0048,-2.0189,-2.0385,-2.0459,-2.0355,-2.0111,-1.9925,-1.9737,-1.9465,-1.9,-1.8239,-1.767,-1.7269,-1.6853,-1.6646,-1.6359,-1.5972,-1.5884,-1.5884,-1.5884,-1.5884,-1.5884,-1.5884,-1.5884,-1.5874,-1.5884,-1.6066,-1.6181,-1.6171,-1.6353,-1.6467,-1.6524,-1.6715,-1.68,-1.6763,-1.6689,-1.6223,-1.5356,-1.5164,-1.5189,-1.5044,-1.5132,-1.5121,-1.5023,-1.4806,-1.4559,-1.4409,-1.4222,-1.3994,-1.3915,-1.3926,-1.3868,-1.3736,-1.3668,-1.3573,-1.3515,-1.342,-1.3314,-1.3324,-1.3438,-1.3352,-3.9867,-3.9798,-3.9375,-3.911,-3.8995,-3.8827,-3.8694,-3.8479,-3.7832,-3.6878,-3.583,-3.5288,-3.4924,-3.4685,-3.4395,-3.3986,-3.3418,-3.3133,-3.2526,-3.1782,-3.1708,-3.159,-3.1366,-3.1291,-3.1188,-3.1013,-3.0862,-3.0377,-2.968,-2.9256,-2.8694,-2.7967,-2.7159,-2.6259,-2.5187,-2.494,-2.446,-2.3875,-2.3326,-2.2855,-2.2443,-2.2335,-2.2185,-2.213,-2.2063,-2.2008,-2.1873,-2.1873,-2.1831,-2.1665,-2.1622,-2.1579,-2.1481,-2.155,-2.1556,-2.1556,-2.1542,-2.1514,-2.1469,-2.1052,-2.0806,-2.0747,-2.0464,-2.0286,-2.0226,-1.9674,-1.8934,-1.818,-1.7932,-1.7547,-1.7106,-1.6974,-1.6896,-1.6885,-1.6906,-1.6937,-1.6906,-1.6838,-1.6838,-1.6827,-1.6953,-1.7022,-1.7001,-1.7069,-1.7158,-1.7305,-1.7331,-1.7445,-1.772,-1.7877,-1.7512,-1.6688,-1.6155,-1.5953,-1.6012,-1.6047,-1.6025,-1.6019,-1.5659,-1.5351,-1.5094,-1.4785,-1.4575,-1.4596,-1.4526,-1.451,-1.4398,-1.4302,-1.4237,-1.422,-1.4132,-1.3913,-1.3906,-1.4072,-1.4043,-4.0337,-4.0205,-3.9781,-3.9456,-3.922,-3.9176,-3.9152,-3.9152,-3.9016,-3.8821,-3.8176,-3.6389,-3.5498,-3.532,-3.5216,-3.5039,-3.4716,-3.457,-3.4275,-3.3979,-3.3817,-3.3638,-3.3397,-3.3306,-3.2886,-3.2387,-3.2169,-3.1679,-3.0852,-3.0134,-2.9377,-2.8425,-2.7722,-2.7267,-2.686,-2.6254,-2.5835,-2.5671,-2.5616,-2.4803,-2.3295,-2.307,-2.2977,-2.2977,-2.2858,-2.2831,-2.2844,-2.2818,-2.2778,-2.2764,-2.267,-2.2576,-2.2574,-2.2884,-2.3002,-2.2876,-2.3244,-2.3423,-2.3166,-2.282,-2.2517,-2.2372,-2.2201,-2.203,-2.1932,-2.1882,-2.1099,-1.9826,-1.9338,-1.9115,-1.8806,-1.8681,-1.8577,-1.8447,-1.849,-1.8589,-1.8512,-1.8578,-1.8507,-1.8304,-1.8257,-1.8244,-1.8077,-1.8006,-1.8169,-1.8344,-1.8392,-1.8522,-1.8829,-1.9016,-1.9145,-1.8758,-1.7946,-1.6924,-1.6575,-1.6294,-1.6582,-1.644,-1.6294,-1.6317,-1.6277,-1.616,-1.6037,-1.5886,-1.5785,-1.5734,-1.5582,-1.5367,-1.5295,-1.5316,-1.5213,-1.5162,-1.51,-1.5153,-1.5029,-4.0884,-4.0806,-4.034,-4.0003,-3.975,-3.9766,-3.9747,-3.9747,-3.9644,-3.9573,-3.9348,-3.8385,-3.7688,-3.715,-3.7013,-3.6653,-3.623,-3.6086,-3.5597,-3.4966,-3.4878,-3.4647,-3.4355,-3.4222,-3.4007,-3.3701,-3.3425,-3.2945,-3.2135,-3.1275,-3.0436,-2.9604,-2.9224,-2.8749,-2.8219,-2.7833,-2.7578,-2.7578,-2.7481,-2.7058,-2.6327,-2.5298,-2.4775,-2.4761,-2.4653,-2.4585,-2.4531,-2.4504,-2.4395,-2.4272,-2.4231,-2.4121,-2.4079,-2.4238,-2.4246,-2.4203,-2.4134,-2.4092,-2.3956,-2.376,-2.3475,-2.3198,-2.309,-2.2909,-2.2726,-2.2726,-2.2371,-2.174,-2.0986,-2.0274,-1.983,-1.9643,-1.9595,-1.9477,-1.9417,-1.938,-1.9298,-1.938,-1.9298,-1.9119,-1.9108,-1.901,-1.8819,-1.8808,-1.8868,-1.8999,-1.907,-1.9295,-1.9499,-1.9643,-1.9831,-1.9878,-1.9354,-1.8937,-1.849,-1.8525,-1.849,-1.8389,-1.8205,-1.8032,-1.7844,-1.7615,-1.7425,-1.7243,-1.719,-1.7084,-1.6977,-1.651,-1.6273,-1.6374,-1.6352,-1.6341,-1.6563,-1.6637,-1.661,-4.1593,-4.129,-4.0848,-4.0534,-4.0374,-4.0351,-4.0337,-4.032,-4.0238,-4.0138,-4.0087,-3.9935,-3.9558,-3.8936,-3.8606,-3.8121,-3.7671,-3.7501,-3.7014,-3.6326,-3.6238,-3.6014,-3.5655,-3.5571,-3.5346,-3.5074,-3.4734,-3.4127,-3.3215,-3.244,-3.1622,-3.0881,-3.0499,-3.0004,-2.9392,-2.909,-2.8917,-2.8846,-2.8779,-2.8722,-2.8465,-2.7422,-2.6731,-2.6565,-2.6455,-2.6385,-2.6399,-2.6302,-2.6204,-2.6063,-2.5993,-2.595,-2.5837,-2.578,-2.5766,-2.5679,-2.5337,-2.5105,-2.5074,-2.4938,-2.4715,-2.4424,-2.4201,-2.3978,-2.3761,-2.3573,-2.3424,-2.3301,-2.2511,-2.1748,-2.1032,-2.0842,-2.0783,-2.0665,-2.0535,-2.0427,-2.0451,-2.0356,-2.0342,-2.0188,-2.028,-2.0067,-1.9886,-1.981,-1.9855,-1.9894,-2.0053,-2.0139,-2.0308,-2.051,-2.0748,-2.0901,-2.096,-2.0734,-2.024,-2.0005,-2.0239,-2.0111,-1.9665,-1.9465,-1.9434,-1.9083,-1.8853,-1.8719,-1.8585,-1.8462,-1.8362,-1.7956,-1.7556,-1.7711,-1.7707,-1.7564,-1.7733,-1.7836,-1.7916,-4.2665,-4.1675,-4.1163,-4.0972,-4.0961,-4.0913,-4.0888,-4.0871,-4.0823,-4.0758,-4.058,-4.0563,-4.0466,-4.0252,-3.9662,-3.9189,-3.8924,-3.8854,-3.8657,-3.8339,-3.8205,-3.8084,-3.7962,-3.769,-3.715,-3.653,-3.6211,-3.5336,-3.3836,-3.3542,-3.2905,-3.1951,-3.1374,-3.0845,-3.0473,-2.9993,-2.951,-2.9535,-2.9495,-2.9351,-2.9171,-2.9028,-2.8677,-2.824,-2.8097,-2.7969,-2.7997,-2.804,-2.8026,-2.804,-2.7797,-2.7767,-2.7781,-2.7651,-2.7521,-2.7374,-2.7106,-2.6927,-2.69,-2.6767,-2.6586,-2.6398,-2.5821,-2.5507,-2.5348,-2.4773,-2.4464,-2.4274,-2.4138,-2.3682,-2.3002,-2.2685,-2.2504,-2.2274,-2.2213,-2.214,-2.2053,-2.1945,-2.1954,-2.1758,-2.1675,-2.1454,-2.13,-2.1215,-2.11,-2.1214,-2.1397,-2.1561,-2.1625,-2.1993,-2.2153,-2.2214,-2.2298,-2.2115,-2.0967,-2.0827,-2.0767,-2.0767,-2.0792,-2.0541,-2.0447,-2.0296,-2.0226,-2.0111,-1.9983,-1.9913,-1.9785,-1.9575,-1.9283,-1.9208,-1.9101,-1.9033,-1.8951,-1.8709,-1.8757,-4.3894,-4.2739,-4.199,-4.1613,-4.1446,-4.1437,-4.1391,-4.1335,-4.1335,-4.1318,-4.1255,-4.1209,-4.1163,-4.1053,-4.0707,-4.0286,-3.9867,-3.9764,-3.9609,-3.9398,-3.9292,-3.9044,-3.8827,-3.8623,-3.8302,-3.7891,-3.7657,-3.6835,-3.5663,-3.5077,-3.4344,-3.3488,-3.3036,-3.2545,-3.1949,-3.1564,-3.1348,-3.1197,-3.1102,-3.0975,-3.0791,-3.0678,-3.055,-3.0277,-2.9214,-2.8595,-2.8497,-2.844,-2.8326,-2.8211,-2.8154,-2.814,-2.814,-2.8082,-2.8024,-2.7995,-2.8064,-2.7961,-2.7731,-2.7931,-2.7827,-2.7322,-2.7055,-2.6858,-2.664,-2.639,-2.6208,-2.6181,-2.6194,-2.5926,-2.5422,-2.4326,-2.3412,-2.3339,-2.3233,-2.3175,-2.303,-2.2982,-2.286,-2.2592,-2.2445,-2.2249,-2.2221,-2.1987,-2.1975,-2.1925,-2.2099,-2.2309,-2.242,-2.2665,-2.2958,-2.3042,-2.309,-2.3037,-2.2711,-2.2159,-2.1981,-2.1993,-2.1993,-2.1896,-2.18,-2.1727,-2.1691,-2.1427,-2.1296,-2.12,-2.1104,-2.0941,-2.0673,-2.0335,-2.0247,-2.0245,-2.012,-1.9845,-1.9776,-4.4932,-4.4079,-4.3404,-4.3012,-4.2822,-4.2786,-4.2587,-4.2324,-4.2263,-4.2121,-4.1866,-4.1866,-4.1762,-4.1701,-4.1569,-4.1255,-4.0806,-4.0517,-4.0271,-4.0121,-4.002,-3.9799,-3.9592,-3.9398,-3.9185,-3.9007,-3.8733,-3.8066,-3.7125,-3.6516,-3.5758,-3.4832,-3.4652,-3.4235,-3.3646,-3.3419,-3.3268,-3.3172,-3.3059,-3.289,-3.2688,-3.2361,-3.2213,-3.1947,-3.0731,-2.9829,-2.9576,-2.9405,-2.929,-2.916,-2.9175,-2.9103,-2.916,-2.9045,-2.9045,-2.9073,-2.9203,-2.9173,-2.8913,-2.9129,-2.9099,-2.8635,-2.8349,-2.8177,-2.8032,-2.7804,-2.7706,-2.7692,-2.7633,-2.7575,-2.7259,-2.6126,-2.5127,-2.4833,-2.4609,-2.4502,-2.4408,-2.4374,-2.4253,-2.4022,-2.3826,-2.3603,-2.3468,-2.3368,-2.3269,-2.3182,-2.3294,-2.3418,-2.3542,-2.3727,-2.3971,-2.4179,-2.4243,-2.433,-2.4288,-2.3971,-2.3213,-2.3138,-2.2967,-2.3019,-2.3045,-2.3021,-2.2947,-2.2714,-2.2543,-2.2468,-2.239,-2.2218,-2.1914,-2.1424,-2.1346,-2.1279,-2.1129,-2.0899,-2.0812,-4.5772,-4.5548,-4.5355,-4.5073,-4.4845,-4.48,-4.4507,-4.3814,-4.3678,-4.3225,-4.2611,-4.2422,-4.2399,-4.2269,-4.2127,-4.2002,-4.1744,-4.1226,-4.0836,-4.0628,-4.0549,-4.0419,-4.0288,-4.0037,-3.9884,-3.9833,-3.9435,-3.8805,-3.8051,-3.774,-3.7134,-3.6388,-3.5991,-3.5678,-3.5545,-3.5292,-3.5205,-3.5061,-3.4958,-3.4908,-3.467,-3.3991,-3.364,-3.3439,-3.2655,-3.191,-3.1409,-3.1116,-3.0911,-3.094,-3.0955,-3.1043,-3.0852,-3.0734,-3.0689,-3.0601,-3.0615,-3.0584,-3.054,-3.0511,-3.0468,-3.0292,-2.9929,-2.9581,-2.9508,-2.9016,-2.8684,-2.8713,-2.8627,-2.8441,-2.8469,-2.8268,-2.7708,-2.6788,-2.6431,-2.6385,-2.627,-2.635,-2.6316,-2.595,-2.5638,-2.5545,-2.5495,-2.5152,-2.4886,-2.4912,-2.495,-2.5,-2.5075,-2.5249,-2.5569,-2.5769,-2.5647,-2.5564,-2.5713,-2.5782,-2.487,-2.4159,-2.3961,-2.3854,-2.3895,-2.386,-2.3788,-2.364,-2.3418,-2.3293,-2.3376,-2.3192,-2.3135,-2.2779,-2.2592,-2.2368,-2.2174,-2.1981,-2.1661,-4.6909,-4.6746,-4.6122,-4.5736,-4.5585,-4.5547,-4.5344,-4.5031,-4.4992,-4.4517,-4.3788,-4.3677,-4.3348,-4.2781,-4.2573,-4.2454,-4.2351,-4.2068,-4.1709,-4.1346,-4.1071,-4.0977,-4.0901,-4.068,-4.0485,-4.0288,-4.007,-3.9766,-3.9359,-3.9206,-3.8683,-3.7862,-3.7557,-3.7032,-3.6446,-3.6206,-3.6045,-3.5844,-3.5844,-3.5719,-3.5451,-3.5166,-3.4999,-3.4888,-3.446,-3.4141,-3.3809,-3.2352,-3.1554,-3.1424,-3.1292,-3.1176,-3.1146,-3.1028,-3.1014,-3.1028,-3.1058,-3.1102,-3.1102,-3.1161,-3.1249,-3.119,-3.1012,-3.0908,-3.0878,-3.0715,-3.0582,-3.0524,-3.0539,-3.0482,-3.0366,-3.0366,-2.9566,-2.7745,-2.7544,-2.7555,-2.7345,-2.7171,-2.6982,-2.6816,-2.6695,-2.6526,-2.6356,-2.6184,-2.6126,-2.5926,-2.5988,-2.6064,-2.6087,-2.629,-2.6342,-2.6553,-2.6566,-2.6714,-2.6835,-2.6916,-2.6505,-2.5707,-2.534,-2.4875,-2.4853,-2.4658,-2.46,-2.4579,-2.4355,-2.423,-2.4238,-2.4218,-2.412,-2.3916,-2.3651,-2.3465,-2.328,-2.3006,-2.2669,-4.8159,-4.7986,-4.7488,-4.7126,-4.6948,-4.6929,-4.6745,-4.6415,-4.6342,-4.57,-4.4747,-4.451,-4.398,-4.3269,-4.3069,-4.2939,-4.2862,-4.275,-4.2476,-4.2068,-4.1657,-4.148,-4.1418,-4.1272,-4.0995,-4.0806,-4.0662,-4.0517,-4.0305,-4.0171,-3.9834,-3.9278,-3.8992,-3.8587,-3.788,-3.7708,-3.7482,-3.7322,-3.7285,-3.7145,-3.6972,-3.667,-3.6432,-3.6236,-3.5847,-3.557,-3.5284,-3.3892,-3.2966,-3.268,-3.2462,-3.236,-3.2258,-3.2228,-3.2094,-3.1946,-3.2183,-3.2345,-3.2285,-3.2551,-3.2622,-3.2622,-3.2622,-3.2637,-3.2622,-3.2622,-3.2561,-3.2319,-3.2201,-3.211,-3.1769,-3.1709,-3.1019,-2.9752,-2.9276,-2.9,-2.8706,-2.8514,-2.8408,-2.8344,-2.821,-2.8,-2.7817,-2.7571,-2.7434,-2.7247,-2.7198,-2.726,-2.7323,-2.7474,-2.7557,-2.7742,-2.7968,-2.8085,-2.7974,-2.7974,-2.7974,-2.7441,-2.6864,-2.631,-2.5906,-2.559,-2.538,-2.5543,-2.5458,-2.532,-2.5329,-2.5278,-2.5215,-2.495,-2.4637,-2.4254,-2.3976,-2.3814,-2.3562,-4.9334,-4.923,-4.9193,-4.8982,-4.8795,-4.8795,-4.8367,-4.7828,-4.7667,-4.6743,-4.5434,-4.5097,-4.4475,-4.376,-4.3513,-4.341,-4.3303,-4.3232,-4.3124,-4.2808,-4.2378,-4.2026,-4.1874,-4.1719,-4.1498,-4.1255,-4.1209,-4.1117,-4.0918,-4.0741,-4.058,-4.0431,-4.0118,-3.9986,-3.9631,-3.9542,-3.9304,-3.9201,-3.9163,-3.9003,-3.8896,-3.8385,-3.7949,-3.7633,-3.7004,-3.6567,-3.6367,-3.5966,-3.5322,-3.4632,-3.4186,-3.4053,-3.4132,-3.4089,-3.3712,-3.32,-3.3846,-3.3994,-3.3994,-3.4137,-3.4345,-3.4315,-3.4315,-3.4546,-3.4345,-3.4237,-3.4083,-3.3666,-3.3604,-3.3316,-3.2838,-3.273,-3.2527,-3.2181,-3.1185,-3.0646,-3.0629,-3.0392,-3.0067,-3.0018,-2.9964,-2.978,-2.9482,-2.9247,-2.9059,-2.8933,-2.8702,-2.857,-2.8634,-2.874,-2.9087,-2.9171,-2.9114,-2.9119,-2.8904,-2.8904,-2.8904,-2.8717,-2.8249,-2.7708,-2.7155,-2.6773,-2.6459,-2.6535,-2.6463,-2.6401,-2.6321,-2.6219,-2.608,-2.5812,-2.544,-2.4962,-2.4755,-2.473,-2.4627,-4.9683,-4.9555,-4.9574,-4.9464,-4.9289,-4.9289,-4.9158,-4.8971,-4.8883,-4.7822,-4.6582,-4.6265,-4.5294,-4.4029,-4.3902,-4.3822,-4.3749,-4.3609,-4.3508,-4.3389,-4.3124,-4.2655,-4.2315,-4.2044,-4.1892,-4.1744,-4.1657,-4.156,-4.1408,-4.1272,-4.1134,-4.1024,-4.0853,-4.0645,-4.0451,-4.0254,-4.0188,-4.0087,-3.9918,-3.985,-3.9782,-3.9545,-3.9341,-3.9151,-3.8745,-3.8434,-3.8231,-3.7942,-3.6894,-3.52,-3.4951,-3.4909,-3.4872,-3.4814,-3.4543,-3.406,-3.455,-3.506,-3.5253,-3.5247,-3.521,-3.5162,-3.5304,-3.5162,-3.5178,-3.5178,-3.5084,-3.4911,-3.4911,-3.4816,-3.4628,-3.4565,-3.421,-3.3463,-3.2357,-3.1482,-3.1321,-3.119,-3.1087,-3.0851,-3.0732,-3.0553,-3.0387,-3.0144,-2.9946,-2.9822,-2.9532,-2.9393,-2.947,-2.9518,-2.9642,-2.9775,-2.9813,-2.9856,-2.987,-2.987,-2.9842,-2.9785,-2.9534,-2.9251,-2.8726,-2.8269,-2.7981,-2.786,-2.7455,-2.7288,-2.7157,-2.7059,-2.686,-2.6611,-2.6371,-2.5937,-2.5983,-2.594,-2.5766,-5.0005,-4.9871,-4.9871,-4.9788,-4.9607,-4.9625,-4.9625,-4.9521,-4.9152,-4.8294,-4.7136,-4.6494,-4.5563,-4.4362,-4.4251,-4.4191,-4.4147,-4.3974,-4.3881,-4.3823,-4.3579,-4.316,-4.2711,-4.2472,-4.231,-4.2169,-4.2103,-4.1995,-4.1805,-4.1719,-4.1587,-4.1436,-4.1426,-4.1244,-4.0931,-4.0836,-4.0758,-4.0648,-4.0485,-4.0436,-4.0436,-4.0288,-4.0188,-4.0037,-3.9867,-3.9661,-3.9345,-3.9115,-3.8253,-3.6902,-3.646,-3.6388,-3.6331,-3.6216,-3.5928,-3.5394,-3.6011,-3.6644,-3.6917,-3.6789,-3.6702,-3.6702,-3.6686,-3.6702,-3.6678,-3.6614,-3.6582,-3.627,-3.6238,-3.6023,-3.5728,-3.5625,-3.5269,-3.4636,-3.3581,-3.2665,-3.1996,-3.1879,-3.1724,-3.1495,-3.1394,-3.1336,-3.1043,-3.0732,-3.0598,-3.0404,-3.009,-3.0058,-3.0086,-3.0043,-3.0043,-3.0251,-3.0416,-3.0476,-3.0476,-3.0476,-3.0416,-3.0401,-3.028,-3.0083,-2.9775,-2.931,-2.8967,-2.8607,-2.8403,-2.8183,-2.7921,-2.7656,-2.7417,-2.7165,-2.7053,-2.693,-2.6794,-2.6658,-2.6465,-5.0255,-5.0133,-5.0133,-5.0057,-4.9933,-4.9952,-4.9933,-4.9754,-4.9019,-4.8132,-4.7254,-4.6278,-4.5469,-4.4651,-4.4543,-4.4533,-4.4496,-4.4308,-4.4242,-4.4114,-4.3886,-4.3526,-4.3232,-4.29,-4.2765,-4.2631,-4.2512,-4.2351,-4.2187,-4.2145,-4.2019,-4.1849,-4.1823,-4.171,-4.1471,-4.13,-4.1244,-4.1123,-4.0965,-4.0918,-4.0918,-4.0776,-4.0662,-4.0534,-4.0387,-4.0138,-3.9867,-3.9713,-3.9315,-3.8583,-3.8359,-3.8141,-3.8117,-3.8035,-3.7792,-3.7584,-3.7746,-3.8262,-3.8659,-3.8423,-3.839,-3.8293,-3.8325,-3.8488,-3.8325,-3.8188,-3.7978,-3.7475,-3.7481,-3.7145,-3.6648,-3.6265,-3.6059,-3.5735,-3.5186,-3.4162,-3.3076,-3.2609,-3.2398,-3.215,-3.2094,-3.191,-3.161,-3.1306,-3.1087,-3.1014,-3.0704,-3.0526,-3.0598,-3.0628,-3.0613,-3.0687,-3.0836,-3.1028,-3.1028,-3.1028,-3.0969,-3.0895,-3.0702,-3.0507,-3.0219,-2.9837,-2.9477,-2.924,-2.8972,-2.8702,-2.8444,-2.8183,-2.7855,-2.7656,-2.7523,-2.7268,-2.7079,-2.693,-2.6794,-5.0464,-5.0435,-5.0435,-5.0348,-5.0212,-5.0231,-5.0163,-5.0043,-4.9181,-4.8275,-4.7447,-4.6499,-4.5634,-4.4914,-4.4794,-4.4742,-4.47,-4.4587,-4.4497,-4.4393,-4.421,-4.4072,-4.3823,-4.3444,-4.316,-4.3031,-4.2842,-4.2706,-4.2609,-4.2432,-4.2269,-4.2187,-4.2103,-4.1995,-4.1902,-4.1736,-4.1648,-4.1622,-4.1426,-4.1307,-4.129,-4.118,-4.1041,-4.0935,-4.0745,-4.0551,-4.0387,-4.0238,-4.0037,-3.9696,-3.9259,-3.8974,-3.892,-3.892,-3.8783,-3.8614,-3.8767,-3.9106,-3.9379,-3.9209,-3.9007,-3.9044,-3.9007,-3.9061,-3.9007,-3.8914,-3.8794,-3.8614,-3.8575,-3.8341,-3.8019,-3.7574,-3.7254,-3.695,-3.6395,-3.561,-3.4707,-3.3731,-3.3105,-3.2726,-3.2602,-3.2477,-3.212,-3.191,-3.1724,-3.1537,-3.1276,-3.1013,-3.1087,-3.1176,-3.1102,-3.1058,-3.1073,-3.1205,-3.1205,-3.1205,-3.119,-3.119,-3.1058,-3.094,-3.0628,-3.0341,-3.0036,-2.9803,-2.9554,-2.9289,-2.8958,-2.8638,-2.8379,-2.8118,-2.7908,-2.7723,-2.7456,-2.7323,-2.7121,-5.07,-5.0644,-5.0644,-5.0566,-5.0462,-5.0438,-5.0186,-4.9644,-4.8834,-4.7926,-4.7018,-4.6134,-4.5479,-4.5076,-4.4981,-4.4957,-4.4919,-4.4819,-4.4701,-4.4613,-4.4477,-4.4383,-4.4429,-4.4271,-4.4073,-4.3536,-4.316,-4.3013,-4.2956,-4.2822,-4.2688,-4.253,-4.2432,-4.231,-4.2222,-4.2079,-4.1995,-4.1927,-4.1797,-4.1684,-4.1648,-4.1542,-4.1363,-4.1244,-4.1059,-4.0871,-4.0793,-4.0697,-4.0583,-4.0436,-4.0104,-3.9782,-3.9644,-3.9627,-3.9492,-3.9323,-3.9475,-3.9728,-3.9914,-3.983,-3.9627,-3.9627,-3.9644,-3.9592,-3.954,-3.9451,-3.9398,-3.9345,-3.9222,-3.9169,-3.9007,-3.8543,-3.8226,-3.8025,-3.7465,-3.6824,-3.6283,-3.5057,-3.3821,-3.3425,-3.314,-3.2942,-3.2742,-3.2468,-3.2231,-3.2033,-3.1762,-3.1504,-3.1407,-3.1482,-3.1351,-3.1336,-3.1307,-3.1307,-3.1307,-3.1307,-3.1307,-3.1307,-3.1234,-3.1176,-3.1058,-3.0762,-3.0536,-3.028,-2.9974,-2.9727,-2.9387,-2.9149,-2.8894,-2.8702,-2.8444,-2.817,-2.7908,-2.7709,-2.759,-5.0925,-5.0825,-5.0844,-5.0754,-5.0644,-5.0491,-5.0009,-4.9278,-4.818,-4.7333,-4.6524,-4.5619,-4.529,-4.5148,-4.5125,-4.5125,-4.5084,-4.501,-4.4895,-4.4821,-4.4712,-4.4791,-4.4936,-4.5113,-4.5097,-4.4179,-4.3842,-4.3649,-4.3541,-4.3251,-4.3031,-4.288,-4.286,-4.2709,-4.2512,-4.2409,-4.2328,-4.2246,-4.2139,-4.203,-4.2012,-4.1909,-4.1692,-4.1515,-4.1363,-4.129,-4.1215,-4.1123,-4.1093,-4.0965,-4.0823,-4.0614,-4.037,-4.0154,-4.007,-3.9851,-3.9986,-4.0206,-4.0391,-4.0307,-4.0121,-4.0171,-4.0121,-4.007,-4.0037,-3.9935,-3.9884,-3.9781,-3.9677,-3.959,-3.9379,-3.9119,-3.8957,-3.8821,-3.8393,-3.806,-3.7629,-3.6401,-3.5259,-3.4182,-3.3946,-3.3752,-3.3335,-3.3011,-3.2765,-3.2532,-3.2266,-3.2043,-3.1894,-3.1724,-3.1652,-3.1625,-3.1582,-3.1597,-3.1597,-3.1597,-3.1597,-3.1539,-3.1467,-3.1409,-3.1409,-3.1161,-3.0925,-3.0628,-3.0387,-3.0129,-2.9884,-2.9637,-2.9387,-2.9212,-2.8958,-2.861,-2.8417,-2.817,-2.8039,-5.1101,-5.1056,-5.0995,-5.0952,-5.0809,-5.011,-4.9674,-4.9197,-4.7721,-4.6916,-4.6608,-4.5783,-4.538,-4.5338,-4.5297,-4.5218,-4.5137,-4.5068,-4.5038,-4.5033,-4.4933,-4.5111,-4.5722,-4.5865,-4.5998,-4.6064,-4.5454,-4.4857,-4.4497,-4.3899,-4.3522,-4.3233,-4.3142,-4.3013,-4.2862,-4.2765,-4.2688,-4.2609,-4.245,-4.2369,-4.231,-4.2145,-4.1995,-4.1884,-4.1736,-4.1692,-4.1604,-4.1471,-4.1335,-4.1335,-4.118,-4.1071,-4.0931,-4.0645,-4.0434,-4.0351,-4.0434,-4.0603,-4.0705,-4.0588,-4.0436,-4.0436,-4.0485,-4.0436,-4.0387,-4.0305,-4.0255,-4.0155,-3.9986,-3.9849,-3.9677,-3.9504,-3.9504,-3.9454,-3.9265,-3.8913,-3.838,-3.7725,-3.679,-3.5587,-3.514,-3.4671,-3.4302,-3.3948,-3.3751,-3.3356,-3.2796,-3.2631,-3.2486,-3.2211,-3.1905,-3.1879,-3.1925,-3.1925,-3.194,-3.1883,-3.1883,-3.1826,-3.1769,-3.1769,-3.1655,-3.1567,-3.1321,-3.1102,-3.0866,-3.0582,-3.0387,-3.0129,-2.9946,-2.9775,-2.9449,-2.9121,-2.8994,-2.8803,-2.8624,-5.1211,-5.115,-5.1117,-5.1093,-5.0927,-5.0051,-4.9374,-4.8767,-4.7494,-4.6619,-4.6163,-4.5704,-4.5476,-4.5458,-4.5376,-4.5297,-4.5237,-4.5173,-4.5148,-4.5125,-4.5095,-4.5423,-4.6271,-4.6422,-4.7097,-4.741,-4.7023,-4.6307,-4.5774,-4.4864,-4.4309,-4.4081,-4.3718,-4.3391,-4.3232,-4.305,-4.3031,-4.2956,-4.2786,-4.2652,-4.2652,-4.2454,-4.2328,-4.2205,-4.2121,-4.2037,-4.1952,-4.1849,-4.1736,-4.171,-4.1604,-4.1542,-4.1408,-4.1209,-4.0913,-4.075,-4.0802,-4.0836,-4.0935,-4.0819,-4.0884,-4.0802,-4.0819,-4.0853,-4.0823,-4.0745,-4.0648,-4.0502,-4.0337,-4.0138,-4.0054,-3.9867,-3.9764,-3.9781,-3.9711,-3.9475,-3.9156,-3.8952,-3.8098,-3.6999,-3.6413,-3.5945,-3.5509,-3.5154,-3.4846,-3.426,-3.3527,-3.3263,-3.3177,-3.2669,-3.2247,-3.2176,-3.2165,-3.2109,-3.2109,-3.2165,-3.2181,-3.2124,-3.2053,-3.1996,-3.194,-3.1811,-3.1754,-3.164,-3.1366,-3.0999,-3.0821,-3.0628,-3.0447,-3.0326,-3.0007,-2.9685,-2.9574,-2.9449,-2.9261,-5.1296,-5.1215,-5.1023,-5.0957,-5.0782,-4.9703,-4.8807,-4.807,-4.7154,-4.6345,-4.5722,-4.5635,-4.5603,-4.5532,-4.5438,-4.5397,-4.5395,-4.5275,-4.5254,-4.5213,-4.5167,-4.5536,-4.6326,-4.7087,-4.7749,-4.8285,-4.856,-4.8029,-4.6925,-4.5761,-4.5281,-4.4819,-4.4198,-4.373,-4.3582,-4.3444,-4.3339,-4.3268,-4.316,-4.3032,-4.2957,-4.2824,-4.267,-4.2552,-4.249,-4.2391,-4.231,-4.2228,-4.2145,-4.2079,-4.1995,-4.1866,-4.1805,-4.1631,-4.1366,-4.1126,-4.1168,-4.1122,-4.1111,-4.1076,-4.1163,-4.118,-4.1209,-4.118,-4.1215,-4.1169,-4.1093,-4.084,-4.0728,-4.0566,-4.0436,-4.0171,-4.007,-4.0037,-4.002,-3.9849,-3.9731,-3.9562,-3.9326,-3.8452,-3.773,-3.7077,-3.6561,-3.6108,-3.5788,-3.5492,-3.4771,-3.4222,-3.399,-3.3084,-3.2647,-3.2459,-3.2388,-3.2333,-3.2333,-3.2388,-3.2404,-3.2404,-3.2333,-3.2206,-3.2165,-3.2038,-3.1996,-3.194,-3.1712,-3.1351,-3.1234,-3.1058,-3.0866,-3.0687,-3.0447,-3.0266,-3.0129,-3.0007,-2.9884,-5.1377,-5.1283,-5.0483,-5.0147,-4.9882,-4.8448,-4.766,-4.7373,-4.6518,-4.597,-4.5786,-4.5761,-4.57,-4.5599,-4.5531,-4.5477,-4.5419,-4.5399,-4.5359,-4.5338,-4.5273,-4.563,-4.6409,-4.7215,-4.7897,-4.859,-4.9246,-4.906,-4.7974,-4.6523,-4.5675,-4.5368,-4.4673,-4.4091,-4.3942,-4.3828,-4.373,-4.3664,-4.3563,-4.3426,-4.3286,-4.3196,-4.3069,-4.2957,-4.2882,-4.2824,-4.2729,-4.2613,-4.2512,-4.249,-4.2328,-4.2205,-4.2079,-4.2079,-4.1846,-4.156,-4.1393,-4.1279,-4.1457,-4.1387,-4.1398,-4.1478,-4.1478,-4.1471,-4.1488,-4.1533,-4.1426,-4.1146,-4.1117,-4.1041,-4.0823,-4.068,-4.0583,-4.0502,-4.0372,-4.0222,-4.0087,-4.002,-3.9767,-3.9682,-3.8907,-3.8119,-3.7501,-3.7065,-3.673,-3.6453,-3.6092,-3.554,-3.4707,-3.3808,-3.3022,-3.2804,-3.2718,-3.2664,-3.2609,-3.2664,-3.2679,-3.2679,-3.2554,-3.2484,-3.2428,-3.2333,-3.2206,-3.2094,-3.1925,-3.1739,-3.161,-3.1437,-3.1278,-3.1161,-3.0925,-3.0807,-3.0687,-3.0568,-3.0433,-5.0261,-5.0582,-4.9712,-4.9328,-4.9151,-4.7963,-4.7431,-4.7174,-4.6416,-4.5994,-4.5925,-4.5874,-4.5805,-4.5719,-4.5654,-4.5584,-4.5513,-4.5477,-4.5438,-4.54,-4.5416,-4.5717,-4.6361,-4.6847,-4.7462,-4.8549,-4.9131,-4.9409,-4.8575,-4.756,-4.6497,-4.6186,-4.5125,-4.4393,-4.4277,-4.417,-4.4091,-4.3999,-4.3892,-4.3763,-4.3664,-4.3615,-4.3495,-4.3338,-4.3321,-4.3232,-4.3124,-4.2995,-4.29,-4.2824,-4.2691,-4.2609,-4.249,-4.2409,-4.2274,-4.2151,-4.1941,-4.1894,-4.1947,-4.178,-4.178,-4.1842,-4.1807,-4.1771,-4.1815,-4.1815,-4.1754,-4.1542,-4.1542,-4.1408,-4.1244,-4.114,-4.1,-4.0905,-4.0779,-4.0617,-4.0453,-4.0337,-4.0187,-4.0171,-4.0037,-3.9261,-3.8623,-3.8403,-3.8114,-3.787,-3.7445,-3.6878,-3.5716,-3.4398,-3.3699,-3.3112,-3.3096,-3.3096,-3.3043,-3.2989,-3.2935,-3.2951,-3.2843,-3.2718,-3.2718,-3.2609,-3.2484,-3.2428,-3.2373,-3.2247,-3.1992,-3.1838,-3.1697,-3.1582,-3.1467,-3.1336,-3.1219,-3.1146,-3.1087,-4.8945,-4.9389,-4.8777,-4.8493,-4.8385,-4.7562,-4.7158,-4.6999,-4.6411,-4.6095,-4.6035,-4.5972,-4.5887,-4.5844,-4.5776,-4.5731,-4.5651,-4.5584,-4.5513,-4.5457,-4.5477,-4.5704,-4.6122,-4.6421,-4.7099,-4.8324,-4.8814,-4.9131,-4.9024,-4.8219,-4.7189,-4.7089,-4.5421,-4.4745,-4.456,-4.4458,-4.4355,-4.4269,-4.4188,-4.4097,-4.4036,-4.3986,-4.3923,-4.3809,-4.3744,-4.3627,-4.3493,-4.3426,-4.3339,-4.3196,-4.3124,-4.3032,-4.2938,-4.2824,-4.2709,-4.2573,-4.2454,-4.2463,-4.2371,-4.227,-4.2168,-4.2186,-4.2192,-4.2157,-4.2139,-4.2157,-4.2097,-4.1977,-4.1952,-4.1823,-4.1648,-4.155,-4.1461,-4.1279,-4.1128,-4.097,-4.0858,-4.0697,-4.0534,-4.0436,-4.0337,-4.0337,-3.985,-3.9783,-3.956,-3.9385,-3.8858,-3.8154,-3.662,-3.4923,-3.4217,-3.3571,-3.3539,-3.3555,-3.345,-3.3398,-3.3309,-3.3203,-3.3096,-3.3043,-3.3043,-3.2989,-3.2827,-3.2827,-3.2827,-3.2664,-3.2428,-3.2206,-3.2053,-3.1883,-3.1697,-3.1754,-3.1682,-3.1667,-3.161,-4.7734,-4.7773,-4.7715,-4.7651,-4.7549,-4.671,-4.6377,-4.6398,-4.6261,-4.6154,-4.6104,-4.6037,-4.5956,-4.591,-4.5893,-4.5854,-4.5786,-4.5731,-4.5651,-4.5584,-4.5551,-4.5554,-4.5802,-4.6162,-4.6577,-4.7064,-4.8071,-4.8805,-4.8819,-4.8205,-4.7618,-4.7226,-4.5691,-4.5029,-4.477,-4.4674,-4.4621,-4.456,-4.4496,-4.4449,-4.4421,-4.4345,-4.4279,-4.4221,-4.4132,-4.406,-4.403,-4.3892,-4.3781,-4.3646,-4.3579,-4.3442,-4.3286,-4.3232,-4.3105,-4.2958,-4.2902,-4.2899,-4.2876,-4.2602,-4.2458,-4.2517,-4.258,-4.253,-4.249,-4.253,-4.2472,-4.2351,-4.231,-4.2228,-4.2044,-4.1934,-4.1823,-4.171,-4.1533,-4.1353,-4.1215,-4.1076,-4.0935,-4.0745,-4.0648,-4.0583,-4.0485,-4.0288,-4.0037,-3.9764,-3.9004,-3.8231,-3.6781,-3.5279,-3.459,-3.4149,-3.405,-3.4,-3.3899,-3.3797,-3.3745,-3.3658,-3.3539,-3.3503,-3.345,-3.3361,-3.3203,-3.315,-3.3081,-3.2989,-3.2843,-3.2609,-3.2388,-3.2109,-3.1996,-3.2038,-3.2038,-3.1981,-3.1925,-4.6816,-4.6816,-4.6816,-4.6775,-4.6744,-4.6424,-4.6273,-4.6255,-4.6265,-4.6209,-4.6169,-4.6091,-4.6065,-4.6037,-4.6026,-4.5972,-4.5873,-4.5835,-4.5771,-4.57,-4.5618,-4.5549,-4.5649,-4.5783,-4.6086,-4.6674,-4.7739,-4.8632,-4.8914,-4.8109,-4.7804,-4.7129,-4.586,-4.5242,-4.4967,-4.4895,-4.4846,-4.4821,-4.477,-4.4745,-4.4719,-4.4719,-4.4629,-4.4541,-4.4513,-4.4421,-4.4335,-4.421,-4.4121,-4.403,-4.3918,-4.3809,-4.3697,-4.3649,-4.3511,-4.3353,-4.3301,-4.3303,-4.3269,-4.2956,-4.2745,-4.2745,-4.2822,-4.2786,-4.2786,-4.2747,-4.2688,-4.2649,-4.257,-4.2472,-4.2292,-4.221,-4.2187,-4.2061,-4.1892,-4.1719,-4.1587,-4.1471,-4.129,-4.1134,-4.0965,-4.0888,-4.0793,-4.0648,-4.0387,-4.0087,-3.9211,-3.8304,-3.7036,-3.5828,-3.5251,-3.4742,-3.4628,-3.4497,-3.4399,-3.43,-3.425,-3.4084,-3.3949,-3.3949,-3.3899,-3.3745,-3.3658,-3.3555,-3.3398,-3.3293,-3.3134,-3.292,-3.2703,-3.2444,-3.2318,-3.2373,-3.2318,-3.2237,-3.2237,-4.6289,-4.6289,-4.6289,-4.6288,-4.6301,-4.6287,-4.6296,-4.6288,-4.6303,-4.6275,-4.6209,-4.6144,-4.6142,-4.6127,-4.613,-4.6075,-4.5988,-4.5944,-4.5893,-4.5814,-4.5742,-4.5665,-4.562,-4.5667,-4.5975,-4.6664,-4.7463,-4.828,-4.9022,-4.822,-4.7872,-4.7258,-4.6167,-4.5341,-4.5103,-4.508,-4.5033,-4.5033,-4.4991,-4.4967,-4.4962,-4.4943,-4.4919,-4.4821,-4.4796,-4.4745,-4.464,-4.4522,-4.4439,-4.4355,-4.4288,-4.417,-4.4097,-4.4055,-4.3923,-4.3823,-4.3707,-4.3675,-4.3545,-4.3321,-4.3123,-4.3142,-4.3032,-4.3032,-4.2995,-4.2938,-4.2918,-4.2918,-4.2842,-4.2727,-4.2573,-4.2573,-4.2512,-4.2391,-4.2187,-4.2002,-4.1977,-4.1849,-4.1675,-4.1542,-4.138,-4.1215,-4.1076,-4.0935,-4.0648,-4.0453,-4.0034,-3.9192,-3.8118,-3.7015,-3.61,-3.5635,-3.5271,-3.5094,-3.4899,-3.4789,-3.4692,-3.4546,-3.4399,-3.4399,-3.43,-3.4201,-3.4101,-3.4,-3.3848,-3.3658,-3.345,-3.3346,-3.3081,-3.2773,-3.2679,-3.2671,-3.2594,-3.257,-3.2514,-4.6289,-4.6289,-4.6289,-4.6288,-4.63,-4.6287,-4.63,-4.63,-4.6288,-4.6279,-4.6211,-4.6181,-4.6189,-4.619,-4.619,-4.613,-4.6099,-4.6093,-4.6037,-4.5929,-4.5874,-4.5805,-4.5715,-4.5734,-4.5992,-4.6781,-4.7527,-4.8307,-4.899,-4.8245,-4.7879,-4.7245,-4.6118,-4.5235,-4.5211,-4.5125,-4.5103,-4.5103,-4.5103,-4.5125,-4.5106,-4.5106,-4.5103,-4.5038,-4.501,-4.4943,-4.4895,-4.4802,-4.4726,-4.4648,-4.4613,-4.4532,-4.4449,-4.4355,-4.425,-4.4192,-4.4065,-4.3992,-4.3974,-4.3682,-4.3548,-4.3479,-4.3373,-4.3356,-4.3286,-4.3268,-4.3196,-4.3196,-4.3123,-4.3105,-4.3031,-4.2938,-4.2824,-4.2727,-4.2512,-4.2391,-4.2351,-4.2187,-4.2061,-4.1874,-4.1719,-4.1515,-4.1398,-4.1169,-4.0935,-4.0714,-4.0634,-3.9976,-3.8979,-3.8156,-3.7168,-3.673,-3.6266,-3.5933,-3.571,-3.5382,-3.5141,-3.4996,-3.4899,-3.4835,-3.4787,-3.4643,-3.4546,-3.4497,-3.425,-3.4,-3.3915,-3.3777,-3.3662,-3.3518,-3.3138,-3.2998,-3.2959,-3.303,-3.3153,-4.6289,-4.6289,-4.6289,-4.6306,-4.629,-4.6303,-4.63,-4.63,-4.6296,-4.6292,-4.6269,-4.6284,-4.6275,-4.6265,-4.622,-4.6195,-4.6164,-4.6169,-4.6122,-4.6047,-4.5983,-4.5912,-4.5819,-4.5808,-4.6097,-4.6837,-4.7549,-4.7988,-4.833,-4.7945,-4.7484,-4.6832,-4.6009,-4.5394,-4.5275,-4.5254,-4.5235,-4.5297,-4.5297,-4.5298,-4.5281,-4.5298,-4.5275,-4.5213,-4.517,-4.5125,-4.5061,-4.4991,-4.4943,-4.4895,-4.4846,-4.4796,-4.4745,-4.4655,-4.4595,-4.4541,-4.4421,-4.4374,-4.4391,-4.4263,-4.4067,-4.3892,-4.373,-4.3682,-4.3682,-4.3529,-4.3495,-4.3426,-4.3356,-4.3304,-4.3214,-4.316,-4.305,-4.3068,-4.2918,-4.2824,-4.2709,-4.257,-4.2351,-4.2228,-4.2061,-4.1823,-4.1604,-4.1426,-4.1152,-4.0982,-4.0858,-4.0435,-3.9555,-3.9054,-3.8299,-3.7955,-3.7534,-3.7,-3.6586,-3.6224,-3.5811,-3.5568,-3.5404,-3.5287,-3.5195,-3.5071,-3.4977,-3.4883,-3.4643,-3.4415,-3.4495,-3.454,-3.4526,-3.4377,-3.4276,-3.4132,-3.4132,-3.4225,-3.4291,-4.6288,-4.6288,-4.6288,-4.6289,-4.6301,-4.6295,-4.6306,-4.6303,-4.63,-4.63,-4.63,-4.6292,-4.6288,-4.6284,-4.6245,-4.624,-4.6245,-4.6245,-4.6209,-4.6127,-4.6047,-4.5997,-4.5929,-4.5886,-4.6263,-4.6863,-4.7353,-4.7741,-4.8087,-4.7741,-4.7049,-4.6242,-4.5706,-4.5437,-4.5339,-4.532,-4.5341,-4.538,-4.538,-4.54,-4.538,-4.54,-4.5379,-4.5338,-4.5297,-4.5254,-4.5189,-4.5148,-4.5106,-4.508,-4.5057,-4.5014,-4.4967,-4.4919,-4.4889,-4.4796,-4.4719,-4.4704,-4.4753,-4.4689,-4.4477,-4.4317,-4.4128,-4.4005,-4.3974,-4.3828,-4.3763,-4.3697,-4.3579,-4.3529,-4.3495,-4.341,-4.3304,-4.3286,-4.3178,-4.3105,-4.2994,-4.2842,-4.2727,-4.257,-4.2391,-4.2103,-4.1805,-4.1604,-4.1426,-4.1261,-4.1123,-4.0602,-4.0117,-3.9667,-3.9299,-3.8956,-3.8511,-3.7923,-3.7405,-3.7019,-3.6588,-3.6214,-3.6034,-3.5932,-3.5622,-3.5487,-3.5396,-3.5291,-3.5108,-3.5033,-3.5186,-3.5316,-3.5671,-3.589,-3.5905,-3.5694,-3.5546,-3.5442,-3.5383,-4.6301,-4.6301,-4.6301,-4.6301,-4.6303,-4.6289,-4.628,-4.6303,-4.6303,-4.6303,-4.63,-4.6303,-4.63,-4.63,-4.63,-4.6303,-4.6303,-4.63,-4.626,-4.6209,-4.613,-4.6099,-4.6047,-4.5983,-4.6403,-4.682,-4.7191,-4.7513,-4.7945,-4.7201,-4.6301,-4.5726,-4.5534,-4.5438,-4.5419,-4.5438,-4.5419,-4.5438,-4.5419,-4.5438,-4.5457,-4.5438,-4.5419,-4.538,-4.5379,-4.5338,-4.5277,-4.5235,-4.5213,-4.517,-4.5148,-4.5125,-4.5084,-4.5103,-4.5038,-4.4991,-4.4919,-4.4952,-4.5047,-4.4946,-4.4865,-4.4693,-4.4467,-4.4298,-4.4199,-4.4109,-4.4067,-4.4005,-4.3892,-4.3878,-4.3865,-4.3682,-4.3513,-4.341,-4.3322,-4.3232,-4.3214,-4.3105,-4.2994,-4.288,-4.267,-4.2432,-4.2103,-4.1849,-4.1675,-4.1515,-4.1398,-4.1163,-4.0678,-4.0279,-3.9945,-3.9778,-3.925,-3.8734,-3.8265,-3.798,-3.7575,-3.7222,-3.6795,-3.6625,-3.629,-3.6185,-3.6384,-3.6287,-3.5795,-3.5679,-3.6072,-3.6622,-3.7151,-3.731,-3.7212,-3.7107,-3.6812,-3.6453,-3.6326,-4.6234,-4.623,-4.6225,-4.6241,-4.623,-4.6222,-4.6262,-4.6287,-4.6303,-4.63,-4.6297,-4.6297,-4.6293,-4.6303,-4.6293,-4.6301,-4.63,-4.6293,-4.63,-4.626,-4.6201,-4.6151,-4.6088,-4.6114,-4.653,-4.6899,-4.7146,-4.711,-4.7144,-4.6491,-4.6056,-4.5673,-4.5582,-4.5545,-4.5563,-4.5599,-4.5566,-4.5513,-4.5475,-4.5494,-4.5513,-4.5495,-4.5495,-4.5477,-4.5419,-4.5399,-4.5359,-4.5298,-4.5277,-4.5275,-4.5235,-4.5235,-4.5235,-4.5192,-4.5148,-4.5061,-4.5019,-4.5038,-4.519,-4.5171,-4.5071,-4.501,-4.4827,-4.4674,-4.4513,-4.4421,-4.4354,-4.4277,-4.417,-4.4128,-4.4005,-4.3878,-4.3716,-4.3582,-4.3513,-4.341,-4.3393,-4.3322,-4.3233,-4.3105,-4.29,-4.267,-4.2351,-4.2205,-4.2019,-4.1762,-4.1604,-4.1471,-4.122,-4.0758,-4.051,-4.0343,-4.0146,-3.9617,-3.9376,-3.9107,-3.8694,-3.8298,-3.7789,-3.747,-3.7494,-3.7501,-3.753,-3.7388,-3.7034,-3.7,-3.7211,-3.7768,-3.8388,-3.8402,-3.8361,-3.8224,-3.8052,-3.7627,-3.742,-4.5156,-4.5181,-4.5163,-4.5158,-4.524,-4.5552,-4.5722,-4.579,-4.6132,-4.6289,-4.6306,-4.6306,-4.6303,-4.6301,-4.6305,-4.6288,-4.6289,-4.6305,-4.6297,-4.6287,-4.6238,-4.6216,-4.6183,-4.6169,-4.6364,-4.6698,-4.6763,-4.6651,-4.6557,-4.6261,-4.5819,-4.5776,-4.5727,-4.5692,-4.5692,-4.5712,-4.5696,-4.5632,-4.5599,-4.5599,-4.5601,-4.5603,-4.5568,-4.5532,-4.5477,-4.5438,-4.5419,-4.536,-4.536,-4.5339,-4.5339,-4.532,-4.532,-4.53,-4.5279,-4.5218,-4.5199,-4.5237,-4.5333,-4.5311,-4.5252,-4.5189,-4.5125,-4.4967,-4.4821,-4.4693,-4.4613,-4.4532,-4.4421,-4.4288,-4.4158,-4.4036,-4.391,-4.3781,-4.3701,-4.36,-4.3532,-4.3481,-4.3393,-4.3251,-4.3068,-4.2862,-4.2631,-4.253,-4.2328,-4.2061,-4.1849,-4.1692,-4.1453,-4.1139,-4.0943,-4.0845,-4.0787,-4.0619,-4.0377,-3.9968,-3.9491,-3.9008,-3.8498,-3.8298,-3.8522,-3.8425,-3.8225,-3.8305,-3.8372,-3.8367,-3.8343,-3.8952,-3.9478,-3.9413,-3.931,-3.9222,-3.901,-3.871,-3.8548,-4.3622,-4.3656,-4.3584,-4.3728,-4.3734,-4.4468,-4.4793,-4.4883,-4.5581,-4.6147,-4.623,-4.6289,-4.6289,-4.6289,-4.6289,-4.6289,-4.6288,-4.6289,-4.6288,-4.6303,-4.6276,-4.6264,-4.6253,-4.625,-4.6274,-4.6176,-4.6166,-4.6327,-4.6115,-4.5977,-4.5941,-4.5919,-4.5899,-4.5867,-4.5841,-4.5841,-4.5827,-4.5814,-4.5771,-4.5742,-4.57,-4.5687,-4.5673,-4.5603,-4.5531,-4.5495,-4.5419,-4.5419,-4.54,-4.54,-4.54,-4.54,-4.5381,-4.5381,-4.5381,-4.54,-4.5361,-4.54,-4.5418,-4.5417,-4.5378,-4.5317,-4.5256,-4.5192,-4.5061,-4.4919,-4.484,-4.4764,-4.4621,-4.4505,-4.4393,-4.4248,-4.4097,-4.3942,-4.3865,-4.3734,-4.3634,-4.3566,-4.3497,-4.3358,-4.3251,-4.3031,-4.288,-4.2727,-4.257,-4.2351,-4.2145,-4.1977,-4.1762,-4.1498,-4.13,-4.1255,-4.11,-4.099,-4.0868,-4.0476,-4.0089,-3.9658,-3.9261,-3.9181,-3.9394,-3.9152,-3.8791,-3.9095,-3.9448,-3.947,-3.958,-3.9958,-4.0131,-4.0118,-4.0069,-4.0137,-3.9969,-3.9575,-3.9418,-4.3471,-4.3519,-4.3519,-4.3529,-4.353,-4.3731,-4.3833,-4.3849,-4.4111,-4.5035,-4.6095,-4.6243,-4.6248,-4.6191,-4.6189,-4.6205,-4.6297,-4.6303,-4.6288,-4.6289,-4.6287,-4.6303,-4.6297,-4.6264,-4.6225,-4.6192,-4.6176,-4.6151,-4.6115,-4.6091,-4.6065,-4.6027,-4.6017,-4.5966,-4.5964,-4.5964,-4.5953,-4.5953,-4.5922,-4.5867,-4.581,-4.5781,-4.5735,-4.5687,-4.5618,-4.5586,-4.5531,-4.5457,-4.5419,-4.54,-4.54,-4.54,-4.54,-4.54,-4.5458,-4.5477,-4.5477,-4.5477,-4.5496,-4.5477,-4.5438,-4.5419,-4.5361,-4.536,-4.5277,-4.5125,-4.501,-4.4943,-4.4846,-4.4719,-4.4587,-4.4421,-4.4277,-4.4128,-4.3992,-4.3865,-4.3734,-4.3667,-4.3566,-4.3463,-4.3376,-4.3233,-4.3086,-4.2918,-4.2765,-4.2609,-4.2432,-4.2269,-4.2103,-4.1892,-4.1613,-4.148,-4.1255,-4.1128,-4.1047,-4.0949,-4.0591,-4.0498,-4.0274,-4.0227,-4.0233,-4.0026,-3.9802,-4.0215,-4.0513,-4.0315,-4.0233,-4.0408,-4.0549,-4.0551,-4.0485,-4.0485,-4.0436,-4.0154,-4.0054,-4.2222,-4.2264,-4.2294,-4.2291,-4.2377,-4.2733,-4.2937,-4.2983,-4.3354,-4.4137,-4.5016,-4.5145,-4.5338,-4.5659,-4.5731,-4.6058,-4.6186,-4.629,-4.6297,-4.6301,-4.6287,-4.6289,-4.6288,-4.6303,-4.6278,-4.6267,-4.6253,-4.6236,-4.6189,-4.6157,-4.6144,-4.6123,-4.6107,-4.6091,-4.6093,-4.6084,-4.6084,-4.6065,-4.6065,-4.6017,-4.5925,-4.5887,-4.5833,-4.5776,-4.5735,-4.5687,-4.5635,-4.5582,-4.5549,-4.5531,-4.5513,-4.5514,-4.5495,-4.5495,-4.5514,-4.5533,-4.5533,-4.5533,-4.5534,-4.5515,-4.5477,-4.5457,-4.5419,-4.538,-4.538,-4.5258,-4.5173,-4.5087,-4.4986,-4.4865,-4.4745,-4.4587,-4.4468,-4.4325,-4.4147,-4.4011,-4.3883,-4.3734,-4.3719,-4.3652,-4.3584,-4.3516,-4.3358,-4.3286,-4.3087,-4.2899,-4.2727,-4.2552,-4.2432,-4.231,-4.2002,-4.1744,-4.1552,-4.1346,-4.1255,-4.1192,-4.103,-4.1053,-4.1076,-4.0844,-4.0607,-4.0763,-4.0836,-4.0866,-4.0866,-4.0754,-4.0741,-4.0776,-4.0793,-4.0728,-4.068,-4.0662,-4.0662,-4.0662,-4.0566,-4.0759,-4.07,-4.0784,-4.0803,-4.09,-4.164,-4.2004,-4.2141,-4.2799,-4.3144,-4.3245,-4.3317,-4.3914,-4.4575,-4.5024,-4.5554,-4.5945,-4.616,-4.6241,-4.6284,-4.6295,-4.6301,-4.6305,-4.6288,-4.6289,-4.6305,-4.6295,-4.6264,-4.623,-4.6221,-4.6206,-4.6215,-4.6209,-4.6203,-4.6209,-4.6203,-4.6183,-4.6183,-4.6157,-4.6162,-4.6084,-4.5997,-4.5929,-4.5887,-4.5833,-4.581,-4.5776,-4.5746,-4.5719,-4.5671,-4.5637,-4.5603,-4.5605,-4.5586,-4.5586,-4.5605,-4.5587,-4.5568,-4.5568,-4.555,-4.5532,-4.5495,-4.5438,-4.5419,-4.5438,-4.54,-4.5301,-4.5237,-4.5106,-4.501,-4.4914,-4.4789,-4.4659,-4.4496,-4.4344,-4.4153,-4.4011,-4.3883,-4.3851,-4.3837,-4.3771,-4.3686,-4.3618,-4.3532,-4.3393,-4.3233,-4.3049,-4.2918,-4.2765,-4.2649,-4.2432,-4.221,-4.2002,-4.1805,-4.1542,-4.1408,-4.1318,-4.118,-4.1152,-4.1059,-4.0982,-4.1012,-4.1012,-4.0965,-4.0965,-4.0965,-4.0965,-4.0965,-4.0965,-4.0918,-4.0901,-4.0901,-4.0901,-4.0901,-4.0901,-4.0631,-4.0631,-4.0635,-4.0668,-4.0739,-4.0938,-4.1013,-4.1106,-4.1315,-4.1412,-4.1557,-4.1591,-4.2253,-4.3914,-4.466,-4.5148,-4.5406,-4.586,-4.6182,-4.6225,-4.6277,-4.6284,-4.629,-4.6295,-4.6303,-4.6289,-4.6307,-4.6282,-4.6254,-4.6264,-4.6277,-4.6273,-4.6273,-4.6245,-4.6206,-4.6201,-4.6206,-4.6206,-4.6206,-4.6195,-4.6164,-4.6091,-4.6047,-4.5994,-4.5917,-4.5893,-4.5867,-4.5805,-4.5781,-4.577,-4.5719,-4.5687,-4.5654,-4.5673,-4.5657,-4.564,-4.562,-4.5603,-4.5603,-4.5586,-4.5586,-4.5568,-4.5513,-4.5513,-4.5495,-4.5495,-4.5419,-4.538,-4.5258,-4.517,-4.508,-4.4938,-4.4815,-4.4632,-4.4468,-4.4314,-4.4165,-4.4023,-4.3961,-4.3915,-4.3818,-4.3786,-4.3753,-4.3667,-4.3597,-4.3444,-4.3339,-4.3178,-4.3087,-4.2994,-4.2842,-4.2649,-4.2432,-4.2103,-4.1823,-4.1648,-4.156,-4.1426,-4.129,-4.118,-4.118,-4.118,-4.1134,-4.1088,-4.1088,-4.1117,-4.1117,-4.1088,-4.1088,-4.1071,-4.1117,-4.1163,-4.1134,-4.1134,-4.1088]}]]